<?xml version='1.0' encoding='UTF-8'?><gpx version="1.1" creator="JPX - https://github.com/jenetics/jpx" xmlns="http://www.topografix.com/GPX/1/1"><trk><trkseg><trkpt lat="38.973919167304324" lon="8.420720571822203"><ele>110.0</ele><time>2026-03-31T08:38:47.999Z</time></trkpt><trkpt lat="38.97396262189046" lon="8.420639038482406"><ele>110.0</ele><time>2026-03-31T08:38:49.999Z</time></trkpt><trkpt lat="38.97397377864044" lon="8.420543245677273"><ele>110.0</ele><time>2026-03-31T08:38:54.999Z</time></trkpt><trkpt lat="38.97376981263086" lon="8.420468475338556"><ele>110.0</ele><time>2026-03-31T08:41:09.998Z</time></trkpt><trkpt lat="38.97362992234316" lon="8.420395572279233"><ele>109.0</ele><time>2026-03-31T08:41:10.999Z</time></trkpt><trkpt lat="38.97345652044134" lon="8.420295050838623"><ele>108.0</ele><time>2026-03-31T08:41:11.999Z</time></trkpt><trkpt lat="38.97327134064587" lon="8.420186653317904"><ele>107.0</ele><time>2026-03-31T08:41:12.999Z</time></trkpt><trkpt lat="38.97314768683075" lon="8.420029569992316"><ele>107.0</ele><time>2026-03-31T08:41:13.999Z</time></trkpt><trkpt lat="38.97300108309512" lon="8.419891051825411"><ele>107.0</ele><time>2026-03-31T08:41:14.999Z</time></trkpt><trkpt lat="38.97282066590492" lon="8.419767285993805"><ele>107.0</ele><time>2026-03-31T08:41:15.999Z</time></trkpt><trkpt lat="38.97268823717326" lon="8.419615772495176"><ele>108.0</ele><time>2026-03-31T08:41:16.999Z</time></trkpt><trkpt lat="38.972580708236386" lon="8.41950114746931"><ele>109.0</ele><time>2026-03-31T08:41:17.999Z</time></trkpt><trkpt lat="38.972482589599586" lon="8.419377611515081"><ele>110.0</ele><time>2026-03-31T08:41:18.999Z</time></trkpt><trkpt lat="38.972362978914646" lon="8.419307277161968"><ele>111.0</ele><time>2026-03-31T08:41:19.999Z</time></trkpt><trkpt lat="38.97221227325284" lon="8.419246015050026"><ele>111.0</ele><time>2026-03-31T08:41:20.999Z</time></trkpt><trkpt lat="38.97203513069928" lon="8.419168268958936"><ele>111.0</ele><time>2026-03-31T08:41:21.999Z</time></trkpt><trkpt lat="38.97188057801391" lon="8.419077253858438"><ele>111.0</ele><time>2026-03-31T08:41:22.999Z</time></trkpt><trkpt lat="38.971741859073035" lon="8.419009218441957"><ele>107.25</ele><time>2026-03-31T08:41:23.999Z</time></trkpt><trkpt lat="38.97159842465577" lon="8.418969374310945"><ele>103.5</ele><time>2026-03-31T08:41:24.999Z</time></trkpt><trkpt lat="38.97145246197459" lon="8.418950894474886"><ele>99.75</ele><time>2026-03-31T08:41:25.999Z</time></trkpt><trkpt lat="38.971335755255666" lon="8.418889938640019"><ele>96.0</ele><time>2026-03-31T08:41:26.999Z</time></trkpt><trkpt lat="38.97123757611078" lon="8.418838326818452"><ele>97.25</ele><time>2026-03-31T08:41:27.999Z</time></trkpt><trkpt lat="38.97117299526482" lon="8.418718005732222"><ele>98.5</ele><time>2026-03-31T08:41:28.999Z</time></trkpt><trkpt lat="38.971057681516896" lon="8.418614280461563"><ele>99.75</ele><time>2026-03-31T08:41:29.999Z</time></trkpt><trkpt lat="38.97092860016823" lon="8.418557063043032"><ele>101.0</ele><time>2026-03-31T08:41:30.999Z</time></trkpt><trkpt lat="38.970780772693324" lon="8.418495543637988"><ele>101.0</ele><time>2026-03-31T08:41:31.999Z</time></trkpt><trkpt lat="38.970631144339976" lon="8.418460474866967"><ele>101.0</ele><time>2026-03-31T08:41:32.999Z</time></trkpt><trkpt lat="38.97052388121542" lon="8.418462819473817"><ele>101.0</ele><time>2026-03-31T08:41:33.999Z</time></trkpt><trkpt lat="38.970436681078766" lon="8.418471295920614"><ele>101.0</ele><time>2026-03-31T08:41:34.999Z</time></trkpt><trkpt lat="38.970341307701965" lon="8.418486734984377"><ele>101.0</ele><time>2026-03-31T08:41:35.999Z</time></trkpt><trkpt lat="38.97023848663569" lon="8.418504856336881"><ele>101.0</ele><time>2026-03-31T08:41:36.999Z</time></trkpt><trkpt lat="38.970132965825506" lon="8.41852010359299"><ele>101.0</ele><time>2026-03-31T08:41:37.999Z</time></trkpt><trkpt lat="38.97003634433554" lon="8.41852599439572"><ele>101.0</ele><time>2026-03-31T08:41:38.999Z</time></trkpt><trkpt lat="38.96995828694424" lon="8.41852313999449"><ele>101.0</ele><time>2026-03-31T08:41:39.999Z</time></trkpt><trkpt lat="38.969847366194685" lon="8.418502201137635"><ele>101.0</ele><time>2026-03-31T08:41:41.999Z</time></trkpt><trkpt lat="38.96978039688578" lon="8.418424548940093"><ele>100.83333333333333</ele><time>2026-03-31T08:41:43.999Z</time></trkpt><trkpt lat="38.96969490165061" lon="8.418396329515355"><ele>100.66666666666666</ele><time>2026-03-31T08:41:45.999Z</time></trkpt><trkpt lat="38.96960780502023" lon="8.418419315236696"><ele>100.5</ele><time>2026-03-31T08:41:46.999Z</time></trkpt><trkpt lat="38.96949830181332" lon="8.418450251521474"><ele>100.33333333333334</ele><time>2026-03-31T08:41:47.999Z</time></trkpt><trkpt lat="38.96941892212773" lon="8.418439967052308"><ele>100.16666666666667</ele><time>2026-03-31T08:41:48.999Z</time></trkpt><trkpt lat="38.96935825611294" lon="8.418401582685599"><ele>100.0</ele><time>2026-03-31T08:41:49.999Z</time></trkpt><trkpt lat="38.96925855661207" lon="8.418259610137241"><ele>100.0</ele><time>2026-03-31T08:41:51.999Z</time></trkpt><trkpt lat="38.969210696447604" lon="8.418156294442749"><ele>100.0</ele><time>2026-03-31T08:41:52.999Z</time></trkpt><trkpt lat="38.969154996059316" lon="8.418064769827913"><ele>100.0</ele><time>2026-03-31T08:41:53.999Z</time></trkpt><trkpt lat="38.969079436802666" lon="8.417994633713377"><ele>100.0</ele><time>2026-03-31T08:41:54.999Z</time></trkpt><trkpt lat="38.96899165293546" lon="8.417942158326264"><ele>100.0</ele><time>2026-03-31T08:41:55.999Z</time></trkpt><trkpt lat="38.96888871724196" lon="8.41790148607588"><ele>99.25</ele><time>2026-03-31T08:41:56.999Z</time></trkpt><trkpt lat="38.968765640397756" lon="8.417870590291528"><ele>98.5</ele><time>2026-03-31T08:41:57.999Z</time></trkpt><trkpt lat="38.96864082398062" lon="8.417850237659808"><ele>97.75</ele><time>2026-03-31T08:41:58.999Z</time></trkpt><trkpt lat="38.96851593602042" lon="8.417856323127634"><ele>97.0</ele><time>2026-03-31T08:41:59.999Z</time></trkpt><trkpt lat="38.968368509234004" lon="8.417876661561705"><ele>97.75</ele><time>2026-03-31T08:42:00.999Z</time></trkpt><trkpt lat="38.96821575460746" lon="8.417855853831469"><ele>98.5</ele><time>2026-03-31T08:42:01.999Z</time></trkpt><trkpt lat="38.96808092967292" lon="8.41786646234793"><ele>99.25</ele><time>2026-03-31T08:42:02.999Z</time></trkpt><trkpt lat="38.96795742574574" lon="8.417815579307806"><ele>100.0</ele><time>2026-03-31T08:42:03.999Z</time></trkpt><trkpt lat="38.96785257983119" lon="8.417730264157427"><ele>100.0</ele><time>2026-03-31T08:42:04.999Z</time></trkpt><trkpt lat="38.967750113516104" lon="8.417663489038986"><ele>100.0</ele><time>2026-03-31T08:42:05.999Z</time></trkpt><trkpt lat="38.96766567742562" lon="8.417582798735046"><ele>100.0</ele><time>2026-03-31T08:42:06.999Z</time></trkpt><trkpt lat="38.96758990722135" lon="8.417482603792314"><ele>100.0</ele><time>2026-03-31T08:42:07.999Z</time></trkpt><trkpt lat="38.96751601697065" lon="8.417368386643998"><ele>100.0</ele><time>2026-03-31T08:42:08.999Z</time></trkpt><trkpt lat="38.967436976938586" lon="8.417281714882433"><ele>99.4</ele><time>2026-03-31T08:42:09.999Z</time></trkpt><trkpt lat="38.9673588274463" lon="8.417197653584035"><ele>98.8</ele><time>2026-03-31T08:42:10.999Z</time></trkpt><trkpt lat="38.967262785455496" lon="8.417104828649988"><ele>98.19999999999999</ele><time>2026-03-31T08:42:11.999Z</time></trkpt><trkpt lat="38.967181677488355" lon="8.417009978795088"><ele>97.6</ele><time>2026-03-31T08:42:12.999Z</time></trkpt><trkpt lat="38.96712840945974" lon="8.41689580436006"><ele>97.0</ele><time>2026-03-31T08:42:13.999Z</time></trkpt><trkpt lat="38.96705034894164" lon="8.41675348038644"><ele>97.0</ele><time>2026-03-31T08:42:14.999Z</time></trkpt><trkpt lat="38.96693567009274" lon="8.416582673280896"><ele>97.0</ele><time>2026-03-31T08:42:15.999Z</time></trkpt><trkpt lat="38.96684285473398" lon="8.41641195915066"><ele>97.0</ele><time>2026-03-31T08:42:16.999Z</time></trkpt><trkpt lat="38.96680861736388" lon="8.416238143756306"><ele>98.0</ele><time>2026-03-31T08:42:17.999Z</time></trkpt><trkpt lat="38.966745975573254" lon="8.416065983489759"><ele>99.0</ele><time>2026-03-31T08:42:18.999Z</time></trkpt><trkpt lat="38.966653807329195" lon="8.415894046322734"><ele>100.0</ele><time>2026-03-31T08:42:19.999Z</time></trkpt><trkpt lat="38.96655020445453" lon="8.415743635635922"><ele>100.0</ele><time>2026-03-31T08:42:20.999Z</time></trkpt><trkpt lat="38.966476147088756" lon="8.415585351761116"><ele>100.0</ele><time>2026-03-31T08:42:21.999Z</time></trkpt><trkpt lat="38.96641324510273" lon="8.415417883549093"><ele>100.0</ele><time>2026-03-31T08:42:22.999Z</time></trkpt><trkpt lat="38.966369495775055" lon="8.415222452149392"><ele>100.0</ele><time>2026-03-31T08:42:23.999Z</time></trkpt><trkpt lat="38.966317025091776" lon="8.415033655146862"><ele>102.0</ele><time>2026-03-31T08:42:24.999Z</time></trkpt><trkpt lat="38.966270322156085" lon="8.414845378213588"><ele>104.0</ele><time>2026-03-31T08:42:25.999Z</time></trkpt><trkpt lat="38.96622808946472" lon="8.414657223658212"><ele>106.0</ele><time>2026-03-31T08:42:26.999Z</time></trkpt><trkpt lat="38.96619049909471" lon="8.414491712613993"><ele>108.0</ele><time>2026-03-31T08:42:27.999Z</time></trkpt><trkpt lat="38.96615644987683" lon="8.414361678559294"><ele>110.0</ele><time>2026-03-31T08:42:28.999Z</time></trkpt><trkpt lat="38.96618518790731" lon="8.414226882995132"><ele>112.00000000000001</ele><time>2026-03-31T08:42:29.999Z</time></trkpt><trkpt lat="38.96619799629457" lon="8.414103542939426"><ele>114.00000000000001</ele><time>2026-03-31T08:42:30.999Z</time></trkpt><trkpt lat="38.96619918967487" lon="8.413991092777994"><ele>116.0</ele><time>2026-03-31T08:42:31.999Z</time></trkpt><trkpt lat="38.9662124418022" lon="8.413868520972787"><ele>118.0</ele><time>2026-03-31T08:42:33.999Z</time></trkpt><trkpt lat="38.96621576335175" lon="8.413749400523528"><ele>118.0</ele><time>2026-03-31T08:42:36.999Z</time></trkpt><trkpt lat="38.96621452246946" lon="8.413832588685718"><ele>118.00000000000001</ele><time>2026-03-31T08:43:06.998Z</time></trkpt><trkpt lat="38.96619842177767" lon="8.41394552001641"><ele>118.00000000000001</ele><time>2026-03-31T08:43:08.998Z</time></trkpt><trkpt lat="38.96619206828772" lon="8.41407222331913"><ele>118.0</ele><time>2026-03-31T08:43:10.998Z</time></trkpt><trkpt lat="38.96617499227849" lon="8.414231444692641"><ele>118.0</ele><time>2026-03-31T08:43:12.998Z</time></trkpt><trkpt lat="38.966166875657876" lon="8.41435937542646"><ele>118.0</ele><time>2026-03-31T08:43:13.998Z</time></trkpt><trkpt lat="38.96616965594703" lon="8.414486879937504"><ele>118.00000000000001</ele><time>2026-03-31T08:43:14.998Z</time></trkpt><trkpt lat="38.96616764985344" lon="8.414606887690043"><ele>118.00000000000001</ele><time>2026-03-31T08:43:15.998Z</time></trkpt><trkpt lat="38.96619295203894" lon="8.414738251343106"><ele>118.0</ele><time>2026-03-31T08:43:16.999Z</time></trkpt><trkpt lat="38.9662591261604" lon="8.414880369853195"><ele>118.0</ele><time>2026-03-31T08:43:17.999Z</time></trkpt><trkpt lat="38.966297512600626" lon="8.415026220830342"><ele>116.0</ele><time>2026-03-31T08:43:18.999Z</time></trkpt><trkpt lat="38.96633430663118" lon="8.415161493304408"><ele>114.00000000000001</ele><time>2026-03-31T08:43:19.999Z</time></trkpt><trkpt lat="38.96637177069609" lon="8.415289424866232"><ele>112.00000000000001</ele><time>2026-03-31T08:43:20.999Z</time></trkpt><trkpt lat="38.96641872174159" lon="8.41541422409226"><ele>110.0</ele><time>2026-03-31T08:43:21.999Z</time></trkpt><trkpt lat="38.96646610236757" lon="8.415538998053831"><ele>108.0</ele><time>2026-03-31T08:43:22.999Z</time></trkpt><trkpt lat="38.96649020755685" lon="8.415666092109635"><ele>106.4</ele><time>2026-03-31T08:43:23.999Z</time></trkpt><trkpt lat="38.96653170191255" lon="8.415796016515623"><ele>104.80000000000001</ele><time>2026-03-31T08:43:24.999Z</time></trkpt><trkpt lat="38.966573811815216" lon="8.415918034835931"><ele>103.2</ele><time>2026-03-31T08:43:25.999Z</time></trkpt><trkpt lat="38.96664378559017" lon="8.416027361188442"><ele>101.6</ele><time>2026-03-31T08:43:26.999Z</time></trkpt><trkpt lat="38.96670757502358" lon="8.4161343023771"><ele>100.0</ele><time>2026-03-31T08:43:27.999Z</time></trkpt><trkpt lat="38.96676843037143" lon="8.416243054540168"><ele>99.25</ele><time>2026-03-31T08:43:28.999Z</time></trkpt><trkpt lat="38.96685108658331" lon="8.416341858781275"><ele>98.5</ele><time>2026-03-31T08:43:29.999Z</time></trkpt><trkpt lat="38.96695483400043" lon="8.416412035925967"><ele>97.75</ele><time>2026-03-31T08:43:30.999Z</time></trkpt><trkpt lat="38.96694025584884" lon="8.416616122665204"><ele>97.0</ele><time>2026-03-31T08:43:31.999Z</time></trkpt><trkpt lat="38.96701301814959" lon="8.416747405070284"><ele>97.0</ele><time>2026-03-31T08:43:32.999Z</time></trkpt><trkpt lat="38.967089261591205" lon="8.416870616795679"><ele>97.0</ele><time>2026-03-31T08:43:33.999Z</time></trkpt><trkpt lat="38.96716372538831" lon="8.416992674093011"><ele>97.0</ele><time>2026-03-31T08:43:34.999Z</time></trkpt><trkpt lat="38.96723436583272" lon="8.417107181556798"><ele>97.0</ele><time>2026-03-31T08:43:35.999Z</time></trkpt><trkpt lat="38.9673119072315" lon="8.417199555770724"><ele>97.6</ele><time>2026-03-31T08:43:36.999Z</time></trkpt><trkpt lat="38.96739122231967" lon="8.417266980046016"><ele>98.19999999999999</ele><time>2026-03-31T08:43:37.999Z</time></trkpt><trkpt lat="38.96746841707593" lon="8.417354393114499"><ele>98.8</ele><time>2026-03-31T08:43:38.999Z</time></trkpt><trkpt lat="38.96752956991146" lon="8.417455219475212"><ele>99.4</ele><time>2026-03-31T08:43:39.999Z</time></trkpt><trkpt lat="38.96761375182291" lon="8.41754969934036"><ele>100.0</ele><time>2026-03-31T08:43:40.999Z</time></trkpt><trkpt lat="38.967683527246955" lon="8.417655118280262"><ele>100.0</ele><time>2026-03-31T08:43:41.999Z</time></trkpt><trkpt lat="38.96776346600432" lon="8.417733601354119"><ele>100.0</ele><time>2026-03-31T08:43:42.999Z</time></trkpt><trkpt lat="38.9678685446089" lon="8.417795671963454"><ele>100.0</ele><time>2026-03-31T08:43:43.999Z</time></trkpt><trkpt lat="38.967976694247405" lon="8.417840217756895"><ele>100.0</ele><time>2026-03-31T08:43:44.999Z</time></trkpt><trkpt lat="38.968091625169016" lon="8.417871683982739"><ele>100.0</ele><time>2026-03-31T08:43:45.999Z</time></trkpt><trkpt lat="38.968208877690785" lon="8.417893770989428"><ele>100.0</ele><time>2026-03-31T08:43:46.999Z</time></trkpt><trkpt lat="38.96832233753597" lon="8.417902279428672"><ele>100.0</ele><time>2026-03-31T08:43:47.999Z</time></trkpt><trkpt lat="38.968435021144394" lon="8.417887211713655"><ele>100.0</ele><time>2026-03-31T08:43:48.999Z</time></trkpt><trkpt lat="38.96855075176514" lon="8.417868314398891"><ele>100.0</ele><time>2026-03-31T08:43:49.999Z</time></trkpt><trkpt lat="38.96866150414265" lon="8.417868506165407"><ele>99.4</ele><time>2026-03-31T08:43:50.999Z</time></trkpt><trkpt lat="38.96876124165943" lon="8.417892238619858"><ele>98.8</ele><time>2026-03-31T08:43:51.999Z</time></trkpt><trkpt lat="38.96886659069402" lon="8.417903887979138"><ele>98.19999999999999</ele><time>2026-03-31T08:43:52.999Z</time></trkpt><trkpt lat="38.96896503495171" lon="8.417940805668696"><ele>97.6</ele><time>2026-03-31T08:43:53.999Z</time></trkpt><trkpt lat="38.96905755429036" lon="8.418011681780179"><ele>97.0</ele><time>2026-03-31T08:43:54.999Z</time></trkpt><trkpt lat="38.96912580524174" lon="8.418072529632237"><ele>97.50000000000001</ele><time>2026-03-31T08:43:55.999Z</time></trkpt><trkpt lat="38.96918664509322" lon="8.418138162247438"><ele>98.0</ele><time>2026-03-31T08:43:56.999Z</time></trkpt><trkpt lat="38.969249201519496" lon="8.418252396724977"><ele>98.5</ele><time>2026-03-31T08:43:57.999Z</time></trkpt><trkpt lat="38.96931924331248" lon="8.418352028216555"><ele>99.0</ele><time>2026-03-31T08:43:58.999Z</time></trkpt><trkpt lat="38.9693766444827" lon="8.418413627394887"><ele>99.50000000000001</ele><time>2026-03-31T08:44:00Z</time></trkpt><trkpt lat="38.96943938001817" lon="8.418454365616569"><ele>100.0</ele><time>2026-03-31T08:44:01Z</time></trkpt><trkpt lat="38.96951329223253" lon="8.418456982399427"><ele>100.00000000000001</ele><time>2026-03-31T08:44:02Z</time></trkpt><trkpt lat="38.969595968139984" lon="8.418449182757396"><ele>100.0</ele><time>2026-03-31T08:44:03Z</time></trkpt><trkpt lat="38.9696879477749" lon="8.418430265921279"><ele>100.0</ele><time>2026-03-31T08:44:04Z</time></trkpt><trkpt lat="38.96976717337649" lon="8.418430475124437"><ele>100.0</ele><time>2026-03-31T08:44:05Z</time></trkpt><trkpt lat="38.969835635274165" lon="8.418457408179474"><ele>100.00000000000001</ele><time>2026-03-31T08:44:06Z</time></trkpt><trkpt lat="38.96989859084264" lon="8.418515199085679"><ele>100.0</ele><time>2026-03-31T08:44:07Z</time></trkpt><trkpt lat="38.969971735429816" lon="8.418562655080741"><ele>100.25</ele><time>2026-03-31T08:44:08Z</time></trkpt><trkpt lat="38.97005290380154" lon="8.41856696282242"><ele>100.5</ele><time>2026-03-31T08:44:09Z</time></trkpt><trkpt lat="38.9701657476526" lon="8.418559218868895"><ele>100.75</ele><time>2026-03-31T08:44:10Z</time></trkpt><trkpt lat="38.97032443989166" lon="8.418534490851451"><ele>101.0</ele><time>2026-03-31T08:44:11Z</time></trkpt><trkpt lat="38.97049152638998" lon="8.418509342405997"><ele>101.0</ele><time>2026-03-31T08:44:12Z</time></trkpt><trkpt lat="38.970603693877685" lon="8.418495718180433"><ele>101.0</ele><time>2026-03-31T08:44:13Z</time></trkpt><trkpt lat="38.97069375026788" lon="8.418501230853478"><ele>101.0</ele><time>2026-03-31T08:44:14Z</time></trkpt><trkpt lat="38.970800274580824" lon="8.41852336984556"><ele>101.0</ele><time>2026-03-31T08:44:15Z</time></trkpt><trkpt lat="38.970914253793495" lon="8.418565270358139"><ele>101.0</ele><time>2026-03-31T08:44:16Z</time></trkpt><trkpt lat="38.9710166163784" lon="8.418621193739458"><ele>100.0</ele><time>2026-03-31T08:44:17Z</time></trkpt><trkpt lat="38.9711137126513" lon="8.418679758351866"><ele>99.0</ele><time>2026-03-31T08:44:18Z</time></trkpt><trkpt lat="38.97120422113513" lon="8.418760929870693"><ele>98.0</ele><time>2026-03-31T08:44:19Z</time></trkpt><trkpt lat="38.97129214881087" lon="8.418856704388041"><ele>97.0</ele><time>2026-03-31T08:44:20Z</time></trkpt><trkpt lat="38.971389066636334" lon="8.41893649976447"><ele>96.0</ele><time>2026-03-31T08:44:21Z</time></trkpt><trkpt lat="38.97149898967728" lon="8.418988195082639"><ele>96.0</ele><time>2026-03-31T08:44:22Z</time></trkpt><trkpt lat="38.971635028632505" lon="8.419022615683179"><ele>96.0</ele><time>2026-03-31T08:44:23Z</time></trkpt><trkpt lat="38.97177448588239" lon="8.41906215241047"><ele>96.0</ele><time>2026-03-31T08:44:24Z</time></trkpt><trkpt lat="38.97192410017593" lon="8.419124018736856"><ele>96.0</ele><time>2026-03-31T08:44:25Z</time></trkpt><trkpt lat="38.97210237174087" lon="8.419205146936697"><ele>101.0</ele><time>2026-03-31T08:44:26Z</time></trkpt><trkpt lat="38.97229074870719" lon="8.419294973074061"><ele>106.0</ele><time>2026-03-31T08:44:27Z</time></trkpt><trkpt lat="38.972447592971086" lon="8.419386409413152"><ele>111.0</ele><time>2026-03-31T08:44:28Z</time></trkpt><trkpt lat="38.97257243335199" lon="8.419465669702648"><ele>109.66666666666666</ele><time>2026-03-31T08:44:29Z</time></trkpt><trkpt lat="38.9727010019477" lon="8.419577876680654"><ele>108.33333333333333</ele><time>2026-03-31T08:44:30Z</time></trkpt><trkpt lat="38.972860305481476" lon="8.419744323622208"><ele>107.0</ele><time>2026-03-31T08:44:31Z</time></trkpt><trkpt lat="38.97301197730684" lon="8.41991839970834"><ele>107.0</ele><time>2026-03-31T08:44:32Z</time></trkpt><trkpt lat="38.973126360339435" lon="8.420053873617826"><ele>107.0</ele><time>2026-03-31T08:44:33Z</time></trkpt><trkpt lat="38.97323358761156" lon="8.420155740710163"><ele>107.0</ele><time>2026-03-31T08:44:34Z</time></trkpt><trkpt lat="38.97335523606063" lon="8.420239023368783"><ele>107.0</ele><time>2026-03-31T08:44:35Z</time></trkpt><trkpt lat="38.97351868040402" lon="8.420334182684591"><ele>107.75</ele><time>2026-03-31T08:44:36Z</time></trkpt><trkpt lat="38.973688821673754" lon="8.420422242203804"><ele>108.5</ele><time>2026-03-31T08:44:37Z</time></trkpt><trkpt lat="38.97381543879365" lon="8.420481613258447"><ele>109.25</ele><time>2026-03-31T08:44:38Z</time></trkpt><trkpt lat="38.97390322936248" lon="8.420524921305063"><ele>110.0</ele><time>2026-03-31T08:44:39Z</time></trkpt><trkpt lat="38.973966447315334" lon="8.420554563392026"><ele>110.0</ele><time>2026-03-31T08:44:40Z</time></trkpt><trkpt lat="38.973889632292874" lon="8.420511776230969"><ele>110.0</ele><time>2026-03-31T08:46:07Z</time></trkpt><trkpt lat="38.97377565083835" lon="8.420470071951454"><ele>110.0</ele><time>2026-03-31T08:46:09Z</time></trkpt><trkpt lat="38.97370604778922" lon="8.420429861873986"><ele>110.0</ele><time>2026-03-31T08:46:10Z</time></trkpt><trkpt lat="38.97360281918714" lon="8.42037082111527"><ele>110.0</ele><time>2026-03-31T08:46:11Z</time></trkpt><trkpt lat="38.97352051806705" lon="8.42032968265299"><ele>109.4</ele><time>2026-03-31T08:46:12Z</time></trkpt><trkpt lat="38.973443146463936" lon="8.42028852987737"><ele>108.8</ele><time>2026-03-31T08:46:13Z</time></trkpt><trkpt lat="38.973360675002205" lon="8.420238746215631"><ele>108.19999999999999</ele><time>2026-03-31T08:46:14Z</time></trkpt><trkpt lat="38.97326636625897" lon="8.42018674169595"><ele>107.6</ele><time>2026-03-31T08:46:15Z</time></trkpt><trkpt lat="38.97316726830925" lon="8.420098660513204"><ele>107.0</ele><time>2026-03-31T08:46:16Z</time></trkpt><trkpt lat="38.9730584932155" lon="8.419987002745952"><ele>107.0</ele><time>2026-03-31T08:46:17Z</time></trkpt><trkpt lat="38.97294174814661" lon="8.419850961225324"><ele>107.0</ele><time>2026-03-31T08:46:18Z</time></trkpt><trkpt lat="38.97281271332143" lon="8.419716400235723"><ele>107.0</ele><time>2026-03-31T08:46:19Z</time></trkpt><trkpt lat="38.97269206339622" lon="8.419587719504506"><ele>108.0</ele><time>2026-03-31T08:46:20Z</time></trkpt><trkpt lat="38.97258177897346" lon="8.419468764027055"><ele>109.0</ele><time>2026-03-31T08:46:21Z</time></trkpt><trkpt lat="38.972461264570136" lon="8.419372848041665"><ele>110.0</ele><time>2026-03-31T08:46:22Z</time></trkpt><trkpt lat="38.97233612162" lon="8.41930238684659"><ele>111.0</ele><time>2026-03-31T08:46:23Z</time></trkpt><trkpt lat="38.97221003594263" lon="8.419242225591608"><ele>111.0</ele><time>2026-03-31T08:46:24Z</time></trkpt><trkpt lat="38.97207545765603" lon="8.419193684670484"><ele>111.0</ele><time>2026-03-31T08:46:25Z</time></trkpt><trkpt lat="38.97193916576638" lon="8.419140567807304"><ele>111.0</ele><time>2026-03-31T08:46:26Z</time></trkpt><trkpt lat="38.971816836744935" lon="8.419074221180155"><ele>111.0</ele><time>2026-03-31T08:46:27Z</time></trkpt><trkpt lat="38.97169605366775" lon="8.419024237924733"><ele>107.25</ele><time>2026-03-31T08:46:28Z</time></trkpt><trkpt lat="38.97155964800374" lon="8.418986688390003"><ele>103.5</ele><time>2026-03-31T08:46:29Z</time></trkpt><trkpt lat="38.971429703226974" lon="8.418940769911051"><ele>99.75</ele><time>2026-03-31T08:46:30Z</time></trkpt><trkpt lat="38.97130398891782" lon="8.41889521248123"><ele>96.0</ele><time>2026-03-31T08:46:31Z</time></trkpt><trkpt lat="38.97120745346379" lon="8.4188306682955"><ele>97.25</ele><time>2026-03-31T08:46:32Z</time></trkpt><trkpt lat="38.97112818115568" lon="8.418727454457605"><ele>98.5</ele><time>2026-03-31T08:46:33Z</time></trkpt><trkpt lat="38.971041015113805" lon="8.418636470458038"><ele>99.75</ele><time>2026-03-31T08:46:34Z</time></trkpt><trkpt lat="38.97093242808116" lon="8.418570618337528"><ele>101.0</ele><time>2026-03-31T08:46:35Z</time></trkpt><trkpt lat="38.970801235709686" lon="8.418528176917684"><ele>101.0</ele><time>2026-03-31T08:46:36Z</time></trkpt><trkpt lat="38.970680784896615" lon="8.418489430209986"><ele>101.0</ele><time>2026-03-31T08:46:37Z</time></trkpt><trkpt lat="38.97056392543451" lon="8.41848278443874"><ele>101.0</ele><time>2026-03-31T08:46:38Z</time></trkpt><trkpt lat="38.970448034546706" lon="8.418498225621388"><ele>101.0</ele><time>2026-03-31T08:46:39Z</time></trkpt><trkpt lat="38.97032782173275" lon="8.418517705582586"><ele>101.0</ele><time>2026-03-31T08:46:40Z</time></trkpt><trkpt lat="38.97021135700987" lon="8.418546490232936"><ele>101.0</ele><time>2026-03-31T08:46:41Z</time></trkpt><trkpt lat="38.97008867328377" lon="8.418560070771797"><ele>101.0</ele><time>2026-03-31T08:46:42Z</time></trkpt><trkpt lat="38.969988091817655" lon="8.418553437833612"><ele>101.0</ele><time>2026-03-31T08:46:43Z</time></trkpt><trkpt lat="38.969905019632975" lon="8.418537062427127"><ele>101.0</ele><time>2026-03-31T08:46:44Z</time></trkpt><trkpt lat="38.96983881530137" lon="8.418499183490763"><ele>100.8</ele><time>2026-03-31T08:46:45Z</time></trkpt><trkpt lat="38.96974360796082" lon="8.41842509603248"><ele>100.6</ele><time>2026-03-31T08:46:47Z</time></trkpt><trkpt lat="38.96961275160107" lon="8.418418174897084"><ele>100.4</ele><time>2026-03-31T08:46:49Z</time></trkpt><trkpt lat="38.96953566018772" lon="8.418433758126564"><ele>100.2</ele><time>2026-03-31T08:46:50Z</time></trkpt><trkpt lat="38.969458181689504" lon="8.418446084011627"><ele>100.0</ele><time>2026-03-31T08:46:51Z</time></trkpt><trkpt lat="38.96939178670307" lon="8.418424915558074"><ele>100.00000000000001</ele><time>2026-03-31T08:46:52Z</time></trkpt><trkpt lat="38.96933169432006" lon="8.41837170656964"><ele>100.0</ele><time>2026-03-31T08:46:53Z</time></trkpt><trkpt lat="38.96927387400075" lon="8.418305382737431"><ele>100.0</ele><time>2026-03-31T08:46:54Z</time></trkpt><trkpt lat="38.969232319901955" lon="8.418223186898805"><ele>100.0</ele><time>2026-03-31T08:46:55Z</time></trkpt><trkpt lat="38.969198610349196" lon="8.418135883907098"><ele>100.00000000000001</ele><time>2026-03-31T08:46:56Z</time></trkpt><trkpt lat="38.96915034992426" lon="8.418060038747557"><ele>100.0</ele><time>2026-03-31T08:46:57Z</time></trkpt><trkpt lat="38.96908808761524" lon="8.41800613627626"><ele>99.4</ele><time>2026-03-31T08:46:58Z</time></trkpt><trkpt lat="38.96902048460534" lon="8.417978173773928"><ele>98.8</ele><time>2026-03-31T08:46:59Z</time></trkpt><trkpt lat="38.96894541494" lon="8.417949946116153"><ele>98.19999999999999</ele><time>2026-03-31T08:47:00Z</time></trkpt><trkpt lat="38.968859654667206" lon="8.417923943450292"><ele>97.6</ele><time>2026-03-31T08:47:01Z</time></trkpt><trkpt lat="38.96875973181167" lon="8.417893742265335"><ele>97.0</ele><time>2026-03-31T08:47:02Z</time></trkpt><trkpt lat="38.96864891412988" lon="8.417876313441973"><ele>97.0</ele><time>2026-03-31T08:47:03Z</time></trkpt><trkpt lat="38.96853962210074" lon="8.417871602254365"><ele>97.0</ele><time>2026-03-31T08:47:04Z</time></trkpt><trkpt lat="38.96842253006416" lon="8.417888021610334"><ele>97.0</ele><time>2026-03-31T08:47:05Z</time></trkpt><trkpt lat="38.96829916577065" lon="8.417900550181324"><ele>97.0</ele><time>2026-03-31T08:47:06Z</time></trkpt><trkpt lat="38.968177000282296" lon="8.417895973711577"><ele>97.75</ele><time>2026-03-31T08:47:07Z</time></trkpt><trkpt lat="38.96805874156373" lon="8.417870881298265"><ele>98.5</ele><time>2026-03-31T08:47:08Z</time></trkpt><trkpt lat="38.96794562306073" lon="8.417824026157021"><ele>99.25</ele><time>2026-03-31T08:47:09Z</time></trkpt><trkpt lat="38.967829959489116" lon="8.4177700192915"><ele>100.0</ele><time>2026-03-31T08:47:10Z</time></trkpt><trkpt lat="38.967714009231706" lon="8.417700363090594"><ele>100.0</ele><time>2026-03-31T08:47:11Z</time></trkpt><trkpt lat="38.967613355287476" lon="8.41760372455377"><ele>100.0</ele><time>2026-03-31T08:47:12Z</time></trkpt><trkpt lat="38.967527332391256" lon="8.417474955163874"><ele>100.0</ele><time>2026-03-31T08:47:13Z</time></trkpt><trkpt lat="38.967450204327584" lon="8.417340240094044"><ele>100.0</ele><time>2026-03-31T08:47:14Z</time></trkpt><trkpt lat="38.967365657489786" lon="8.41721803518852"><ele>99.25</ele><time>2026-03-31T08:47:15Z</time></trkpt><trkpt lat="38.96726725241117" lon="8.41711533560317"><ele>98.5</ele><time>2026-03-31T08:47:16Z</time></trkpt><trkpt lat="38.96716531037733" lon="8.41700116875067"><ele>97.75</ele><time>2026-03-31T08:47:17Z</time></trkpt><trkpt lat="38.96708116581412" lon="8.416883544314253"><ele>97.0</ele><time>2026-03-31T08:47:18Z</time></trkpt><trkpt lat="38.9670032279814" lon="8.416743122566436"><ele>97.0</ele><time>2026-03-31T08:47:19Z</time></trkpt><trkpt lat="38.96692772708171" lon="8.416599416707756"><ele>97.0</ele><time>2026-03-31T08:47:20Z</time></trkpt><trkpt lat="38.96684922250535" lon="8.41644653195537"><ele>97.0</ele><time>2026-03-31T08:47:21Z</time></trkpt><trkpt lat="38.96678888224787" lon="8.416295709039398"><ele>97.0</ele><time>2026-03-31T08:47:22Z</time></trkpt><trkpt lat="38.96673549152562" lon="8.416144534219974"><ele>97.75</ele><time>2026-03-31T08:47:23Z</time></trkpt><trkpt lat="38.96667714326115" lon="8.415988058023274"><ele>98.5</ele><time>2026-03-31T08:47:24Z</time></trkpt><trkpt lat="38.96659724446154" lon="8.415848814423136"><ele>99.25</ele><time>2026-03-31T08:47:25Z</time></trkpt><trkpt lat="38.96651966427596" lon="8.41571648472021"><ele>100.0</ele><time>2026-03-31T08:47:26Z</time></trkpt><trkpt lat="38.96645941608251" lon="8.415594201915606"><ele>101.6</ele><time>2026-03-31T08:47:27Z</time></trkpt><trkpt lat="38.96641318843677" lon="8.415463843809516"><ele>103.2</ele><time>2026-03-31T08:47:28Z</time></trkpt><trkpt lat="38.96637459735415" lon="8.415333379253694"><ele>104.80000000000001</ele><time>2026-03-31T08:47:29Z</time></trkpt><trkpt lat="38.9663427475917" lon="8.415216837830597"><ele>106.4</ele><time>2026-03-31T08:47:30Z</time></trkpt><trkpt lat="38.96630697063455" lon="8.415104494091254"><ele>108.0</ele><time>2026-03-31T08:47:31Z</time></trkpt><trkpt lat="38.966273275361765" lon="8.414979243383861"><ele>108.0</ele><time>2026-03-31T08:47:32Z</time></trkpt><trkpt lat="38.96623983720603" lon="8.414837012591954"><ele>108.00000000000001</ele><time>2026-03-31T08:47:33Z</time></trkpt><trkpt lat="38.966211648560964" lon="8.41469963047786"><ele>108.00000000000001</ele><time>2026-03-31T08:47:34Z</time></trkpt><trkpt lat="38.96618283547708" lon="8.414564473907213"><ele>108.0</ele><time>2026-03-31T08:47:35Z</time></trkpt><trkpt lat="38.966154600513896" lon="8.414436202333581"><ele>108.0</ele><time>2026-03-31T08:47:36Z</time></trkpt><trkpt lat="38.96615964181681" lon="8.414189343521533"><ele>109.66666666666667</ele><time>2026-03-31T08:47:38Z</time></trkpt><trkpt lat="38.96618750950227" lon="8.414077167254785"><ele>111.33333333333334</ele><time>2026-03-31T08:47:39Z</time></trkpt><trkpt lat="38.96620959522881" lon="8.414000717136885"><ele>113.0</ele><time>2026-03-31T08:47:40Z</time></trkpt><trkpt lat="38.96621880210627" lon="8.413890308660147"><ele>114.66666666666667</ele><time>2026-03-31T08:47:42Z</time></trkpt><trkpt lat="38.96619703198542" lon="8.413972636532801"><ele>116.33333333333334</ele><time>2026-03-31T08:52:03.001Z</time></trkpt><trkpt lat="38.96618867261806" lon="8.414077307513594"><ele>118.0</ele><time>2026-03-31T08:52:05.001Z</time></trkpt><trkpt lat="38.96619365737567" lon="8.414196955909738"><ele>118.0</ele><time>2026-03-31T08:52:07.001Z</time></trkpt><trkpt lat="38.966180316225156" lon="8.41429246994566"><ele>118.0</ele><time>2026-03-31T08:52:09.001Z</time></trkpt><trkpt lat="38.9661664798533" lon="8.414386934547254"><ele>118.0</ele><time>2026-03-31T08:52:11.001Z</time></trkpt><trkpt lat="38.96616631847509" lon="8.414477564395222"><ele>118.0</ele><time>2026-03-31T08:52:13.001Z</time></trkpt><trkpt lat="38.966183555914505" lon="8.414563032873156"><ele>118.0</ele><time>2026-03-31T08:52:15.001Z</time></trkpt><trkpt lat="38.96620269239127" lon="8.414646063530974"><ele>118.0</ele><time>2026-03-31T08:52:17.001Z</time></trkpt><trkpt lat="38.9662215060456" lon="8.414724660928941"><ele>118.0</ele><time>2026-03-31T08:52:19.001Z</time></trkpt><trkpt lat="38.96624444366184" lon="8.414808583232356"><ele>116.33333333333334</ele><time>2026-03-31T08:52:21.001Z</time></trkpt><trkpt lat="38.966266048758136" lon="8.414899875595717"><ele>114.66666666666667</ele><time>2026-03-31T08:52:23.001Z</time></trkpt><trkpt lat="38.966299525453735" lon="8.41499926792189"><ele>113.0</ele><time>2026-03-31T08:52:25.001Z</time></trkpt><trkpt lat="38.96629953198596" lon="8.415098752481446"><ele>111.33333333333334</ele><time>2026-03-31T08:52:27.001Z</time></trkpt><trkpt lat="38.966336116630146" lon="8.415172710634884"><ele>109.66666666666667</ele><time>2026-03-31T08:52:29.001Z</time></trkpt><trkpt lat="38.966348939046" lon="8.41527510637755"><ele>108.0</ele><time>2026-03-31T08:52:31.001Z</time></trkpt><trkpt lat="38.96637732690759" lon="8.415372902676253"><ele>108.0</ele><time>2026-03-31T08:52:33.001Z</time></trkpt><trkpt lat="38.96642234325857" lon="8.415465316572114"><ele>108.0</ele><time>2026-03-31T08:52:35.001Z</time></trkpt><trkpt lat="38.96645098553513" lon="8.415560313384141"><ele>108.0</ele><time>2026-03-31T08:52:37.001Z</time></trkpt><trkpt lat="38.966478582741765" lon="8.415655237202557"><ele>108.0</ele><time>2026-03-31T08:52:39.001Z</time></trkpt><trkpt lat="38.96652455013411" lon="8.415731513530945"><ele>108.0</ele><time>2026-03-31T08:52:41.001Z</time></trkpt><trkpt lat="38.96659332284506" lon="8.415841145544144"><ele>108.0</ele><time>2026-03-31T08:52:44.001Z</time></trkpt><trkpt lat="38.96663492136089" lon="8.415913842464875"><ele>106.85714285714286</ele><time>2026-03-31T08:52:46.001Z</time></trkpt><trkpt lat="38.96668065029339" lon="8.415999672932896"><ele>105.71428571428571</ele><time>2026-03-31T08:52:48.001Z</time></trkpt><trkpt lat="38.96671277447135" lon="8.416080053273939"><ele>104.57142857142858</ele><time>2026-03-31T08:52:49.001Z</time></trkpt><trkpt lat="38.966745334992005" lon="8.416161399974971"><ele>103.42857142857143</ele><time>2026-03-31T08:52:50.001Z</time></trkpt><trkpt lat="38.96677512866174" lon="8.41624595917463"><ele>102.28571428571429</ele><time>2026-03-31T08:52:51.001Z</time></trkpt><trkpt lat="38.96680474880161" lon="8.416332623818302"><ele>101.14285714285715</ele><time>2026-03-31T08:52:52.001Z</time></trkpt><trkpt lat="38.966837692093094" lon="8.41641923432907"><ele>100.0</ele><time>2026-03-31T08:52:53.001Z</time></trkpt><trkpt lat="38.96687855455959" lon="8.416497973054355"><ele>99.50000000000001</ele><time>2026-03-31T08:52:54.001Z</time></trkpt><trkpt lat="38.966918433857074" lon="8.416575025956691"><ele>99.0</ele><time>2026-03-31T08:52:55.001Z</time></trkpt><trkpt lat="38.96696285043163" lon="8.416649125767995"><ele>98.5</ele><time>2026-03-31T08:52:56.001Z</time></trkpt><trkpt lat="38.96700904185889" lon="8.416726659576698"><ele>98.0</ele><time>2026-03-31T08:52:57.001Z</time></trkpt><trkpt lat="38.96705544685768" lon="8.416807293444062"><ele>97.50000000000001</ele><time>2026-03-31T08:52:58.001Z</time></trkpt><trkpt lat="38.96710030992892" lon="8.416882855123713"><ele>97.0</ele><time>2026-03-31T08:52:59.001Z</time></trkpt><trkpt lat="38.96713345366232" lon="8.416977164709191"><ele>97.00000000000001</ele><time>2026-03-31T08:53:00.001Z</time></trkpt><trkpt lat="38.96718975367721" lon="8.41704720758183"><ele>97.0</ele><time>2026-03-31T08:53:01.001Z</time></trkpt><trkpt lat="38.967247547180165" lon="8.417129581813665"><ele>97.0</ele><time>2026-03-31T08:53:02.001Z</time></trkpt><trkpt lat="38.967317567309706" lon="8.417193932899766"><ele>97.0</ele><time>2026-03-31T08:53:03.001Z</time></trkpt><trkpt lat="38.96738902329296" lon="8.417251597977213"><ele>97.00000000000001</ele><time>2026-03-31T08:53:04.001Z</time></trkpt><trkpt lat="38.967454633963335" lon="8.41731079880302"><ele>97.0</ele><time>2026-03-31T08:53:05.001Z</time></trkpt><trkpt lat="38.96748961999555" lon="8.417394512828391"><ele>97.50000000000001</ele><time>2026-03-31T08:53:06.001Z</time></trkpt><trkpt lat="38.96755460611942" lon="8.417460617074031"><ele>98.0</ele><time>2026-03-31T08:53:07.001Z</time></trkpt><trkpt lat="38.967600118491575" lon="8.417542365704305"><ele>98.5</ele><time>2026-03-31T08:53:08.001Z</time></trkpt><trkpt lat="38.96765487326985" lon="8.41762078317528"><ele>99.0</ele><time>2026-03-31T08:53:09.001Z</time></trkpt><trkpt lat="38.96770782078043" lon="8.417679637173208"><ele>99.50000000000001</ele><time>2026-03-31T08:53:10.001Z</time></trkpt><trkpt lat="38.96777484677773" lon="8.41772306643644"><ele>100.0</ele><time>2026-03-31T08:53:11.001Z</time></trkpt><trkpt lat="38.96784995804242" lon="8.417772553715054"><ele>100.00000000000001</ele><time>2026-03-31T08:53:12.001Z</time></trkpt><trkpt lat="38.967930419442006" lon="8.417813057276783"><ele>100.0</ele><time>2026-03-31T08:53:13.001Z</time></trkpt><trkpt lat="38.96801052538081" lon="8.417846923073034"><ele>100.0</ele><time>2026-03-31T08:53:14.001Z</time></trkpt><trkpt lat="38.96809138890514" lon="8.41787033882455"><ele>100.0</ele><time>2026-03-31T08:53:15.001Z</time></trkpt><trkpt lat="38.96817021319258" lon="8.417886787568014"><ele>100.00000000000001</ele><time>2026-03-31T08:53:16.001Z</time></trkpt><trkpt lat="38.96825217672353" lon="8.417905441932612"><ele>100.0</ele><time>2026-03-31T08:53:17.001Z</time></trkpt><trkpt lat="38.9683288878648" lon="8.417909882264677"><ele>99.50000000000001</ele><time>2026-03-31T08:53:18.001Z</time></trkpt><trkpt lat="38.96839831826611" lon="8.417877091704474"><ele>99.0</ele><time>2026-03-31T08:53:19.001Z</time></trkpt><trkpt lat="38.968477032185596" lon="8.417869776743325"><ele>98.5</ele><time>2026-03-31T08:53:20.001Z</time></trkpt><trkpt lat="38.968554282473605" lon="8.417861878231493"><ele>98.0</ele><time>2026-03-31T08:53:21.001Z</time></trkpt><trkpt lat="38.968635384088124" lon="8.417863760226169"><ele>97.50000000000001</ele><time>2026-03-31T08:53:22.001Z</time></trkpt><trkpt lat="38.96871309663953" lon="8.417865397298836"><ele>97.0</ele><time>2026-03-31T08:53:23.001Z</time></trkpt><trkpt lat="38.96878222888647" lon="8.417878718511542"><ele>97.00000000000001</ele><time>2026-03-31T08:53:24.001Z</time></trkpt><trkpt lat="38.968851714215695" lon="8.417905791120049"><ele>97.0</ele><time>2026-03-31T08:53:25.001Z</time></trkpt><trkpt lat="38.968918764404634" lon="8.417934778442886"><ele>97.0</ele><time>2026-03-31T08:53:26.001Z</time></trkpt><trkpt lat="38.96899119155185" lon="8.417961467966723"><ele>97.0</ele><time>2026-03-31T08:53:27.001Z</time></trkpt><trkpt lat="38.9690630603475" lon="8.41799825517258"><ele>97.00000000000001</ele><time>2026-03-31T08:53:28.001Z</time></trkpt><trkpt lat="38.96912914676317" lon="8.418043788767736"><ele>97.0</ele><time>2026-03-31T08:53:29.001Z</time></trkpt><trkpt lat="38.969177855167295" lon="8.418128489126953"><ele>97.50000000000001</ele><time>2026-03-31T08:53:30.001Z</time></trkpt><trkpt lat="38.96922037482392" lon="8.41820791303657"><ele>98.0</ele><time>2026-03-31T08:53:31.001Z</time></trkpt><trkpt lat="38.96927471472381" lon="8.41828868812796"><ele>98.5</ele><time>2026-03-31T08:53:32.001Z</time></trkpt><trkpt lat="38.96933529238551" lon="8.418346200640006"><ele>99.0</ele><time>2026-03-31T08:53:33.001Z</time></trkpt><trkpt lat="38.969373718452104" lon="8.41841736383416"><ele>99.50000000000001</ele><time>2026-03-31T08:53:34.001Z</time></trkpt><trkpt lat="38.96950454970025" lon="8.418451351658103"><ele>100.0</ele><time>2026-03-31T08:53:36.001Z</time></trkpt><trkpt lat="38.96957460350229" lon="8.418451100099128"><ele>100.00000000000001</ele><time>2026-03-31T08:53:37Z</time></trkpt><trkpt lat="38.96964805047492" lon="8.418438342766843"><ele>100.0</ele><time>2026-03-31T08:53:38Z</time></trkpt><trkpt lat="38.9697213075949" lon="8.41842247107842"><ele>100.0</ele><time>2026-03-31T08:53:39Z</time></trkpt><trkpt lat="38.96979210477899" lon="8.418424779096554"><ele>100.0</ele><time>2026-03-31T08:53:40Z</time></trkpt><trkpt lat="38.96983969127915" lon="8.418497927524019"><ele>100.0</ele><time>2026-03-31T08:53:41Z</time></trkpt><trkpt lat="38.96990532721326" lon="8.41852183180906"><ele>100.00000000000001</ele><time>2026-03-31T08:53:42Z</time></trkpt><trkpt lat="38.9699601322534" lon="8.41856260242854"><ele>100.0</ele><time>2026-03-31T08:53:43Z</time></trkpt><trkpt lat="38.970094508132874" lon="8.418566624570571"><ele>100.16666666666667</ele><time>2026-03-31T08:53:45Z</time></trkpt><trkpt lat="38.97017681172665" lon="8.418548815801339"><ele>100.33333333333334</ele><time>2026-03-31T08:53:46Z</time></trkpt><trkpt lat="38.970254889214026" lon="8.418526723029972"><ele>100.5</ele><time>2026-03-31T08:53:47Z</time></trkpt><trkpt lat="38.970334674233754" lon="8.418509933186929"><ele>100.66666666666666</ele><time>2026-03-31T08:53:48Z</time></trkpt><trkpt lat="38.9704232354072" lon="8.418501713120339"><ele>100.83333333333333</ele><time>2026-03-31T08:53:49Z</time></trkpt><trkpt lat="38.970518649586396" lon="8.418491991731168"><ele>101.0</ele><time>2026-03-31T08:53:50Z</time></trkpt><trkpt lat="38.970622883272235" lon="8.418480963135792"><ele>101.0</ele><time>2026-03-31T08:53:51Z</time></trkpt><trkpt lat="38.970728201989814" lon="8.41851887950025"><ele>101.0</ele><time>2026-03-31T08:53:52Z</time></trkpt><trkpt lat="38.97084398855581" lon="8.418564408130111"><ele>101.0</ele><time>2026-03-31T08:53:53Z</time></trkpt><trkpt lat="38.97096782965374" lon="8.418620796905365"><ele>101.0</ele><time>2026-03-31T08:53:54Z</time></trkpt><trkpt lat="38.97109698091089" lon="8.418675959043624"><ele>99.75</ele><time>2026-03-31T08:53:55Z</time></trkpt><trkpt lat="38.971197135676704" lon="8.418799133576007"><ele>98.5</ele><time>2026-03-31T08:53:56Z</time></trkpt><trkpt lat="38.97129162087793" lon="8.418917203842494"><ele>97.25</ele><time>2026-03-31T08:53:57Z</time></trkpt><trkpt lat="38.971427221015084" lon="8.41895867527092"><ele>96.0</ele><time>2026-03-31T08:53:58Z</time></trkpt><trkpt lat="38.97156257856981" lon="8.419008445509531"><ele>101.0</ele><time>2026-03-31T08:53:59Z</time></trkpt><trkpt lat="38.97171329957913" lon="8.419042313462494"><ele>106.0</ele><time>2026-03-31T08:54:00Z</time></trkpt><trkpt lat="38.97186967138638" lon="8.419116648302952"><ele>111.0</ele><time>2026-03-31T08:54:01Z</time></trkpt><trkpt lat="38.97201863719376" lon="8.419205701067215"><ele>111.0</ele><time>2026-03-31T08:54:02Z</time></trkpt><trkpt lat="38.97219865032864" lon="8.419285376591565"><ele>111.0</ele><time>2026-03-31T08:54:03Z</time></trkpt><trkpt lat="38.972405882203816" lon="8.419360586786578"><ele>111.0</ele><time>2026-03-31T08:54:04Z</time></trkpt><trkpt lat="38.97255121402419" lon="8.419479882367025"><ele>109.66666666666666</ele><time>2026-03-31T08:54:05Z</time></trkpt><trkpt lat="38.97266758151499" lon="8.41959257881283"><ele>108.33333333333333</ele><time>2026-03-31T08:54:06Z</time></trkpt><trkpt lat="38.97282282055864" lon="8.41970051906519"><ele>107.0</ele><time>2026-03-31T08:54:07Z</time></trkpt><trkpt lat="38.97299706176962" lon="8.419893663656728"><ele>107.0</ele><time>2026-03-31T08:54:08Z</time></trkpt><trkpt lat="38.97313889196503" lon="8.42004345685805"><ele>107.0</ele><time>2026-03-31T08:54:09Z</time></trkpt><trkpt lat="38.97323971154957" lon="8.42014043718018"><ele>107.0</ele><time>2026-03-31T08:54:10Z</time></trkpt><trkpt lat="38.973347533668694" lon="8.420216776447994"><ele>107.0</ele><time>2026-03-31T08:54:11Z</time></trkpt><trkpt lat="38.97349632973463" lon="8.420302754880305"><ele>107.75</ele><time>2026-03-31T08:54:12Z</time></trkpt><trkpt lat="38.973636762593976" lon="8.420384218068762"><ele>108.5</ele><time>2026-03-31T08:54:13Z</time></trkpt><trkpt lat="38.973748822143506" lon="8.420446523061896"><ele>109.25</ele><time>2026-03-31T08:54:14Z</time></trkpt><trkpt lat="38.973842416775334" lon="8.420496961856252"><ele>110.0</ele><time>2026-03-31T08:54:15Z</time></trkpt><trkpt lat="38.97391395744211" lon="8.420524673271235"><ele>109.99999999999999</ele><time>2026-03-31T08:54:16Z</time></trkpt><trkpt lat="38.97400862501874" lon="8.420536937922764"><ele>110.0</ele><time>2026-03-31T08:54:18Z</time></trkpt><trkpt lat="38.97397534916907" lon="8.420638519055696"><ele>110.0</ele><time>2026-03-31T08:54:21Z</time></trkpt><trkpt lat="38.97389548650734" lon="8.420668134090857"><ele>110.0</ele><time>2026-03-31T08:54:25Z</time></trkpt><trkpt lat="38.973825491398145" lon="8.420694019717596"><ele>109.99999999999999</ele><time>2026-03-31T08:54:28Z</time></trkpt><trkpt lat="38.97375546596062" lon="8.420727557576773"><ele>110.0</ele><time>2026-03-31T08:54:31Z</time></trkpt><trkpt lat="38.97368876703209" lon="8.420763325457857"><ele>109.99999999999999</ele><time>2026-03-31T08:54:34Z</time></trkpt><trkpt lat="38.97363317065857" lon="8.420808069392354"><ele>110.0</ele><time>2026-03-31T08:54:36Z</time></trkpt><trkpt lat="38.97357008461266" lon="8.42084909919359"><ele>110.0</ele><time>2026-03-31T08:54:38Z</time></trkpt><trkpt lat="38.9735229542752" lon="8.420909978933263"><ele>110.0</ele><time>2026-03-31T08:54:40Z</time></trkpt><trkpt lat="38.97347564179657" lon="8.420975164031637"><ele>110.0</ele><time>2026-03-31T08:54:42Z</time></trkpt><trkpt lat="38.973406256886086" lon="8.421026226570696"><ele>109.99999999999999</ele><time>2026-03-31T08:54:44Z</time></trkpt><trkpt lat="38.97335810055679" lon="8.42108618227941"><ele>110.0</ele><time>2026-03-31T08:54:46Z</time></trkpt><trkpt lat="38.9732934770466" lon="8.421137451114886"><ele>108.4</ele><time>2026-03-31T08:54:50Z</time></trkpt><trkpt lat="38.973230372332864" lon="8.421164490599448"><ele>106.8</ele><time>2026-03-31T08:54:53Z</time></trkpt><trkpt lat="38.97316009078768" lon="8.421215023331735"><ele>105.19999999999999</ele><time>2026-03-31T08:54:56Z</time></trkpt><trkpt lat="38.97310105283487" lon="8.421244980249021"><ele>103.6</ele><time>2026-03-31T08:54:59Z</time></trkpt><trkpt lat="38.97290923277764" lon="8.421287016225174"><ele>102.0</ele><time>2026-03-31T08:55:27Z</time></trkpt><trkpt lat="38.972834217237164" lon="8.421313796481007"><ele>101.33333333333333</ele><time>2026-03-31T08:55:28Z</time></trkpt><trkpt lat="38.97276357294708" lon="8.421349338399539"><ele>100.66666666666666</ele><time>2026-03-31T08:55:29Z</time></trkpt><trkpt lat="38.97269496747941" lon="8.421379118053636"><ele>100.0</ele><time>2026-03-31T08:55:30Z</time></trkpt><trkpt lat="38.97262697042411" lon="8.42140360807717"><ele>99.33333333333333</ele><time>2026-03-31T08:55:31Z</time></trkpt><trkpt lat="38.97255809782194" lon="8.42142398198872"><ele>98.66666666666666</ele><time>2026-03-31T08:55:32Z</time></trkpt><trkpt lat="38.97244081050147" lon="8.421445291503423"><ele>98.0</ele><time>2026-03-31T08:55:34Z</time></trkpt><trkpt lat="38.97234840562742" lon="8.421444429344605"><ele>97.99999999999999</ele><time>2026-03-31T08:55:36Z</time></trkpt><trkpt lat="38.97226841103701" lon="8.421473289626123"><ele>98.0</ele><time>2026-03-31T08:55:38Z</time></trkpt><trkpt lat="38.97216582715327" lon="8.421511231602686"><ele>98.0</ele><time>2026-03-31T08:55:40Z</time></trkpt><trkpt lat="38.972064925836236" lon="8.421523594843805"><ele>98.0</ele><time>2026-03-31T08:55:42Z</time></trkpt><trkpt lat="38.97197842456544" lon="8.421542540852323"><ele>97.99999999999999</ele><time>2026-03-31T08:55:43.999Z</time></trkpt><trkpt lat="38.971914706139735" lon="8.421572827465374"><ele>98.0</ele><time>2026-03-31T08:55:46.999Z</time></trkpt><trkpt lat="38.97179912320472" lon="8.421630857815373"><ele>97.99999999999999</ele><time>2026-03-31T08:59:13Z</time></trkpt><trkpt lat="38.9717269599492" lon="8.421668613484321"><ele>98.0</ele><time>2026-03-31T08:59:14Z</time></trkpt><trkpt lat="38.97165408291821" lon="8.421707531233551"><ele>98.0</ele><time>2026-03-31T08:59:15Z</time></trkpt><trkpt lat="38.97157680310158" lon="8.421748131562737"><ele>98.0</ele><time>2026-03-31T08:59:16Z</time></trkpt><trkpt lat="38.971506945887974" lon="8.421799439223278"><ele>97.99999999999999</ele><time>2026-03-31T08:59:17Z</time></trkpt><trkpt lat="38.971435721447584" lon="8.421844817705104"><ele>98.0</ele><time>2026-03-31T08:59:18Z</time></trkpt><trkpt lat="38.97137118458701" lon="8.421873750742472"><ele>95.99999999999999</ele><time>2026-03-31T08:59:19Z</time></trkpt><trkpt lat="38.97130144516601" lon="8.421898131444125"><ele>94.0</ele><time>2026-03-31T08:59:20Z</time></trkpt><trkpt lat="38.97123999587211" lon="8.421920584785115"><ele>92.0</ele><time>2026-03-31T08:59:21Z</time></trkpt><trkpt lat="38.971125784461094" lon="8.422009648233717"><ele>90.0</ele><time>2026-03-31T08:59:23Z</time></trkpt><trkpt lat="38.971062951196195" lon="8.422070033584749"><ele>88.0</ele><time>2026-03-31T08:59:24Z</time></trkpt><trkpt lat="38.97100516637857" lon="8.422102975177026"><ele>86.0</ele><time>2026-03-31T08:59:26Z</time></trkpt><trkpt lat="38.97093378315109" lon="8.42210728164588"><ele>85.33333333333334</ele><time>2026-03-31T08:59:29.001Z</time></trkpt><trkpt lat="38.970850130733275" lon="8.42212707308349"><ele>84.66666666666667</ele><time>2026-03-31T08:59:32.001Z</time></trkpt><trkpt lat="38.97077071546917" lon="8.422158069234586"><ele>84.0</ele><time>2026-03-31T08:59:35.001Z</time></trkpt><trkpt lat="38.97068438602055" lon="8.422185084779207"><ele>83.33333333333333</ele><time>2026-03-31T08:59:38.001Z</time></trkpt><trkpt lat="38.9706212615888" lon="8.42221604545832"><ele>82.66666666666666</ele><time>2026-03-31T08:59:40.001Z</time></trkpt><trkpt lat="38.97055905237262" lon="8.422258027775852"><ele>82.0</ele><time>2026-03-31T08:59:42.001Z</time></trkpt><trkpt lat="38.97049216183565" lon="8.422297342545683"><ele>82.0</ele><time>2026-03-31T08:59:44.001Z</time></trkpt><trkpt lat="38.97041156208177" lon="8.422341694374095"><ele>82.0</ele><time>2026-03-31T08:59:47.001Z</time></trkpt><trkpt lat="38.97034868300052" lon="8.422263906056939"><ele>82.0</ele><time>2026-03-31T08:59:50.001Z</time></trkpt><trkpt lat="38.97029485438795" lon="8.422173132365248"><ele>82.0</ele><time>2026-03-31T09:03:02Z</time></trkpt><trkpt lat="38.97025749074724" lon="8.422101793564963"><ele>82.0</ele><time>2026-03-31T09:03:04Z</time></trkpt><trkpt lat="38.97017181029408" lon="8.422087456091898"><ele>82.0</ele><time>2026-03-31T09:03:07Z</time></trkpt><trkpt lat="38.97011931215084" lon="8.422147230167914"><ele>82.0</ele><time>2026-03-31T09:03:09Z</time></trkpt><trkpt lat="38.97007491952507" lon="8.422246212495107"><ele>82.0</ele><time>2026-03-31T09:03:11Z</time></trkpt><trkpt lat="38.97001177873745" lon="8.422364316050352"><ele>82.0</ele><time>2026-03-31T09:03:13Z</time></trkpt><trkpt lat="38.96994364643751" lon="8.42248303877553"><ele>82.0</ele><time>2026-03-31T09:03:15Z</time></trkpt><trkpt lat="38.96990217548035" lon="8.422555781556389"><ele>82.0</ele><time>2026-03-31T09:03:16Z</time></trkpt><trkpt lat="38.96986596237351" lon="8.422638385936274"><ele>80.0</ele><time>2026-03-31T09:03:17Z</time></trkpt><trkpt lat="38.96982795051554" lon="8.422706285279737"><ele>78.0</ele><time>2026-03-31T09:03:18Z</time></trkpt><trkpt lat="38.969739054507365" lon="8.422790522601638"><ele>76.0</ele><time>2026-03-31T09:03:20Z</time></trkpt><trkpt lat="38.96962811538741" lon="8.422828345280502"><ele>74.0</ele><time>2026-03-31T09:03:22Z</time></trkpt><trkpt lat="38.96956323877509" lon="8.422836913065403"><ele>72.0</ele><time>2026-03-31T09:03:23Z</time></trkpt><trkpt lat="38.96949201498721" lon="8.422852182028603"><ele>70.0</ele><time>2026-03-31T09:03:24Z</time></trkpt><trkpt lat="38.969426982678485" lon="8.422859209296535"><ele>70.0</ele><time>2026-03-31T09:03:25Z</time></trkpt><trkpt lat="38.96934858186865" lon="8.422874426883698"><ele>70.0</ele><time>2026-03-31T09:03:26.001Z</time></trkpt><trkpt lat="38.969267713757425" lon="8.422889119880454"><ele>70.0</ele><time>2026-03-31T09:03:27.001Z</time></trkpt><trkpt lat="38.96919420908913" lon="8.422900661415861"><ele>70.0</ele><time>2026-03-31T09:03:28.001Z</time></trkpt><trkpt lat="38.969128085877664" lon="8.422912897694431"><ele>70.0</ele><time>2026-03-31T09:03:29.001Z</time></trkpt><trkpt lat="38.969063729036236" lon="8.422933733870957"><ele>70.0</ele><time>2026-03-31T09:03:30.001Z</time></trkpt><trkpt lat="38.968999002453096" lon="8.42296172020687"><ele>70.0</ele><time>2026-03-31T09:03:31.001Z</time></trkpt><trkpt lat="38.96894028113469" lon="8.423000971563766"><ele>70.66666666666666</ele><time>2026-03-31T09:03:32.001Z</time></trkpt><trkpt lat="38.96884561579302" lon="8.42309706798069"><ele>71.33333333333333</ele><time>2026-03-31T09:03:34.001Z</time></trkpt><trkpt lat="38.9688030991056" lon="8.42316582037542"><ele>72.0</ele><time>2026-03-31T09:03:35.001Z</time></trkpt><trkpt lat="38.96875100851491" lon="8.423229784254396"><ele>72.66666666666667</ele><time>2026-03-31T09:03:36.001Z</time></trkpt><trkpt lat="38.96869320883184" lon="8.423279057842889"><ele>73.33333333333334</ele><time>2026-03-31T09:03:37.001Z</time></trkpt><trkpt lat="38.96864833751769" lon="8.423338807794671"><ele>74.0</ele><time>2026-03-31T09:03:38.001Z</time></trkpt><trkpt lat="38.968622373977105" lon="8.423415012615399"><ele>74.0</ele><time>2026-03-31T09:03:39.001Z</time></trkpt><trkpt lat="38.96859062578494" lon="8.42357481719158"><ele>74.0</ele><time>2026-03-31T09:03:41.001Z</time></trkpt><trkpt lat="38.96856175750617" lon="8.42365165155696"><ele>74.0</ele><time>2026-03-31T09:03:42.001Z</time></trkpt><trkpt lat="38.968518114839426" lon="8.423712534132873"><ele>74.0</ele><time>2026-03-31T09:03:43.001Z</time></trkpt><trkpt lat="38.9684511577972" lon="8.423755874748723"><ele>74.0</ele><time>2026-03-31T09:03:44.001Z</time></trkpt><trkpt lat="38.96838702432866" lon="8.42378740711603"><ele>74.0</ele><time>2026-03-31T09:03:45.001Z</time></trkpt><trkpt lat="38.96829817188063" lon="8.423911712448247"><ele>74.16666666666667</ele><time>2026-03-31T09:03:47.001Z</time></trkpt><trkpt lat="38.96826429508116" lon="8.42398374033477"><ele>74.33333333333334</ele><time>2026-03-31T09:03:48.001Z</time></trkpt><trkpt lat="38.968229481860824" lon="8.42406339618047"><ele>74.5</ele><time>2026-03-31T09:03:49.001Z</time></trkpt><trkpt lat="38.96820195456909" lon="8.424139126281343"><ele>74.66666666666667</ele><time>2026-03-31T09:03:50.001Z</time></trkpt><trkpt lat="38.96817695835266" lon="8.424218793767398"><ele>74.83333333333333</ele><time>2026-03-31T09:03:51.001Z</time></trkpt><trkpt lat="38.96811966571249" lon="8.424366063291876"><ele>75.0</ele><time>2026-03-31T09:03:53.001Z</time></trkpt><trkpt lat="38.968090444977165" lon="8.424448672482258"><ele>74.99999999999999</ele><time>2026-03-31T09:03:54.001Z</time></trkpt><trkpt lat="38.96806444558518" lon="8.424530750992009"><ele>75.0</ele><time>2026-03-31T09:03:55.001Z</time></trkpt><trkpt lat="38.968033773395675" lon="8.424613210618322"><ele>75.0</ele><time>2026-03-31T09:03:56.001Z</time></trkpt><trkpt lat="38.967998361930725" lon="8.4246899311379"><ele>75.0</ele><time>2026-03-31T09:03:57.001Z</time></trkpt><trkpt lat="38.967961111205625" lon="8.424758629415642"><ele>75.0</ele><time>2026-03-31T09:03:58.001Z</time></trkpt><trkpt lat="38.967931616585524" lon="8.424833900956358"><ele>74.99999999999999</ele><time>2026-03-31T09:03:59.001Z</time></trkpt><trkpt lat="38.96790929173743" lon="8.42492162800831"><ele>75.0</ele><time>2026-03-31T09:04:00.001Z</time></trkpt><trkpt lat="38.96788220855022" lon="8.424996977919891"><ele>77.2</ele><time>2026-03-31T09:04:01.001Z</time></trkpt><trkpt lat="38.9678101259951" lon="8.425086464546878"><ele>79.4</ele><time>2026-03-31T09:04:03.001Z</time></trkpt><trkpt lat="38.96774129827622" lon="8.42514613264204"><ele>81.6</ele><time>2026-03-31T09:04:05.001Z</time></trkpt><trkpt lat="38.967677851895225" lon="8.42523531240058"><ele>83.8</ele><time>2026-03-31T09:04:07Z</time></trkpt><trkpt lat="38.96760287844166" lon="8.425326454933813"><ele>86.0</ele><time>2026-03-31T09:04:09Z</time></trkpt><trkpt lat="38.96756981796444" lon="8.425424025271708"><ele>83.83333333333334</ele><time>2026-03-31T09:04:11Z</time></trkpt><trkpt lat="38.96751735130716" lon="8.425480350956558"><ele>81.66666666666667</ele><time>2026-03-31T09:04:13Z</time></trkpt><trkpt lat="38.967450457489235" lon="8.425485384554413"><ele>79.5</ele><time>2026-03-31T09:04:15Z</time></trkpt><trkpt lat="38.96736543450829" lon="8.425513249479964"><ele>77.33333333333333</ele><time>2026-03-31T09:04:17Z</time></trkpt><trkpt lat="38.96726018928595" lon="8.425551315565091"><ele>75.16666666666666</ele><time>2026-03-31T09:04:19Z</time></trkpt><trkpt lat="38.96715777878493" lon="8.425609220599046"><ele>73.0</ele><time>2026-03-31T09:04:21Z</time></trkpt><trkpt lat="38.96705716486751" lon="8.425675055454159"><ele>73.0</ele><time>2026-03-31T09:04:23Z</time></trkpt><trkpt lat="38.966950852775255" lon="8.425747548236563"><ele>73.0</ele><time>2026-03-31T09:04:25Z</time></trkpt><trkpt lat="38.9668416755363" lon="8.425839638598802"><ele>73.0</ele><time>2026-03-31T09:04:27Z</time></trkpt><trkpt lat="38.966789886128446" lon="8.425911550415378"><ele>73.0</ele><time>2026-03-31T09:04:28Z</time></trkpt><trkpt lat="38.96673533525093" lon="8.425960247347787"><ele>73.0</ele><time>2026-03-31T09:04:29Z</time></trkpt><trkpt lat="38.966696217389796" lon="8.426032342222738"><ele>71.85714285714286</ele><time>2026-03-31T09:04:30Z</time></trkpt><trkpt lat="38.966642391825815" lon="8.426086850725602"><ele>70.71428571428572</ele><time>2026-03-31T09:04:31Z</time></trkpt><trkpt lat="38.96658825281846" lon="8.426145437877894"><ele>69.57142857142858</ele><time>2026-03-31T09:04:32Z</time></trkpt><trkpt lat="38.966529267817705" lon="8.426200433766887"><ele>68.42857142857143</ele><time>2026-03-31T09:04:33Z</time></trkpt><trkpt lat="38.966472068624896" lon="8.42626922870623"><ele>67.28571428571429</ele><time>2026-03-31T09:04:34Z</time></trkpt><trkpt lat="38.96642536412034" lon="8.4263322184061"><ele>66.14285714285715</ele><time>2026-03-31T09:04:35Z</time></trkpt><trkpt lat="38.96637828263415" lon="8.4263882802362"><ele>65.0</ele><time>2026-03-31T09:04:36Z</time></trkpt><trkpt lat="38.966291936420994" lon="8.426489448253221"><ele>64.4</ele><time>2026-03-31T09:04:38Z</time></trkpt><trkpt lat="38.96618399616571" lon="8.426578156536918"><ele>63.8</ele><time>2026-03-31T09:04:40Z</time></trkpt><trkpt lat="38.96612073593679" lon="8.426659798563954"><ele>63.2</ele><time>2026-03-31T09:04:41Z</time></trkpt><trkpt lat="38.96605961530913" lon="8.426742345112917"><ele>62.6</ele><time>2026-03-31T09:04:42Z</time></trkpt><trkpt lat="38.966012990335095" lon="8.426833577198908"><ele>62.0</ele><time>2026-03-31T09:04:43Z</time></trkpt><trkpt lat="38.96597211348337" lon="8.426918188648918"><ele>62.0</ele><time>2026-03-31T09:04:44Z</time></trkpt><trkpt lat="38.965937733769124" lon="8.426990013211116"><ele>62.0</ele><time>2026-03-31T09:04:45Z</time></trkpt><trkpt lat="38.96586515542797" lon="8.427105469749652"><ele>62.0</ele><time>2026-03-31T09:04:47Z</time></trkpt><trkpt lat="38.96582603423716" lon="8.427190917291599"><ele>62.0</ele><time>2026-03-31T09:04:50Z</time></trkpt><trkpt lat="38.96571490567963" lon="8.427115379684993"><ele>62.0</ele><time>2026-03-31T09:04:58Z</time></trkpt><trkpt lat="38.96561543875061" lon="8.427062764666527"><ele>61.16666666666667</ele><time>2026-03-31T09:12:46Z</time></trkpt><trkpt lat="38.96555044460192" lon="8.426971427673742"><ele>60.333333333333336</ele><time>2026-03-31T09:12:48Z</time></trkpt><trkpt lat="38.96545307309434" lon="8.426863712862767"><ele>59.5</ele><time>2026-03-31T09:12:50Z</time></trkpt><trkpt lat="38.96540462196716" lon="8.426799543716893"><ele>58.66666666666667</ele><time>2026-03-31T09:12:51Z</time></trkpt><trkpt lat="38.96534657714635" lon="8.426737764590495"><ele>57.833333333333336</ele><time>2026-03-31T09:12:52Z</time></trkpt><trkpt lat="38.96528852623712" lon="8.426675266860766"><ele>57.0</ele><time>2026-03-31T09:12:53Z</time></trkpt><trkpt lat="38.96522405301979" lon="8.426617133657334"><ele>57.0</ele><time>2026-03-31T09:12:54Z</time></trkpt><trkpt lat="38.9651579599339" lon="8.42655689035375"><ele>57.0</ele><time>2026-03-31T09:12:55Z</time></trkpt><trkpt lat="38.965099458246314" lon="8.426492508427833"><ele>57.0</ele><time>2026-03-31T09:12:56Z</time></trkpt><trkpt lat="38.96505184658036" lon="8.426432785060523"><ele>57.0</ele><time>2026-03-31T09:12:57Z</time></trkpt><trkpt lat="38.964965184851366" lon="8.42634031405021"><ele>57.0</ele><time>2026-03-31T09:12:59Z</time></trkpt><trkpt lat="38.964887184106225" lon="8.42626572592125"><ele>57.0</ele><time>2026-03-31T09:13:01Z</time></trkpt><trkpt lat="38.964827756918" lon="8.426173765432878"><ele>56.833333333333336</ele><time>2026-03-31T09:13:03Z</time></trkpt><trkpt lat="38.96476525628153" lon="8.426107296423078"><ele>56.66666666666667</ele><time>2026-03-31T09:13:05Z</time></trkpt><trkpt lat="38.9647241352828" lon="8.426211061808848"><ele>56.5</ele><time>2026-03-31T09:13:07Z</time></trkpt><trkpt lat="38.96468830442993" lon="8.426284518085891"><ele>56.333333333333336</ele><time>2026-03-31T09:13:09Z</time></trkpt><trkpt lat="38.96461630699075" lon="8.426323167271889"><ele>56.16666666666667</ele><time>2026-03-31T09:13:12Z</time></trkpt><trkpt lat="38.96455992928431" lon="8.426226689927255"><ele>56.0</ele><time>2026-03-31T09:13:13Z</time></trkpt><trkpt lat="38.96448200407667" lon="8.42614315499706"><ele>56.0</ele><time>2026-03-31T09:13:15Z</time></trkpt><trkpt lat="38.96437671395278" lon="8.426059390474247"><ele>55.99999999999999</ele><time>2026-03-31T09:13:17Z</time></trkpt><trkpt lat="38.964283403274145" lon="8.425966898197416"><ele>55.99999999999999</ele><time>2026-03-31T09:13:19Z</time></trkpt><trkpt lat="38.96418684642244" lon="8.425869256495737"><ele>56.0</ele><time>2026-03-31T09:13:21Z</time></trkpt><trkpt lat="38.96413322503816" lon="8.42581541160603"><ele>56.0</ele><time>2026-03-31T09:13:22Z</time></trkpt><trkpt lat="38.96408195378791" lon="8.425750067480067"><ele>54.50000000000001</ele><time>2026-03-31T09:13:23Z</time></trkpt><trkpt lat="38.96402973498559" lon="8.425677221652949"><ele>53.0</ele><time>2026-03-31T09:13:24Z</time></trkpt><trkpt lat="38.96397531243252" lon="8.425596649736756"><ele>51.5</ele><time>2026-03-31T09:13:25Z</time></trkpt><trkpt lat="38.96391468885768" lon="8.425514723255667"><ele>50.0</ele><time>2026-03-31T09:13:26Z</time></trkpt><trkpt lat="38.963850779258436" lon="8.425436074177892"><ele>48.5</ele><time>2026-03-31T09:13:27Z</time></trkpt><trkpt lat="38.96378583993134" lon="8.425351769736336"><ele>47.0</ele><time>2026-03-31T09:13:28Z</time></trkpt><trkpt lat="38.963722499260555" lon="8.425264709272811"><ele>47.0</ele><time>2026-03-31T09:13:29Z</time></trkpt><trkpt lat="38.96366016906213" lon="8.42517463468915"><ele>47.0</ele><time>2026-03-31T09:13:30Z</time></trkpt><trkpt lat="38.96359515714262" lon="8.425084599927667"><ele>47.0</ele><time>2026-03-31T09:13:31Z</time></trkpt><trkpt lat="38.963527262343" lon="8.424993126059436"><ele>47.0</ele><time>2026-03-31T09:13:32Z</time></trkpt><trkpt lat="38.96345719750435" lon="8.424904069075106"><ele>47.0</ele><time>2026-03-31T09:13:33Z</time></trkpt><trkpt lat="38.963386546438606" lon="8.424812097319856"><ele>45.166666666666664</ele><time>2026-03-31T09:13:34Z</time></trkpt><trkpt lat="38.96331750574588" lon="8.42471942960953"><ele>43.33333333333333</ele><time>2026-03-31T09:13:35Z</time></trkpt><trkpt lat="38.963259219122335" lon="8.424624044944693"><ele>41.5</ele><time>2026-03-31T09:13:36Z</time></trkpt><trkpt lat="38.96321877390243" lon="8.424522657057015"><ele>39.666666666666664</ele><time>2026-03-31T09:13:37Z</time></trkpt><trkpt lat="38.963197719093465" lon="8.424419647308639"><ele>37.833333333333336</ele><time>2026-03-31T09:13:38Z</time></trkpt><trkpt lat="38.96318501433201" lon="8.424316314413193"><ele>36.0</ele><time>2026-03-31T09:13:39Z</time></trkpt><trkpt lat="38.96318100431636" lon="8.424210295732891"><ele>35.2</ele><time>2026-03-31T09:13:40Z</time></trkpt><trkpt lat="38.96317801386641" lon="8.424097350026207"><ele>34.400000000000006</ele><time>2026-03-31T09:13:41Z</time></trkpt><trkpt lat="38.96317145661704" lon="8.423984621788584"><ele>33.6</ele><time>2026-03-31T09:13:42Z</time></trkpt><trkpt lat="38.96316492183385" lon="8.423870194895333"><ele>32.800000000000004</ele><time>2026-03-31T09:13:43Z</time></trkpt><trkpt lat="38.963155765837904" lon="8.423747274425278"><ele>32.0</ele><time>2026-03-31T09:13:44Z</time></trkpt><trkpt lat="38.96314478214452" lon="8.423621144081052"><ele>30.200000000000003</ele><time>2026-03-31T09:13:45Z</time></trkpt><trkpt lat="38.963134374654715" lon="8.423495165439597"><ele>28.400000000000002</ele><time>2026-03-31T09:13:46Z</time></trkpt><trkpt lat="38.963125396998095" lon="8.423367980146134"><ele>26.6</ele><time>2026-03-31T09:13:47Z</time></trkpt><trkpt lat="38.963113988082235" lon="8.423239983715611"><ele>24.799999999999997</ele><time>2026-03-31T09:13:48Z</time></trkpt><trkpt lat="38.96310511145439" lon="8.423112142246405"><ele>23.0</ele><time>2026-03-31T09:13:49Z</time></trkpt><trkpt lat="38.96309494827826" lon="8.4229821175532"><ele>22.0</ele><time>2026-03-31T09:13:50Z</time></trkpt><trkpt lat="38.963086084581185" lon="8.422852639262777"><ele>21.0</ele><time>2026-03-31T09:13:51Z</time></trkpt><trkpt lat="38.96307746651454" lon="8.422724337125851"><ele>20.0</ele><time>2026-03-31T09:13:52Z</time></trkpt><trkpt lat="38.96306523642912" lon="8.422599609818805"><ele>19.0</ele><time>2026-03-31T09:13:53Z</time></trkpt><trkpt lat="38.96305493737367" lon="8.422474980978217"><ele>18.0</ele><time>2026-03-31T09:13:54Z</time></trkpt><trkpt lat="38.963049108149754" lon="8.422353467391773"><ele>18.0</ele><time>2026-03-31T09:13:55Z</time></trkpt><trkpt lat="38.9630460716523" lon="8.422232654972692"><ele>18.0</ele><time>2026-03-31T09:13:56Z</time></trkpt><trkpt lat="38.9630462984881" lon="8.422121464605176"><ele>18.0</ele><time>2026-03-31T09:13:57Z</time></trkpt><trkpt lat="38.9630510305504" lon="8.422013515996552"><ele>18.0</ele><time>2026-03-31T09:13:58Z</time></trkpt><trkpt lat="38.96306685999533" lon="8.421896275280485"><ele>18.0</ele><time>2026-03-31T09:13:59Z</time></trkpt><trkpt lat="38.96308670375901" lon="8.42178149266116"><ele>18.0</ele><time>2026-03-31T09:14:00Z</time></trkpt><trkpt lat="38.96310744886071" lon="8.421678132389886"><ele>17.5</ele><time>2026-03-31T09:14:01Z</time></trkpt><trkpt lat="38.9631269986872" lon="8.421590874591985"><ele>17.0</ele><time>2026-03-31T09:14:02Z</time></trkpt><trkpt lat="38.96315991963886" lon="8.42145740850907"><ele>16.5</ele><time>2026-03-31T09:14:04Z</time></trkpt><trkpt lat="38.96318873104666" lon="8.421365680094633"><ele>16.0</ele><time>2026-03-31T09:14:06Z</time></trkpt><trkpt lat="38.963219491290985" lon="8.421290030490194"><ele>15.5</ele><time>2026-03-31T09:14:08Z</time></trkpt><trkpt lat="38.963257568412146" lon="8.421179150739302"><ele>15.0</ele><time>2026-03-31T09:14:11Z</time></trkpt><trkpt lat="38.96325963741219" lon="8.42107077413919"><ele>15.0</ele><time>2026-03-31T09:14:14Z</time></trkpt><trkpt lat="38.963209738305174" lon="8.420982125948722"><ele>15.0</ele><time>2026-03-31T09:14:16Z</time></trkpt><trkpt lat="38.96312974054859" lon="8.420866443391496"><ele>15.0</ele><time>2026-03-31T09:14:18Z</time></trkpt><trkpt lat="38.96308571800257" lon="8.420789896200612"><ele>15.0</ele><time>2026-03-31T09:14:19Z</time></trkpt><trkpt lat="38.96303890407108" lon="8.420711289341051"><ele>15.0</ele><time>2026-03-31T09:14:20Z</time></trkpt><trkpt lat="38.962986872135886" lon="8.420637555753709"><ele>15.0</ele><time>2026-03-31T09:14:21Z</time></trkpt><trkpt lat="38.96295378496218" lon="8.420566072483098"><ele>15.4</ele><time>2026-03-31T09:14:22Z</time></trkpt><trkpt lat="38.96291067573407" lon="8.420418415062123"><ele>15.8</ele><time>2026-03-31T09:14:24Z</time></trkpt><trkpt lat="38.96295423231046" lon="8.42025395121883"><ele>16.2</ele><time>2026-03-31T09:14:26Z</time></trkpt><trkpt lat="38.96301101465642" lon="8.420180559490197"><ele>16.6</ele><time>2026-03-31T09:14:27Z</time></trkpt><trkpt lat="38.963079317141656" lon="8.420109157875752"><ele>17.0</ele><time>2026-03-31T09:14:28Z</time></trkpt><trkpt lat="38.963142210706216" lon="8.420045758743811"><ele>17.0</ele><time>2026-03-31T09:14:29.001Z</time></trkpt><trkpt lat="38.96320408402797" lon="8.419980944950282"><ele>17.0</ele><time>2026-03-31T09:14:30.001Z</time></trkpt><trkpt lat="38.96326218505216" lon="8.4199104153179"><ele>17.0</ele><time>2026-03-31T09:14:31.001Z</time></trkpt><trkpt lat="38.96330179108204" lon="8.419823646642056"><ele>17.0</ele><time>2026-03-31T09:14:32.001Z</time></trkpt><trkpt lat="38.963302388609705" lon="8.419741245824808"><ele>17.0</ele><time>2026-03-31T09:14:33.001Z</time></trkpt><trkpt lat="38.96332296892294" lon="8.419621335468594"><ele>17.0</ele><time>2026-03-31T09:14:35.001Z</time></trkpt><trkpt lat="38.96312391319112" lon="8.419475069298853"><ele>17.0</ele><time>2026-03-31T09:14:36.999Z</time></trkpt><trkpt lat="38.963064231985015" lon="8.419409744366241"><ele>17.0</ele><time>2026-03-31T09:14:37.999Z</time></trkpt><trkpt lat="38.962998665400505" lon="8.419341082018788"><ele>17.0</ele><time>2026-03-31T09:14:38.999Z</time></trkpt><trkpt lat="38.96293174882725" lon="8.419254826597504"><ele>17.0</ele><time>2026-03-31T09:14:39.999Z</time></trkpt><trkpt lat="38.96286564167521" lon="8.419169236090001"><ele>17.0</ele><time>2026-03-31T09:14:40.999Z</time></trkpt><trkpt lat="38.962791605782776" lon="8.419078899908069"><ele>17.0</ele><time>2026-03-31T09:14:41.999Z</time></trkpt><trkpt lat="38.962713372941074" lon="8.418996646385322"><ele>17.0</ele><time>2026-03-31T09:14:42.999Z</time></trkpt><trkpt lat="38.96262850138107" lon="8.41891012792487"><ele>17.0</ele><time>2026-03-31T09:14:43.999Z</time></trkpt><trkpt lat="38.96254517661794" lon="8.418824584427284"><ele>17.0</ele><time>2026-03-31T09:14:44.999Z</time></trkpt><trkpt lat="38.962463359922296" lon="8.418732511758805"><ele>17.0</ele><time>2026-03-31T09:14:45.999Z</time></trkpt><trkpt lat="38.96238512053699" lon="8.41864505990198"><ele>16.8</ele><time>2026-03-31T09:14:46.999Z</time></trkpt><trkpt lat="38.962309912064654" lon="8.418564126277868"><ele>16.6</ele><time>2026-03-31T09:14:47.999Z</time></trkpt><trkpt lat="38.96223464749879" lon="8.418490537156567"><ele>16.400000000000002</ele><time>2026-03-31T09:14:48.999Z</time></trkpt><trkpt lat="38.96216154464665" lon="8.418416533814652"><ele>16.2</ele><time>2026-03-31T09:14:49.999Z</time></trkpt><trkpt lat="38.962093721330824" lon="8.418338266800642"><ele>16.0</ele><time>2026-03-31T09:14:50.999Z</time></trkpt><trkpt lat="38.962018180399724" lon="8.41825405377744"><ele>16.0</ele><time>2026-03-31T09:14:51.999Z</time></trkpt><trkpt lat="38.96193792227074" lon="8.418173696239338"><ele>16.0</ele><time>2026-03-31T09:14:52.999Z</time></trkpt><trkpt lat="38.961859449848966" lon="8.4180886107564"><ele>16.0</ele><time>2026-03-31T09:14:53.999Z</time></trkpt><trkpt lat="38.961784749929976" lon="8.41801513162608"><ele>16.0</ele><time>2026-03-31T09:14:54.999Z</time></trkpt><trkpt lat="38.961716186032724" lon="8.417942926119602"><ele>16.0</ele><time>2026-03-31T09:14:56Z</time></trkpt><trkpt lat="38.961657384207896" lon="8.417864300035207"><ele>16.333333333333332</ele><time>2026-03-31T09:14:57Z</time></trkpt><trkpt lat="38.96161495129647" lon="8.41777787161246"><ele>16.666666666666664</ele><time>2026-03-31T09:14:58Z</time></trkpt><trkpt lat="38.96158096416833" lon="8.417684314809957"><ele>17.0</ele><time>2026-03-31T09:14:59Z</time></trkpt><trkpt lat="38.96154300113327" lon="8.41758033071561"><ele>17.333333333333332</ele><time>2026-03-31T09:15:00Z</time></trkpt><trkpt lat="38.96149643006096" lon="8.417480867222283"><ele>17.666666666666668</ele><time>2026-03-31T09:15:01Z</time></trkpt><trkpt lat="38.9614358604406" lon="8.417384761528833"><ele>18.0</ele><time>2026-03-31T09:15:02Z</time></trkpt><trkpt lat="38.96137075906238" lon="8.417296200043634"><ele>18.0</ele><time>2026-03-31T09:15:03Z</time></trkpt><trkpt lat="38.96129979327001" lon="8.417219069567073"><ele>18.0</ele><time>2026-03-31T09:15:04Z</time></trkpt><trkpt lat="38.961222351854886" lon="8.417170514273979"><ele>18.0</ele><time>2026-03-31T09:15:05Z</time></trkpt><trkpt lat="38.961146233853235" lon="8.417131973830827"><ele>18.0</ele><time>2026-03-31T09:15:06Z</time></trkpt><trkpt lat="38.961074518076046" lon="8.417096130806023"><ele>18.0</ele><time>2026-03-31T09:15:07Z</time></trkpt><trkpt lat="38.96100647119686" lon="8.417051875834828"><ele>18.0</ele><time>2026-03-31T09:15:08Z</time></trkpt><trkpt lat="38.960937499575635" lon="8.417002319355795"><ele>17.666666666666668</ele><time>2026-03-31T09:15:09Z</time></trkpt><trkpt lat="38.960872529787565" lon="8.416949701965109"><ele>17.333333333333332</ele><time>2026-03-31T09:15:10Z</time></trkpt><trkpt lat="38.96081428694784" lon="8.416892611959588"><ele>17.0</ele><time>2026-03-31T09:15:11Z</time></trkpt><trkpt lat="38.96075626746389" lon="8.416833926730312"><ele>16.666666666666664</ele><time>2026-03-31T09:15:12Z</time></trkpt><trkpt lat="38.96070295389815" lon="8.416786165618616"><ele>16.333333333333332</ele><time>2026-03-31T09:15:13Z</time></trkpt><trkpt lat="38.96062733499353" lon="8.416666286628608"><ele>16.0</ele><time>2026-03-31T09:15:15Z</time></trkpt><trkpt lat="38.96060513746962" lon="8.416522488858426"><ele>16.0</ele><time>2026-03-31T09:15:17Z</time></trkpt><trkpt lat="38.96058051864248" lon="8.416367787106243"><ele>16.0</ele><time>2026-03-31T09:15:19Z</time></trkpt><trkpt lat="38.960559424961694" lon="8.416271423792741"><ele>16.0</ele><time>2026-03-31T09:15:20Z</time></trkpt><trkpt lat="38.96052164933653" lon="8.416171615035843"><ele>16.0</ele><time>2026-03-31T09:15:21Z</time></trkpt><trkpt lat="38.96047157296957" lon="8.416073315062977"><ele>16.0</ele><time>2026-03-31T09:15:22Z</time></trkpt><trkpt lat="38.96042490831951" lon="8.415980991074171"><ele>16.8</ele><time>2026-03-31T09:15:23Z</time></trkpt><trkpt lat="38.96036840840642" lon="8.415903514222896"><ele>17.6</ele><time>2026-03-31T09:15:24Z</time></trkpt><trkpt lat="38.960297272623365" lon="8.41582683753971"><ele>18.4</ele><time>2026-03-31T09:15:25Z</time></trkpt><trkpt lat="38.9602208338277" lon="8.41575459890366"><ele>19.2</ele><time>2026-03-31T09:15:26Z</time></trkpt><trkpt lat="38.96014918462004" lon="8.41568483960601"><ele>20.0</ele><time>2026-03-31T09:15:27Z</time></trkpt><trkpt lat="38.96007783846697" lon="8.415610209612415"><ele>19.5</ele><time>2026-03-31T09:15:28Z</time></trkpt><trkpt lat="38.960009168865206" lon="8.415531333946191"><ele>19.0</ele><time>2026-03-31T09:15:29Z</time></trkpt><trkpt lat="38.95994384084893" lon="8.4154537833877"><ele>18.5</ele><time>2026-03-31T09:15:30Z</time></trkpt><trkpt lat="38.95988487327078" lon="8.415375494597807"><ele>18.0</ele><time>2026-03-31T09:15:31Z</time></trkpt><trkpt lat="38.959829255377215" lon="8.415293893230814"><ele>17.5</ele><time>2026-03-31T09:15:32Z</time></trkpt><trkpt lat="38.95978486338651" lon="8.415202395078877"><ele>17.0</ele><time>2026-03-31T09:15:33Z</time></trkpt><trkpt lat="38.95975907026832" lon="8.415095591563626"><ele>17.0</ele><time>2026-03-31T09:15:34Z</time></trkpt><trkpt lat="38.95974837075685" lon="8.414979734288131"><ele>17.0</ele><time>2026-03-31T09:15:35Z</time></trkpt><trkpt lat="38.9597429269979" lon="8.41486389993798"><ele>17.0</ele><time>2026-03-31T09:15:36Z</time></trkpt><trkpt lat="38.95973399430443" lon="8.4147552213751"><ele>17.0</ele><time>2026-03-31T09:15:37Z</time></trkpt><trkpt lat="38.95975027755601" lon="8.414671502051096"><ele>17.0</ele><time>2026-03-31T09:15:38Z</time></trkpt><trkpt lat="38.95983201632475" lon="8.41455722153296"><ele>17.166666666666668</ele><time>2026-03-31T09:15:40Z</time></trkpt><trkpt lat="38.959898390888696" lon="8.414522850555237"><ele>17.333333333333336</ele><time>2026-03-31T09:15:41Z</time></trkpt><trkpt lat="38.959962350204314" lon="8.414489338860038"><ele>17.5</ele><time>2026-03-31T09:15:42Z</time></trkpt><trkpt lat="38.960052409862215" lon="8.41442248524454"><ele>17.666666666666668</ele><time>2026-03-31T09:15:44Z</time></trkpt><trkpt lat="38.9601026298744" lon="8.414359947077138"><ele>17.833333333333332</ele><time>2026-03-31T09:15:46Z</time></trkpt><trkpt lat="38.96012436453766" lon="8.41427188118101"><ele>18.0</ele><time>2026-03-31T09:15:49Z</time></trkpt><trkpt lat="38.96008970056026" lon="8.414359800125077"><ele>18.0</ele><time>2026-03-31T09:19:09Z</time></trkpt><trkpt lat="38.96002446620939" lon="8.414403964684048"><ele>18.0</ele><time>2026-03-31T09:19:36Z</time></trkpt><trkpt lat="38.95986849574642" lon="8.41452370825258"><ele>18.0</ele><time>2026-03-31T09:19:38Z</time></trkpt><trkpt lat="38.95980555843792" lon="8.414572691201665"><ele>18.0</ele><time>2026-03-31T09:19:39Z</time></trkpt><trkpt lat="38.95973330650039" lon="8.41468875070221"><ele>18.0</ele><time>2026-03-31T09:19:41Z</time></trkpt><trkpt lat="38.95973318968325" lon="8.414847575746965"><ele>17.857142857142858</ele><time>2026-03-31T09:19:43Z</time></trkpt><trkpt lat="38.95974402853291" lon="8.41493655207563"><ele>17.714285714285715</ele><time>2026-03-31T09:19:44Z</time></trkpt><trkpt lat="38.95975799981649" lon="8.41501788196325"><ele>17.57142857142857</ele><time>2026-03-31T09:19:45Z</time></trkpt><trkpt lat="38.9597729419927" lon="8.415102660772124"><ele>17.42857142857143</ele><time>2026-03-31T09:19:46Z</time></trkpt><trkpt lat="38.95978277119637" lon="8.415187789349535"><ele>17.285714285714285</ele><time>2026-03-31T09:19:47Z</time></trkpt><trkpt lat="38.95979543501071" lon="8.415268475456251"><ele>17.142857142857142</ele><time>2026-03-31T09:19:48Z</time></trkpt><trkpt lat="38.959828172318986" lon="8.415343594990983"><ele>17.0</ele><time>2026-03-31T09:19:49Z</time></trkpt><trkpt lat="38.959886086173775" lon="8.415406471281965"><ele>17.0</ele><time>2026-03-31T09:19:50Z</time></trkpt><trkpt lat="38.95996158987783" lon="8.415479472892775"><ele>17.0</ele><time>2026-03-31T09:19:51Z</time></trkpt><trkpt lat="38.96003447345132" lon="8.415565478181241"><ele>17.0</ele><time>2026-03-31T09:19:52Z</time></trkpt><trkpt lat="38.96011744848713" lon="8.41564990675632"><ele>17.0</ele><time>2026-03-31T09:19:53Z</time></trkpt><trkpt lat="38.96019684080603" lon="8.415729844557648"><ele>17.0</ele><time>2026-03-31T09:19:54Z</time></trkpt><trkpt lat="38.960271262095695" lon="8.415807321296672"><ele>17.5</ele><time>2026-03-31T09:19:55Z</time></trkpt><trkpt lat="38.96033911724751" lon="8.415889397795302"><ele>18.0</ele><time>2026-03-31T09:19:56Z</time></trkpt><trkpt lat="38.96040814411917" lon="8.415960453811078"><ele>18.5</ele><time>2026-03-31T09:19:57Z</time></trkpt><trkpt lat="38.96047551274522" lon="8.41604143876109"><ele>19.0</ele><time>2026-03-31T09:19:58Z</time></trkpt><trkpt lat="38.96052486705607" lon="8.416114908684097"><ele>19.5</ele><time>2026-03-31T09:19:59Z</time></trkpt><trkpt lat="38.96056796657271" lon="8.416206157802232"><ele>20.0</ele><time>2026-03-31T09:20:00Z</time></trkpt><trkpt lat="38.96058584247154" lon="8.416317423644502"><ele>19.2</ele><time>2026-03-31T09:20:01Z</time></trkpt><trkpt lat="38.96060179422703" lon="8.416419634449134"><ele>18.4</ele><time>2026-03-31T09:20:02Z</time></trkpt><trkpt lat="38.96060392493188" lon="8.41650674431577"><ele>17.6</ele><time>2026-03-31T09:20:03Z</time></trkpt><trkpt lat="38.96062721455771" lon="8.416638182898664"><ele>16.8</ele><time>2026-03-31T09:20:05Z</time></trkpt><trkpt lat="38.9606770219031" lon="8.416752895995096"><ele>16.0</ele><time>2026-03-31T09:20:07Z</time></trkpt><trkpt lat="38.96076613054781" lon="8.41685371667036"><ele>16.5</ele><time>2026-03-31T09:20:09Z</time></trkpt><trkpt lat="38.960867719889634" lon="8.416948220251877"><ele>17.0</ele><time>2026-03-31T09:20:11Z</time></trkpt><trkpt lat="38.96095855580655" lon="8.41703619581917"><ele>17.5</ele><time>2026-03-31T09:20:13Z</time></trkpt><trkpt lat="38.961062498719706" lon="8.41710615545764"><ele>18.0</ele><time>2026-03-31T09:20:15Z</time></trkpt><trkpt lat="38.96117857473503" lon="8.417168414754567"><ele>18.0</ele><time>2026-03-31T09:20:17Z</time></trkpt><trkpt lat="38.961238670369184" lon="8.417198272843452"><ele>18.0</ele><time>2026-03-31T09:20:18Z</time></trkpt><trkpt lat="38.96134675463562" lon="8.417271016404714"><ele>18.0</ele><time>2026-03-31T09:20:20Z</time></trkpt><trkpt lat="38.961396229288574" lon="8.417327334867975"><ele>18.0</ele><time>2026-03-31T09:20:21Z</time></trkpt><trkpt lat="38.961435208320374" lon="8.417404265210719"><ele>18.0</ele><time>2026-03-31T09:20:22Z</time></trkpt><trkpt lat="38.961486715451635" lon="8.417480843099703"><ele>18.0</ele><time>2026-03-31T09:20:23Z</time></trkpt><trkpt lat="38.961542285579895" lon="8.41757973108054"><ele>18.0</ele><time>2026-03-31T09:20:24Z</time></trkpt><trkpt lat="38.96157778069845" lon="8.4176796279631"><ele>18.0</ele><time>2026-03-31T09:20:25.001Z</time></trkpt><trkpt lat="38.96161555438905" lon="8.417779921037422"><ele>18.0</ele><time>2026-03-31T09:20:26.001Z</time></trkpt><trkpt lat="38.96165900792352" lon="8.417878469412098"><ele>18.0</ele><time>2026-03-31T09:20:27.001Z</time></trkpt><trkpt lat="38.96172173206083" lon="8.417965239233519"><ele>18.0</ele><time>2026-03-31T09:20:28.001Z</time></trkpt><trkpt lat="38.96181012531799" lon="8.418047561394202"><ele>17.5</ele><time>2026-03-31T09:20:29.001Z</time></trkpt><trkpt lat="38.96191643874203" lon="8.418150887718665"><ele>17.0</ele><time>2026-03-31T09:20:30.001Z</time></trkpt><trkpt lat="38.96200728742967" lon="8.418248728012921"><ele>16.5</ele><time>2026-03-31T09:20:31.001Z</time></trkpt><trkpt lat="38.96209343160182" lon="8.418334482112417"><ele>16.0</ele><time>2026-03-31T09:20:32.001Z</time></trkpt><trkpt lat="38.96217236014395" lon="8.418418783023137"><ele>16.0</ele><time>2026-03-31T09:20:33.001Z</time></trkpt><trkpt lat="38.96225243157001" lon="8.418506318785512"><ele>16.0</ele><time>2026-03-31T09:20:34.001Z</time></trkpt><trkpt lat="38.96233208682911" lon="8.418600174413166"><ele>16.0</ele><time>2026-03-31T09:20:35.001Z</time></trkpt><trkpt lat="38.96241163783732" lon="8.418689771399366"><ele>16.0</ele><time>2026-03-31T09:20:36.001Z</time></trkpt><trkpt lat="38.96249192713528" lon="8.418774946535274"><ele>16.0</ele><time>2026-03-31T09:20:37.001Z</time></trkpt><trkpt lat="38.96257437801635" lon="8.41885573554343"><ele>16.2</ele><time>2026-03-31T09:20:38.001Z</time></trkpt><trkpt lat="38.96265199876779" lon="8.418935447807494"><ele>16.400000000000002</ele><time>2026-03-31T09:20:39.001Z</time></trkpt><trkpt lat="38.962725190267015" lon="8.419021634369013"><ele>16.6</ele><time>2026-03-31T09:20:40.001Z</time></trkpt><trkpt lat="38.96279509513257" lon="8.419105245949288"><ele>16.8</ele><time>2026-03-31T09:20:41.001Z</time></trkpt><trkpt lat="38.962859022729454" lon="8.419186534923167"><ele>17.0</ele><time>2026-03-31T09:20:42.001Z</time></trkpt><trkpt lat="38.96292911809885" lon="8.41926656506718"><ele>17.0</ele><time>2026-03-31T09:20:43.001Z</time></trkpt><trkpt lat="38.96299914371137" lon="8.419337312345363"><ele>17.0</ele><time>2026-03-31T09:20:44.001Z</time></trkpt><trkpt lat="38.96306939727406" lon="8.41940795229156"><ele>17.0</ele><time>2026-03-31T09:20:45.001Z</time></trkpt><trkpt lat="38.963145008251445" lon="8.419485664101918"><ele>17.0</ele><time>2026-03-31T09:20:46.001Z</time></trkpt><trkpt lat="38.96320463146854" lon="8.419562440867521"><ele>17.0</ele><time>2026-03-31T09:20:47.001Z</time></trkpt><trkpt lat="38.963257110347385" lon="8.41962374566391"><ele>17.0</ele><time>2026-03-31T09:20:48.001Z</time></trkpt><trkpt lat="38.96331591169148" lon="8.419748423662483"><ele>17.0</ele><time>2026-03-31T09:20:50.001Z</time></trkpt><trkpt lat="38.96324574072646" lon="8.419868671883538"><ele>17.0</ele><time>2026-03-31T09:20:52.001Z</time></trkpt><trkpt lat="38.963201170858035" lon="8.41992628561403"><ele>17.0</ele><time>2026-03-31T09:20:53.001Z</time></trkpt><trkpt lat="38.963148558277354" lon="8.420011436700443"><ele>17.0</ele><time>2026-03-31T09:20:54.001Z</time></trkpt><trkpt lat="38.96307318055163" lon="8.42007001067488"><ele>17.0</ele><time>2026-03-31T09:20:55Z</time></trkpt><trkpt lat="38.96300458089353" lon="8.42014271304529"><ele>17.0</ele><time>2026-03-31T09:20:56Z</time></trkpt><trkpt lat="38.962950438791914" lon="8.42022938731364"><ele>17.0</ele><time>2026-03-31T09:20:57Z</time></trkpt><trkpt lat="38.962889187533435" lon="8.420305731889778"><ele>17.0</ele><time>2026-03-31T09:20:58Z</time></trkpt><trkpt lat="38.96289191430359" lon="8.420423248238599"><ele>17.0</ele><time>2026-03-31T09:20:59Z</time></trkpt><trkpt lat="38.96289650900842" lon="8.420532263916316"><ele>17.0</ele><time>2026-03-31T09:21:00Z</time></trkpt><trkpt lat="38.96294798766211" lon="8.42064641507417"><ele>17.0</ele><time>2026-03-31T09:21:01Z</time></trkpt><trkpt lat="38.96302527114966" lon="8.420732648100232"><ele>16.6</ele><time>2026-03-31T09:21:02Z</time></trkpt><trkpt lat="38.963090996019496" lon="8.420830669411645"><ele>16.2</ele><time>2026-03-31T09:21:03Z</time></trkpt><trkpt lat="38.96315578614894" lon="8.420918055078202"><ele>15.8</ele><time>2026-03-31T09:21:04Z</time></trkpt><trkpt lat="38.96320015584166" lon="8.42098673063268"><ele>15.4</ele><time>2026-03-31T09:21:05Z</time></trkpt><trkpt lat="38.96324284622124" lon="8.421101613802456"><ele>15.0</ele><time>2026-03-31T09:21:07Z</time></trkpt><trkpt lat="38.963464934300355" lon="8.421140538866766"><ele>15.8</ele><time>2026-03-31T09:21:38Z</time></trkpt><trkpt lat="38.963570604179274" lon="8.421226230177197"><ele>16.6</ele><time>2026-03-31T09:21:40Z</time></trkpt><trkpt lat="38.96365466431104" lon="8.421258690555822"><ele>17.4</ele><time>2026-03-31T09:21:41Z</time></trkpt><trkpt lat="38.96372215879035" lon="8.421317642342464"><ele>18.2</ele><time>2026-03-31T09:21:42Z</time></trkpt><trkpt lat="38.96382463127799" lon="8.421277008487424"><ele>19.0</ele><time>2026-03-31T09:21:44Z</time></trkpt><trkpt lat="38.963918155217975" lon="8.421193562731618"><ele>20.0</ele><time>2026-03-31T09:21:46Z</time></trkpt><trkpt lat="38.964039576694745" lon="8.421200255127575"><ele>21.0</ele><time>2026-03-31T09:21:48Z</time></trkpt><trkpt lat="38.96410767120884" lon="8.421213602517456"><ele>22.0</ele><time>2026-03-31T09:21:49Z</time></trkpt><trkpt lat="38.96418731590037" lon="8.421198363828493"><ele>23.0</ele><time>2026-03-31T09:21:50Z</time></trkpt><trkpt lat="38.96429086508955" lon="8.421227259074207"><ele>24.0</ele><time>2026-03-31T09:21:51Z</time></trkpt><trkpt lat="38.96437772335834" lon="8.421257136143598"><ele>25.2</ele><time>2026-03-31T09:21:52Z</time></trkpt><trkpt lat="38.9644815096621" lon="8.421287517968532"><ele>26.4</ele><time>2026-03-31T09:21:54Z</time></trkpt><trkpt lat="38.964592784277706" lon="8.421232270088911"><ele>27.6</ele><time>2026-03-31T09:21:56Z</time></trkpt><trkpt lat="38.96467602667503" lon="8.421178827997386"><ele>28.8</ele><time>2026-03-31T09:21:58Z</time></trkpt><trkpt lat="38.96474326913548" lon="8.421234685338742"><ele>30.0</ele><time>2026-03-31T09:22:02Z</time></trkpt><trkpt lat="38.96467947973323" lon="8.421184073669549"><ele>30.0</ele><time>2026-03-31T09:22:15.001Z</time></trkpt><trkpt lat="38.96458061786995" lon="8.421238704979386"><ele>30.0</ele><time>2026-03-31T09:22:17.001Z</time></trkpt><trkpt lat="38.96446014373368" lon="8.42131134145964"><ele>30.0</ele><time>2026-03-31T09:22:19.001Z</time></trkpt><trkpt lat="38.96439627715242" lon="8.421300208032095"><ele>30.0</ele><time>2026-03-31T09:22:20.001Z</time></trkpt><trkpt lat="38.96432166783064" lon="8.421277062396134"><ele>30.0</ele><time>2026-03-31T09:22:21.001Z</time></trkpt><trkpt lat="38.96422164100949" lon="8.421234590403095"><ele>28.8</ele><time>2026-03-31T09:22:22.001Z</time></trkpt><trkpt lat="38.964108912433" lon="8.421205217075233"><ele>27.6</ele><time>2026-03-31T09:22:23.001Z</time></trkpt><trkpt lat="38.9640248535435" lon="8.421178996548557"><ele>26.4</ele><time>2026-03-31T09:22:24.001Z</time></trkpt><trkpt lat="38.963955840749335" lon="8.421169973119595"><ele>25.2</ele><time>2026-03-31T09:22:25.001Z</time></trkpt><trkpt lat="38.96385250638322" lon="8.421230382363541"><ele>24.0</ele><time>2026-03-31T09:22:27.001Z</time></trkpt><trkpt lat="38.96376228018866" lon="8.421298634617022"><ele>24.0</ele><time>2026-03-31T09:22:29.001Z</time></trkpt><trkpt lat="38.96367029798312" lon="8.42126127896441"><ele>24.0</ele><time>2026-03-31T09:22:31.001Z</time></trkpt><trkpt lat="38.96357771549511" lon="8.421196732724576"><ele>24.0</ele><time>2026-03-31T09:22:33.001Z</time></trkpt><trkpt lat="38.96347189115151" lon="8.421115409993915"><ele>24.0</ele><time>2026-03-31T09:22:35.001Z</time></trkpt><trkpt lat="38.963361364531906" lon="8.42108637095583"><ele>24.0</ele><time>2026-03-31T09:22:37.001Z</time></trkpt><trkpt lat="38.96328051891069" lon="8.421083899054931"><ele>24.0</ele><time>2026-03-31T09:22:39.001Z</time></trkpt><trkpt lat="38.96323125300335" lon="8.421017587317978"><ele>24.0</ele><time>2026-03-31T09:22:42.001Z</time></trkpt><trkpt lat="38.963296906781984" lon="8.421065302292261"><ele>24.0</ele><time>2026-03-31T09:23:09Z</time></trkpt><trkpt lat="38.96337919963277" lon="8.421094949289275"><ele>24.0</ele><time>2026-03-31T09:23:12Z</time></trkpt><trkpt lat="38.96346566412837" lon="8.421109633776096"><ele>24.0</ele><time>2026-03-31T09:23:14Z</time></trkpt><trkpt lat="38.96354374761973" lon="8.421174716848116"><ele>24.0</ele><time>2026-03-31T09:23:16Z</time></trkpt><trkpt lat="38.96361714309984" lon="8.421218278432464"><ele>24.0</ele><time>2026-03-31T09:23:18Z</time></trkpt><trkpt lat="38.96370029516368" lon="8.421274371090124"><ele>24.0</ele><time>2026-03-31T09:23:20Z</time></trkpt><trkpt lat="38.9637906366335" lon="8.421269001805015"><ele>24.0</ele><time>2026-03-31T09:23:22Z</time></trkpt><trkpt lat="38.96385880818714" lon="8.421227286268868"><ele>24.0</ele><time>2026-03-31T09:23:24Z</time></trkpt><trkpt lat="38.96394513544702" lon="8.421168032046404"><ele>24.0</ele><time>2026-03-31T09:23:26Z</time></trkpt><trkpt lat="38.964046525146564" lon="8.421174691162951"><ele>24.0</ele><time>2026-03-31T09:23:28Z</time></trkpt><trkpt lat="38.9641720037592" lon="8.421204649828658"><ele>24.0</ele><time>2026-03-31T09:23:30Z</time></trkpt><trkpt lat="38.96423495604069" lon="8.421223810138157"><ele>24.0</ele><time>2026-03-31T09:23:31Z</time></trkpt><trkpt lat="38.96435840679297" lon="8.42126554679206"><ele>24.0</ele><time>2026-03-31T09:23:33Z</time></trkpt><trkpt lat="38.964422627251075" lon="8.421281083327155"><ele>24.0</ele><time>2026-03-31T09:23:34Z</time></trkpt><trkpt lat="38.96453086357541" lon="8.421274931141346"><ele>25.0</ele><time>2026-03-31T09:23:36Z</time></trkpt><trkpt lat="38.96462628831475" lon="8.421222134157459"><ele>26.0</ele><time>2026-03-31T09:23:38.001Z</time></trkpt><trkpt lat="38.96467792699608" lon="8.421159809273735"><ele>27.0</ele><time>2026-03-31T09:23:40.001Z</time></trkpt><trkpt lat="38.96473939580219" lon="8.421190061132565"><ele>28.0</ele><time>2026-03-31T09:23:42.001Z</time></trkpt><trkpt lat="38.96479258927439" lon="8.421235625942055"><ele>29.0</ele><time>2026-03-31T09:23:44.001Z</time></trkpt><trkpt lat="38.96487936909208" lon="8.421283514427063"><ele>30.0</ele><time>2026-03-31T09:23:47.001Z</time></trkpt><trkpt lat="38.9649517954541" lon="8.421312070937164"><ele>30.2</ele><time>2026-03-31T09:23:49.001Z</time></trkpt><trkpt lat="38.96502738498011" lon="8.421331255138602"><ele>30.4</ele><time>2026-03-31T09:23:51.001Z</time></trkpt><trkpt lat="38.96511600229826" lon="8.421347618781978"><ele>30.6</ele><time>2026-03-31T09:23:53.001Z</time></trkpt><trkpt lat="38.96521081975542" lon="8.421359407664834"><ele>30.8</ele><time>2026-03-31T09:23:55.001Z</time></trkpt><trkpt lat="38.965309869973716" lon="8.421374153725424"><ele>31.0</ele><time>2026-03-31T09:23:57.001Z</time></trkpt><trkpt lat="38.96541336175692" lon="8.421379805229112"><ele>31.000000000000004</ele><time>2026-03-31T09:23:59.001Z</time></trkpt><trkpt lat="38.96550729350501" lon="8.421408969820977"><ele>31.0</ele><time>2026-03-31T09:24:01.001Z</time></trkpt><trkpt lat="38.96559705299662" lon="8.421406580301596"><ele>31.0</ele><time>2026-03-31T09:24:03.001Z</time></trkpt><trkpt lat="38.96566074039604" lon="8.421392550999172"><ele>31.0</ele><time>2026-03-31T09:24:05.001Z</time></trkpt><trkpt lat="38.96570356235383" lon="8.421469290086838"><ele>31.000000000000004</ele><time>2026-03-31T09:24:08.001Z</time></trkpt><trkpt lat="38.96566827378699" lon="8.421553224974287"><ele>31.0</ele><time>2026-03-31T09:24:11.001Z</time></trkpt><trkpt lat="38.96560589212688" lon="8.421615416631806"><ele>31.000000000000004</ele><time>2026-03-31T09:24:14.001Z</time></trkpt><trkpt lat="38.96555074128352" lon="8.421700005301092"><ele>31.0</ele><time>2026-03-31T09:24:17.001Z</time></trkpt><trkpt lat="38.96551060703883" lon="8.421815112508046"><ele>31.0</ele><time>2026-03-31T09:24:20.001Z</time></trkpt><trkpt lat="38.96546740493488" lon="8.42188130529559"><ele>31.0</ele><time>2026-03-31T09:24:22.001Z</time></trkpt><trkpt lat="38.96539927542808" lon="8.4219667037381"><ele>31.000000000000004</ele><time>2026-03-31T09:24:25.001Z</time></trkpt><trkpt lat="38.96536574804811" lon="8.422036520646174"><ele>31.0</ele><time>2026-03-31T09:24:26.001Z</time></trkpt><trkpt lat="38.965315414096615" lon="8.422090764500533"><ele>31.166666666666668</ele><time>2026-03-31T09:24:29.001Z</time></trkpt><trkpt lat="38.96524685091741" lon="8.4221640387444"><ele>31.333333333333336</ele><time>2026-03-31T09:24:32.001Z</time></trkpt><trkpt lat="38.96517689532163" lon="8.422235516783452"><ele>31.5</ele><time>2026-03-31T09:24:35.001Z</time></trkpt><trkpt lat="38.96511101416315" lon="8.422317614161232"><ele>31.666666666666664</ele><time>2026-03-31T09:24:38.001Z</time></trkpt><trkpt lat="38.96504360896167" lon="8.422393156958137"><ele>31.833333333333332</ele><time>2026-03-31T09:24:41.001Z</time></trkpt><trkpt lat="38.96498255935837" lon="8.422463665168708"><ele>32.0</ele><time>2026-03-31T09:24:44.001Z</time></trkpt><trkpt lat="38.964914942332996" lon="8.422540574551299"><ele>31.999999999999996</ele><time>2026-03-31T09:24:47.001Z</time></trkpt><trkpt lat="38.96484685398214" lon="8.422613791230503"><ele>32.0</ele><time>2026-03-31T09:24:50.001Z</time></trkpt><trkpt lat="38.96478288040173" lon="8.422696902425537"><ele>32.0</ele><time>2026-03-31T09:24:53.001Z</time></trkpt><trkpt lat="38.96473403810483" lon="8.422766479345844"><ele>32.0</ele><time>2026-03-31T09:24:56.001Z</time></trkpt><trkpt lat="38.96465979986316" lon="8.42282160087873"><ele>31.999999999999996</ele><time>2026-03-31T09:25:29.001Z</time></trkpt><trkpt lat="38.96460217253334" lon="8.42288754888377"><ele>32.0</ele><time>2026-03-31T09:25:31.001Z</time></trkpt><trkpt lat="38.96454150477721" lon="8.422953298313596"><ele>31.833333333333332</ele><time>2026-03-31T09:25:33.001Z</time></trkpt><trkpt lat="38.96448524026934" lon="8.423027610070802"><ele>31.666666666666664</ele><time>2026-03-31T09:25:35.001Z</time></trkpt><trkpt lat="38.964425530403275" lon="8.4230945950744"><ele>31.5</ele><time>2026-03-31T09:25:37.001Z</time></trkpt><trkpt lat="38.964371185264575" lon="8.423155308906088"><ele>31.333333333333336</ele><time>2026-03-31T09:25:39.001Z</time></trkpt><trkpt lat="38.96433106258378" lon="8.42321979062701"><ele>31.166666666666668</ele><time>2026-03-31T09:25:41.001Z</time></trkpt><trkpt lat="38.964271729802846" lon="8.423280882401034"><ele>31.0</ele><time>2026-03-31T09:25:44.001Z</time></trkpt><trkpt lat="38.96419446556774" lon="8.423384970958985"><ele>31.000000000000004</ele><time>2026-03-31T09:25:46.001Z</time></trkpt><trkpt lat="38.964150240801054" lon="8.423451387000803"><ele>31.0</ele><time>2026-03-31T09:25:47.001Z</time></trkpt><trkpt lat="38.96408795400196" lon="8.423497954887972"><ele>31.0</ele><time>2026-03-31T09:25:48.001Z</time></trkpt><trkpt lat="38.964038904238485" lon="8.423572687108866"><ele>31.0</ele><time>2026-03-31T09:25:49.001Z</time></trkpt><trkpt lat="38.963985920337066" lon="8.423656457111816"><ele>31.000000000000004</ele><time>2026-03-31T09:25:50.001Z</time></trkpt><trkpt lat="38.96393731660246" lon="8.423742335024832"><ele>31.0</ele><time>2026-03-31T09:25:51.001Z</time></trkpt><trkpt lat="38.963889868047865" lon="8.42383682508717"><ele>33.0</ele><time>2026-03-31T09:25:52.001Z</time></trkpt><trkpt lat="38.963860389902216" lon="8.42395233535379"><ele>35.0</ele><time>2026-03-31T09:25:53.001Z</time></trkpt><trkpt lat="38.96382346223859" lon="8.424065145621828"><ele>37.0</ele><time>2026-03-31T09:25:54.001Z</time></trkpt><trkpt lat="38.96379907802211" lon="8.424182113470307"><ele>39.0</ele><time>2026-03-31T09:25:55.001Z</time></trkpt><trkpt lat="38.96377341250338" lon="8.424298968420862"><ele>41.0</ele><time>2026-03-31T09:25:56.001Z</time></trkpt><trkpt lat="38.963767280301745" lon="8.424425037394855"><ele>41.0</ele><time>2026-03-31T09:25:57.001Z</time></trkpt><trkpt lat="38.96376939101833" lon="8.424547856083747"><ele>41.0</ele><time>2026-03-31T09:25:58.001Z</time></trkpt><trkpt lat="38.96378121775985" lon="8.424660502261279"><ele>41.0</ele><time>2026-03-31T09:25:59.001Z</time></trkpt><trkpt lat="38.9638202178291" lon="8.424766897642977"><ele>41.0</ele><time>2026-03-31T09:26:00.001Z</time></trkpt><trkpt lat="38.963853797378285" lon="8.424874749233316"><ele>41.0</ele><time>2026-03-31T09:26:01.001Z</time></trkpt><trkpt lat="38.96390235253533" lon="8.424978890630316"><ele>42.199999999999996</ele><time>2026-03-31T09:26:02.001Z</time></trkpt><trkpt lat="38.963951839160565" lon="8.425080893643774"><ele>43.4</ele><time>2026-03-31T09:26:03.001Z</time></trkpt><trkpt lat="38.96400651206836" lon="8.425180925897857"><ele>44.6</ele><time>2026-03-31T09:26:04.001Z</time></trkpt><trkpt lat="38.964072895579" lon="8.425277728552926"><ele>45.8</ele><time>2026-03-31T09:26:05.001Z</time></trkpt><trkpt lat="38.964131191927336" lon="8.425376742014071"><ele>47.0</ele><time>2026-03-31T09:26:06.001Z</time></trkpt><trkpt lat="38.96419627727169" lon="8.425477899242615"><ele>48.8</ele><time>2026-03-31T09:26:07.001Z</time></trkpt><trkpt lat="38.964266708441116" lon="8.42557645928605"><ele>50.6</ele><time>2026-03-31T09:26:08.001Z</time></trkpt><trkpt lat="38.964343903895156" lon="8.42567769360151"><ele>52.39999999999999</ele><time>2026-03-31T09:26:09.001Z</time></trkpt><trkpt lat="38.964425422691555" lon="8.425776865572955"><ele>54.199999999999996</ele><time>2026-03-31T09:26:10.001Z</time></trkpt><trkpt lat="38.964498653008505" lon="8.425866240922403"><ele>56.0</ele><time>2026-03-31T09:26:11.001Z</time></trkpt><trkpt lat="38.96456955781818" lon="8.425942679972344"><ele>56.00000000000001</ele><time>2026-03-31T09:26:12.001Z</time></trkpt><trkpt lat="38.964626790747985" lon="8.426016660794932"><ele>56.0</ele><time>2026-03-31T09:26:13.001Z</time></trkpt><trkpt lat="38.96467553283066" lon="8.426088119913885"><ele>56.0</ele><time>2026-03-31T09:26:14.001Z</time></trkpt><trkpt lat="38.96470391160023" lon="8.426165931292347"><ele>56.0</ele><time>2026-03-31T09:26:15.001Z</time></trkpt><trkpt lat="38.96471274381792" lon="8.426246440195552"><ele>56.00000000000001</ele><time>2026-03-31T09:26:16.001Z</time></trkpt><trkpt lat="38.96470046757993" lon="8.426365446960432"><ele>56.0</ele><time>2026-03-31T09:26:18.001Z</time></trkpt><trkpt lat="38.96475417831094" lon="8.426491961026166"><ele>56.25</ele><time>2026-03-31T09:26:20.001Z</time></trkpt><trkpt lat="38.96484666680985" lon="8.426590937400391"><ele>56.5</ele><time>2026-03-31T09:26:22.001Z</time></trkpt><trkpt lat="38.96494174365546" lon="8.426700795626148"><ele>56.75</ele><time>2026-03-31T09:26:24.001Z</time></trkpt><trkpt lat="38.96502784146624" lon="8.426809327395251"><ele>57.0</ele><time>2026-03-31T09:26:26.001Z</time></trkpt><trkpt lat="38.9651041414738" lon="8.426912441064136"><ele>57.0</ele><time>2026-03-31T09:26:28.001Z</time></trkpt><trkpt lat="38.96518526628144" lon="8.42699589610236"><ele>57.0</ele><time>2026-03-31T09:26:30.001Z</time></trkpt><trkpt lat="38.96526178594266" lon="8.427101090581417"><ele>57.0</ele><time>2026-03-31T09:26:32.001Z</time></trkpt><trkpt lat="38.96529496006509" lon="8.427171036463447"><ele>57.0</ele><time>2026-03-31T09:26:33.001Z</time></trkpt><trkpt lat="38.96531751563178" lon="8.427267562492299"><ele>57.0</ele><time>2026-03-31T09:26:34.001Z</time></trkpt><trkpt lat="38.96534278343711" lon="8.427365684141089"><ele>57.0</ele><time>2026-03-31T09:26:35.001Z</time></trkpt><trkpt lat="38.96538519998126" lon="8.427455581079618"><ele>55.666666666666664</ele><time>2026-03-31T09:26:36.001Z</time></trkpt><trkpt lat="38.96543695602963" lon="8.427539242648885"><ele>54.33333333333333</ele><time>2026-03-31T09:26:37.001Z</time></trkpt><trkpt lat="38.9654956124238" lon="8.427618674086455"><ele>53.0</ele><time>2026-03-31T09:26:38.001Z</time></trkpt><trkpt lat="38.96554598925291" lon="8.427696247357868"><ele>51.666666666666664</ele><time>2026-03-31T09:26:39.001Z</time></trkpt><trkpt lat="38.96558918254007" lon="8.4277669411941"><ele>50.33333333333333</ele><time>2026-03-31T09:26:40.001Z</time></trkpt><trkpt lat="38.96563020136469" lon="8.427837030328796"><ele>49.0</ele><time>2026-03-31T09:26:41.001Z</time></trkpt><trkpt lat="38.965667397419786" lon="8.427908810576804"><ele>48.33333333333333</ele><time>2026-03-31T09:26:42.001Z</time></trkpt><trkpt lat="38.96567671569356" lon="8.428002472528158"><ele>47.666666666666664</ele><time>2026-03-31T09:26:43.001Z</time></trkpt><trkpt lat="38.9656852473982" lon="8.428087582487537"><ele>47.0</ele><time>2026-03-31T09:26:44.001Z</time></trkpt><trkpt lat="38.96568195819068" lon="8.428174576625393"><ele>46.33333333333333</ele><time>2026-03-31T09:26:45.001Z</time></trkpt><trkpt lat="38.96568142671231" lon="8.428258257954097"><ele>45.666666666666664</ele><time>2026-03-31T09:26:46.001Z</time></trkpt><trkpt lat="38.96568387702408" lon="8.428423066547134"><ele>45.0</ele><time>2026-03-31T09:26:48.001Z</time></trkpt><trkpt lat="38.96571481653272" lon="8.428580071224328"><ele>45.0</ele><time>2026-03-31T09:26:50.001Z</time></trkpt><trkpt lat="38.96573882740828" lon="8.428655638577489"><ele>45.0</ele><time>2026-03-31T09:26:51.001Z</time></trkpt><trkpt lat="38.96577083610878" lon="8.428727232517142"><ele>45.0</ele><time>2026-03-31T09:26:52.001Z</time></trkpt><trkpt lat="38.965813990874054" lon="8.428787394681532"><ele>45.0</ele><time>2026-03-31T09:26:53.001Z</time></trkpt><trkpt lat="38.96586405836665" lon="8.428840657053025"><ele>45.0</ele><time>2026-03-31T09:26:54.001Z</time></trkpt><trkpt lat="38.96592410781149" lon="8.428880310620356"><ele>45.0</ele><time>2026-03-31T09:26:55.001Z</time></trkpt><trkpt lat="38.966046236247195" lon="8.428888585063381"><ele>45.0</ele><time>2026-03-31T09:26:57.001Z</time></trkpt><trkpt lat="38.966160744795985" lon="8.428869905940333"><ele>45.0</ele><time>2026-03-31T09:26:59.001Z</time></trkpt><trkpt lat="38.966266773903364" lon="8.428822500830218"><ele>45.0</ele><time>2026-03-31T09:27:01.001Z</time></trkpt><trkpt lat="38.966383828172596" lon="8.428793226832015"><ele>45.0</ele><time>2026-03-31T09:27:03.001Z</time></trkpt><trkpt lat="38.96645322363427" lon="8.428786133744348"><ele>45.0</ele><time>2026-03-31T09:27:04.001Z</time></trkpt><trkpt lat="38.96652908994068" lon="8.428782016503796"><ele>45.0</ele><time>2026-03-31T09:27:05.001Z</time></trkpt><trkpt lat="38.96660517847929" lon="8.42877827288651"><ele>46.0</ele><time>2026-03-31T09:27:06.001Z</time></trkpt><trkpt lat="38.96668462771191" lon="8.428797805222652"><ele>47.0</ele><time>2026-03-31T09:27:07.001Z</time></trkpt><trkpt lat="38.96675786956169" lon="8.428842177110061"><ele>48.0</ele><time>2026-03-31T09:27:08.001Z</time></trkpt><trkpt lat="38.96682393120779" lon="8.428905920461181"><ele>49.0</ele><time>2026-03-31T09:27:09.001Z</time></trkpt><trkpt lat="38.96688519335014" lon="8.428977162036068"><ele>50.0</ele><time>2026-03-31T09:27:10.001Z</time></trkpt><trkpt lat="38.96694315052235" lon="8.429059420037396"><ele>51.0</ele><time>2026-03-31T09:27:11.001Z</time></trkpt><trkpt lat="38.96699395958715" lon="8.429156577689874"><ele>50.833333333333336</ele><time>2026-03-31T09:27:12.001Z</time></trkpt><trkpt lat="38.96703395256357" lon="8.429263488329317"><ele>50.66666666666667</ele><time>2026-03-31T09:27:13.001Z</time></trkpt><trkpt lat="38.96705780826422" lon="8.429377432244184"><ele>50.5</ele><time>2026-03-31T09:27:14.001Z</time></trkpt><trkpt lat="38.96706861571322" lon="8.429489227998607"><ele>50.333333333333336</ele><time>2026-03-31T09:27:15.001Z</time></trkpt><trkpt lat="38.96706471272709" lon="8.42959714471086"><ele>50.16666666666667</ele><time>2026-03-31T09:27:16.001Z</time></trkpt><trkpt lat="38.96705211790203" lon="8.429713893808364"><ele>50.0</ele><time>2026-03-31T09:27:17.001Z</time></trkpt><trkpt lat="38.96703844415783" lon="8.429837917596997"><ele>50.0</ele><time>2026-03-31T09:27:18.001Z</time></trkpt><trkpt lat="38.96703318604743" lon="8.429961947619862"><ele>50.0</ele><time>2026-03-31T09:27:19.001Z</time></trkpt><trkpt lat="38.96703555217291" lon="8.430085728119076"><ele>50.0</ele><time>2026-03-31T09:27:20.001Z</time></trkpt><trkpt lat="38.96703487594232" lon="8.430211281547107"><ele>50.0</ele><time>2026-03-31T09:27:21.001Z</time></trkpt><trkpt lat="38.967032674995984" lon="8.430321192278754"><ele>50.0</ele><time>2026-03-31T09:27:22.001Z</time></trkpt><trkpt lat="38.96701160978207" lon="8.430426151130094"><ele>49.4</ele><time>2026-03-31T09:27:23.001Z</time></trkpt><trkpt lat="38.966969891993145" lon="8.430536895161165"><ele>48.8</ele><time>2026-03-31T09:27:24.001Z</time></trkpt><trkpt lat="38.966908068334924" lon="8.430643175203391"><ele>48.2</ele><time>2026-03-31T09:27:25.001Z</time></trkpt><trkpt lat="38.96683837106681" lon="8.430738327843484"><ele>47.6</ele><time>2026-03-31T09:27:26.001Z</time></trkpt><trkpt lat="38.96677642752446" lon="8.430828139476057"><ele>47.0</ele><time>2026-03-31T09:27:27.001Z</time></trkpt><trkpt lat="38.966703878509215" lon="8.43089713258597"><ele>45.8</ele><time>2026-03-31T09:27:28.001Z</time></trkpt><trkpt lat="38.96661963154183" lon="8.430932846871352"><ele>44.6</ele><time>2026-03-31T09:27:29.001Z</time></trkpt><trkpt lat="38.96652440911892" lon="8.43092499616314"><ele>43.4</ele><time>2026-03-31T09:27:30.001Z</time></trkpt><trkpt lat="38.966426444004675" lon="8.430895504410417"><ele>42.199999999999996</ele><time>2026-03-31T09:27:31.001Z</time></trkpt><trkpt lat="38.9663210361509" lon="8.430861848143174"><ele>41.0</ele><time>2026-03-31T09:27:32.001Z</time></trkpt><trkpt lat="38.966208405698204" lon="8.430830331500347"><ele>41.0</ele><time>2026-03-31T09:27:33.001Z</time></trkpt><trkpt lat="38.966085350360274" lon="8.430805087076406"><ele>41.0</ele><time>2026-03-31T09:27:34.001Z</time></trkpt><trkpt lat="38.965958809040195" lon="8.430784547251758"><ele>41.0</ele><time>2026-03-31T09:27:35.001Z</time></trkpt><trkpt lat="38.965839307093106" lon="8.430760481508065"><ele>41.0</ele><time>2026-03-31T09:27:36.001Z</time></trkpt><trkpt lat="38.96572192465356" lon="8.430750351829808"><ele>39.8</ele><time>2026-03-31T09:27:37.001Z</time></trkpt><trkpt lat="38.96561167651985" lon="8.430740525104474"><ele>38.599999999999994</ele><time>2026-03-31T09:27:38.001Z</time></trkpt><trkpt lat="38.96550973398133" lon="8.43073718939667"><ele>37.4</ele><time>2026-03-31T09:27:39.001Z</time></trkpt><trkpt lat="38.965414011299806" lon="8.430745860436492"><ele>36.2</ele><time>2026-03-31T09:27:40.001Z</time></trkpt><trkpt lat="38.96531776190697" lon="8.430763919056613"><ele>35.0</ele><time>2026-03-31T09:27:41.001Z</time></trkpt><trkpt lat="38.96522186847108" lon="8.430797014583241"><ele>35.0</ele><time>2026-03-31T09:27:42.001Z</time></trkpt><trkpt lat="38.96512816386542" lon="8.43084937176388"><ele>35.0</ele><time>2026-03-31T09:27:43.001Z</time></trkpt><trkpt lat="38.965035679416104" lon="8.43091402422566"><ele>35.0</ele><time>2026-03-31T09:27:44.001Z</time></trkpt><trkpt lat="38.96494532205413" lon="8.430980735688069"><ele>35.0</ele><time>2026-03-31T09:27:45.001Z</time></trkpt><trkpt lat="38.96485349031413" lon="8.431057924057638"><ele>35.0</ele><time>2026-03-31T09:27:46.001Z</time></trkpt><trkpt lat="38.964758492125114" lon="8.431137043904599"><ele>35.2</ele><time>2026-03-31T09:27:47.001Z</time></trkpt><trkpt lat="38.964663105009855" lon="8.431220201225713"><ele>35.4</ele><time>2026-03-31T09:27:48.001Z</time></trkpt><trkpt lat="38.96457500016185" lon="8.43130896155418"><ele>35.6</ele><time>2026-03-31T09:27:49.001Z</time></trkpt><trkpt lat="38.9645044449349" lon="8.43141159023315"><ele>35.8</ele><time>2026-03-31T09:27:50.001Z</time></trkpt><trkpt lat="38.96445577711175" lon="8.431530239491789"><ele>36.0</ele><time>2026-03-31T09:27:51.001Z</time></trkpt><trkpt lat="38.96442257981417" lon="8.431655952694259"><ele>36.0</ele><time>2026-03-31T09:27:52.001Z</time></trkpt><trkpt lat="38.964406476410815" lon="8.431786198755793"><ele>36.0</ele><time>2026-03-31T09:27:53.001Z</time></trkpt><trkpt lat="38.96440625936126" lon="8.431885381269293"><ele>36.0</ele><time>2026-03-31T09:27:54.001Z</time></trkpt><trkpt lat="38.964428629059164" lon="8.432031900178355"><ele>36.0</ele><time>2026-03-31T09:27:56.001Z</time></trkpt><trkpt lat="38.964452299713145" lon="8.432117552128737"><ele>36.0</ele><time>2026-03-31T09:27:58.001Z</time></trkpt><trkpt lat="38.964492813922355" lon="8.432180343081734"><ele>36.0</ele><time>2026-03-31T09:28:00.001Z</time></trkpt><trkpt lat="38.964568759548825" lon="8.432281867209001"><ele>36.0</ele><time>2026-03-31T09:28:02.001Z</time></trkpt><trkpt lat="38.964618658835455" lon="8.43236163576561"><ele>36.0</ele><time>2026-03-31T09:28:04.001Z</time></trkpt><trkpt lat="38.96463770651993" lon="8.432277272259487"><ele>36.0</ele><time>2026-03-31T09:28:08.001Z</time></trkpt><trkpt lat="38.96457367215987" lon="8.432243293323005"><ele>36.0</ele><time>2026-03-31T09:28:10.001Z</time></trkpt><trkpt lat="38.96451900136547" lon="8.4321966011994"><ele>36.0</ele><time>2026-03-31T09:28:12.001Z</time></trkpt><trkpt lat="38.9644599625964" lon="8.432091751592361"><ele>36.0</ele><time>2026-03-31T09:28:21.001Z</time></trkpt><trkpt lat="38.96443865914987" lon="8.431980103219534"><ele>36.0</ele><time>2026-03-31T09:28:24.001Z</time></trkpt><trkpt lat="38.964360578547385" lon="8.43195150608335"><ele>36.0</ele><time>2026-03-31T09:28:27.001Z</time></trkpt><trkpt lat="38.96429475539915" lon="8.431983606303481"><ele>36.0</ele><time>2026-03-31T09:28:29.001Z</time></trkpt><trkpt lat="38.96421123259789" lon="8.432006444993236"><ele>36.0</ele><time>2026-03-31T09:28:31.001Z</time></trkpt><trkpt lat="38.964104322591844" lon="8.432033957235497"><ele>36.0</ele><time>2026-03-31T09:28:33.001Z</time></trkpt><trkpt lat="38.963992844391385" lon="8.432061894164148"><ele>34.6</ele><time>2026-03-31T09:28:35.001Z</time></trkpt><trkpt lat="38.96388631917328" lon="8.43209677754871"><ele>33.2</ele><time>2026-03-31T09:28:37.001Z</time></trkpt><trkpt lat="38.963786606857816" lon="8.43212874102099"><ele>31.799999999999997</ele><time>2026-03-31T09:28:39.001Z</time></trkpt><trkpt lat="38.963673183559166" lon="8.4321651919926"><ele>30.4</ele><time>2026-03-31T09:28:41.001Z</time></trkpt><trkpt lat="38.96356259918998" lon="8.43221317280117"><ele>29.0</ele><time>2026-03-31T09:28:43.001Z</time></trkpt><trkpt lat="38.963462378893425" lon="8.432252884494192"><ele>28.2</ele><time>2026-03-31T09:28:45.001Z</time></trkpt><trkpt lat="38.963351782986486" lon="8.43229468881063"><ele>27.4</ele><time>2026-03-31T09:28:47.001Z</time></trkpt><trkpt lat="38.96324170017305" lon="8.43235492889976"><ele>26.6</ele><time>2026-03-31T09:28:49.001Z</time></trkpt><trkpt lat="38.96318154692562" lon="8.43238572722936"><ele>25.8</ele><time>2026-03-31T09:28:50.001Z</time></trkpt><trkpt lat="38.96305978182655" lon="8.432421345493324"><ele>25.0</ele><time>2026-03-31T09:28:52.001Z</time></trkpt><trkpt lat="38.962995722618835" lon="8.432438411714392"><ele>25.000000000000004</ele><time>2026-03-31T09:28:53.001Z</time></trkpt><trkpt lat="38.96293153920279" lon="8.43246229655307"><ele>25.0</ele><time>2026-03-31T09:28:54.001Z</time></trkpt><trkpt lat="38.96286993470025" lon="8.432485447824126"><ele>25.0</ele><time>2026-03-31T09:28:55.001Z</time></trkpt><trkpt lat="38.96276508797637" lon="8.432538833408183"><ele>25.0</ele><time>2026-03-31T09:28:57.001Z</time></trkpt><trkpt lat="38.96266197830238" lon="8.432614984933446"><ele>25.000000000000004</ele><time>2026-03-31T09:28:59.001Z</time></trkpt><trkpt lat="38.962602632953796" lon="8.432665904245207"><ele>25.0</ele><time>2026-03-31T09:29:00.001Z</time></trkpt><trkpt lat="38.96248584189602" lon="8.432746179013362"><ele>24.0</ele><time>2026-03-31T09:29:02.001Z</time></trkpt><trkpt lat="38.962426346942465" lon="8.43277330789181"><ele>23.0</ele><time>2026-03-31T09:29:03.001Z</time></trkpt><trkpt lat="38.96232509796783" lon="8.432834644665474"><ele>22.0</ele><time>2026-03-31T09:29:05.001Z</time></trkpt><trkpt lat="38.96221425769387" lon="8.432892803292551"><ele>21.0</ele><time>2026-03-31T09:29:07.001Z</time></trkpt><trkpt lat="38.96212395327757" lon="8.432962620821403"><ele>20.0</ele><time>2026-03-31T09:29:09.001Z</time></trkpt><trkpt lat="38.96204700321266" lon="8.433049359739975"><ele>19.666666666666668</ele><time>2026-03-31T09:29:11.001Z</time></trkpt><trkpt lat="38.96194758967197" lon="8.43312857870299"><ele>19.333333333333336</ele><time>2026-03-31T09:29:13.001Z</time></trkpt><trkpt lat="38.96187118099386" lon="8.433192239890653"><ele>19.0</ele><time>2026-03-31T09:29:15.001Z</time></trkpt><trkpt lat="38.961824530852816" lon="8.433249627575927"><ele>18.666666666666668</ele><time>2026-03-31T09:29:17.001Z</time></trkpt><trkpt lat="38.961756219357184" lon="8.433249320254747"><ele>18.333333333333332</ele><time>2026-03-31T09:29:20Z</time></trkpt><trkpt lat="38.96171696355467" lon="8.433143966661415"><ele>18.0</ele><time>2026-03-31T09:29:23Z</time></trkpt><trkpt lat="38.961689804670996" lon="8.43305455442624"><ele>16.6</ele><time>2026-03-31T09:29:26Z</time></trkpt><trkpt lat="38.96165033579749" lon="8.432948380703452"><ele>15.200000000000001</ele><time>2026-03-31T09:29:28Z</time></trkpt><trkpt lat="38.961605813064544" lon="8.432837321637102"><ele>13.8</ele><time>2026-03-31T09:29:30Z</time></trkpt><trkpt lat="38.96153479629912" lon="8.432746360923618"><ele>12.4</ele><time>2026-03-31T09:29:32Z</time></trkpt><trkpt lat="38.961502853647666" lon="8.432656421603665"><ele>11.0</ele><time>2026-03-31T09:29:34Z</time></trkpt><trkpt lat="38.96145971356728" lon="8.432553842290964"><ele>11.0</ele><time>2026-03-31T09:29:37Z</time></trkpt><trkpt lat="38.96144643407435" lon="8.432462781079487"><ele>11.0</ele><time>2026-03-31T09:29:40Z</time></trkpt><trkpt lat="38.96148948124034" lon="8.432400093547745"><ele>11.0</ele><time>2026-03-31T09:29:46Z</time></trkpt><trkpt lat="38.96148415412558" lon="8.432508354483142"><ele>11.0</ele><time>2026-03-31T09:54:26Z</time></trkpt><trkpt lat="38.96149398432024" lon="8.432600364324545"><ele>11.0</ele><time>2026-03-31T09:54:29Z</time></trkpt><trkpt lat="38.96152697662324" lon="8.432679399346098"><ele>11.0</ele><time>2026-03-31T09:54:32Z</time></trkpt><trkpt lat="38.96157741840924" lon="8.432779389394355"><ele>11.0</ele><time>2026-03-31T09:54:35Z</time></trkpt><trkpt lat="38.96161007438581" lon="8.432854732023312"><ele>11.0</ele><time>2026-03-31T09:54:37Z</time></trkpt><trkpt lat="38.96165552525992" lon="8.432962749190459"><ele>11.0</ele><time>2026-03-31T09:54:40Z</time></trkpt><trkpt lat="38.961689438156476" lon="8.433034518062613"><ele>11.0</ele><time>2026-03-31T09:54:42Z</time></trkpt><trkpt lat="38.96174611594724" lon="8.433135273573761"><ele>11.0</ele><time>2026-03-31T09:54:45Z</time></trkpt><trkpt lat="38.961816689266385" lon="8.433168965502674"><ele>11.0</ele><time>2026-03-31T09:54:48Z</time></trkpt><trkpt lat="38.961901915063315" lon="8.433154293314805"><ele>12.0</ele><time>2026-03-31T09:54:51Z</time></trkpt><trkpt lat="38.9619615828898" lon="8.433117083259146"><ele>13.0</ele><time>2026-03-31T09:54:53Z</time></trkpt><trkpt lat="38.96202852959345" lon="8.433051376810807"><ele>14.0</ele><time>2026-03-31T09:54:56Z</time></trkpt><trkpt lat="38.962086062837834" lon="8.432999862878118"><ele>15.0</ele><time>2026-03-31T09:54:58Z</time></trkpt><trkpt lat="38.96214908665246" lon="8.432943329332554"><ele>16.0</ele><time>2026-03-31T09:55:00Z</time></trkpt><trkpt lat="38.96220718963065" lon="8.432904279790492"><ele>17.000000000000004</ele><time>2026-03-31T09:55:02Z</time></trkpt><trkpt lat="38.96226461351858" lon="8.432860551582763"><ele>18.0</ele><time>2026-03-31T09:55:04Z</time></trkpt><trkpt lat="38.962348311949555" lon="8.432807261615146"><ele>18.333333333333332</ele><time>2026-03-31T09:55:07Z</time></trkpt><trkpt lat="38.9624350135913" lon="8.432760535960888"><ele>18.666666666666668</ele><time>2026-03-31T09:55:10Z</time></trkpt><trkpt lat="38.96251288220086" lon="8.432717670466891"><ele>19.0</ele><time>2026-03-31T09:55:13Z</time></trkpt><trkpt lat="38.96258440116869" lon="8.432675563177336"><ele>19.333333333333336</ele><time>2026-03-31T09:55:16Z</time></trkpt><trkpt lat="38.962655702571006" lon="8.432607580215686"><ele>19.666666666666668</ele><time>2026-03-31T09:55:19Z</time></trkpt><trkpt lat="38.96270990151371" lon="8.432566203992277"><ele>20.0</ele><time>2026-03-31T09:55:21Z</time></trkpt><trkpt lat="38.96276802870261" lon="8.432527194444589"><ele>20.714285714285715</ele><time>2026-03-31T09:55:23Z</time></trkpt><trkpt lat="38.96283368330189" lon="8.4324979934146"><ele>21.42857142857143</ele><time>2026-03-31T09:55:25Z</time></trkpt><trkpt lat="38.96289791212415" lon="8.432476805801805"><ele>22.142857142857146</ele><time>2026-03-31T09:55:27Z</time></trkpt><trkpt lat="38.962987096764856" lon="8.432453236876755"><ele>22.857142857142858</ele><time>2026-03-31T09:55:30Z</time></trkpt><trkpt lat="38.96305094205296" lon="8.432428674280779"><ele>23.571428571428573</ele><time>2026-03-31T09:55:32Z</time></trkpt><trkpt lat="38.96311278723858" lon="8.432406857887884"><ele>24.28571428571429</ele><time>2026-03-31T09:55:34Z</time></trkpt><trkpt lat="38.96318052051342" lon="8.432383926807487"><ele>25.0</ele><time>2026-03-31T09:55:36Z</time></trkpt><trkpt lat="38.96324932960493" lon="8.432349096696003"><ele>25.0</ele><time>2026-03-31T09:55:38Z</time></trkpt><trkpt lat="38.96332717409718" lon="8.432314151290022"><ele>25.0</ele><time>2026-03-31T09:55:40Z</time></trkpt><trkpt lat="38.96347241626041" lon="8.43223357147303"><ele>25.0</ele><time>2026-03-31T09:55:44Z</time></trkpt><trkpt lat="38.96356448131818" lon="8.43221236959233"><ele>25.0</ele><time>2026-03-31T09:55:46Z</time></trkpt><trkpt lat="38.96366785394977" lon="8.432165234904224"><ele>25.0</ele><time>2026-03-31T09:55:48Z</time></trkpt><trkpt lat="38.963779641278805" lon="8.432126086830705"><ele>25.4</ele><time>2026-03-31T09:55:50Z</time></trkpt><trkpt lat="38.96387959089669" lon="8.4320985854069"><ele>25.8</ele><time>2026-03-31T09:55:52Z</time></trkpt><trkpt lat="38.96398136675029" lon="8.432057553290143"><ele>26.200000000000003</ele><time>2026-03-31T09:55:54Z</time></trkpt><trkpt lat="38.96409535221854" lon="8.432030000693114"><ele>26.6</ele><time>2026-03-31T09:55:56Z</time></trkpt><trkpt lat="38.96415727758867" lon="8.432013391672317"><ele>27.0</ele><time>2026-03-31T09:55:57Z</time></trkpt><trkpt lat="38.96422144783096" lon="8.43199593240183"><ele>28.6</ele><time>2026-03-31T09:55:58Z</time></trkpt><trkpt lat="38.9643156360672" lon="8.431972652860802"><ele>30.200000000000003</ele><time>2026-03-31T09:56:00Z</time></trkpt><trkpt lat="38.96439648846623" lon="8.432002686106578"><ele>31.8</ele><time>2026-03-31T09:56:03Z</time></trkpt><trkpt lat="38.96444345156014" lon="8.432072647273843"><ele>33.4</ele><time>2026-03-31T09:56:05Z</time></trkpt><trkpt lat="38.96447471847377" lon="8.432199801774825"><ele>35.0</ele><time>2026-03-31T09:56:07Z</time></trkpt><trkpt lat="38.964555872548466" lon="8.432278276007363"><ele>35.0</ele><time>2026-03-31T09:56:09Z</time></trkpt><trkpt lat="38.96465543215126" lon="8.432347460613537"><ele>35.0</ele><time>2026-03-31T09:56:11Z</time></trkpt><trkpt lat="38.96476571616526" lon="8.43243269255927"><ele>35.0</ele><time>2026-03-31T09:56:13Z</time></trkpt><trkpt lat="38.964823723799604" lon="8.432481724707051"><ele>35.0</ele><time>2026-03-31T09:56:14Z</time></trkpt><trkpt lat="38.96487947272934" lon="8.432538060258702"><ele>35.0</ele><time>2026-03-31T09:56:15Z</time></trkpt><trkpt lat="38.964936296648574" lon="8.432599657598912"><ele>35.0</ele><time>2026-03-31T09:56:16Z</time></trkpt><trkpt lat="38.96499486084642" lon="8.432657010321499"><ele>35.0</ele><time>2026-03-31T09:56:17Z</time></trkpt><trkpt lat="38.96505913653153" lon="8.432718104860815"><ele>35.0</ele><time>2026-03-31T09:56:18Z</time></trkpt><trkpt lat="38.965122371821984" lon="8.432785561667822"><ele>35.0</ele><time>2026-03-31T09:56:19Z</time></trkpt><trkpt lat="38.96518934451811" lon="8.432854873041695"><ele>35.0</ele><time>2026-03-31T09:56:20Z</time></trkpt><trkpt lat="38.965259265640114" lon="8.432920962429586"><ele>35.0</ele><time>2026-03-31T09:56:21Z</time></trkpt><trkpt lat="38.965329901811565" lon="8.43298897619595"><ele>35.166666666666664</ele><time>2026-03-31T09:56:22Z</time></trkpt><trkpt lat="38.965390644490306" lon="8.433058372512454"><ele>35.33333333333333</ele><time>2026-03-31T09:56:23Z</time></trkpt><trkpt lat="38.96544726258137" lon="8.433122465117204"><ele>35.5</ele><time>2026-03-31T09:56:24Z</time></trkpt><trkpt lat="38.9654855317618" lon="8.433199134399183"><ele>35.666666666666664</ele><time>2026-03-31T09:56:25Z</time></trkpt><trkpt lat="38.96554058693442" lon="8.433253198917457"><ele>35.833333333333336</ele><time>2026-03-31T09:56:26Z</time></trkpt><trkpt lat="38.96557766721072" lon="8.433320855944244"><ele>36.0</ele><time>2026-03-31T09:56:27Z</time></trkpt><trkpt lat="38.96564852591165" lon="8.433445456990118"><ele>36.0</ele><time>2026-03-31T09:56:29Z</time></trkpt><trkpt lat="38.965714948690355" lon="8.433573324115251"><ele>36.0</ele><time>2026-03-31T09:56:31Z</time></trkpt><trkpt lat="38.96572916399577" lon="8.433655508925197"><ele>36.0</ele><time>2026-03-31T09:56:32Z</time></trkpt><trkpt lat="38.9657636000367" lon="8.433812107044085"><ele>36.0</ele><time>2026-03-31T09:56:34Z</time></trkpt><trkpt lat="38.96579167101872" lon="8.433886713976857"><ele>36.0</ele><time>2026-03-31T09:56:35Z</time></trkpt><trkpt lat="38.96581879355028" lon="8.434042138845447"><ele>37.5</ele><time>2026-03-31T09:56:36.999Z</time></trkpt><trkpt lat="38.965862080564065" lon="8.434187047056062"><ele>39.0</ele><time>2026-03-31T09:56:38.999Z</time></trkpt><trkpt lat="38.96591588230842" lon="8.434321772124354"><ele>40.5</ele><time>2026-03-31T09:56:40.999Z</time></trkpt><trkpt lat="38.965988477844206" lon="8.434445081298797"><ele>42.0</ele><time>2026-03-31T09:56:42.999Z</time></trkpt><trkpt lat="38.96607689214678" lon="8.434555782316831"><ele>42.0</ele><time>2026-03-31T09:56:44.999Z</time></trkpt><trkpt lat="38.966154420882205" lon="8.434674219238392"><ele>42.0</ele><time>2026-03-31T09:56:46.999Z</time></trkpt><trkpt lat="38.966231676239794" lon="8.434750446744916"><ele>42.0</ele><time>2026-03-31T09:56:48.999Z</time></trkpt><trkpt lat="38.96630333286095" lon="8.43484171611374"><ele>42.0</ele><time>2026-03-31T09:56:50.999Z</time></trkpt><trkpt lat="38.9663863301762" lon="8.434951458482448"><ele>42.0</ele><time>2026-03-31T09:56:52.999Z</time></trkpt><trkpt lat="38.96641628506859" lon="8.435024895971411"><ele>42.0</ele><time>2026-03-31T09:56:53.999Z</time></trkpt><trkpt lat="38.96645771912591" lon="8.435087469822882"><ele>42.0</ele><time>2026-03-31T09:56:54.999Z</time></trkpt><trkpt lat="38.9664987547569" lon="8.435151552940612"><ele>42.0</ele><time>2026-03-31T09:56:55.999Z</time></trkpt><trkpt lat="38.96653728112657" lon="8.435219944119712"><ele>42.0</ele><time>2026-03-31T09:56:56.999Z</time></trkpt><trkpt lat="38.966571090680816" lon="8.435292918816716"><ele>42.0</ele><time>2026-03-31T09:56:57.999Z</time></trkpt><trkpt lat="38.966613347374505" lon="8.43536166859767"><ele>42.0</ele><time>2026-03-31T09:56:58.999Z</time></trkpt><trkpt lat="38.966623707397126" lon="8.43545403793892"><ele>42.0</ele><time>2026-03-31T09:56:59.999Z</time></trkpt><trkpt lat="38.96665614254721" lon="8.435535908916028"><ele>41.333333333333336</ele><time>2026-03-31T09:57:00.999Z</time></trkpt><trkpt lat="38.966677843963545" lon="8.435626199362751"><ele>40.666666666666664</ele><time>2026-03-31T09:57:01.999Z</time></trkpt><trkpt lat="38.96669736186131" lon="8.435717010245954"><ele>40.0</ele><time>2026-03-31T09:57:02.999Z</time></trkpt><trkpt lat="38.9667226489667" lon="8.435807260906087"><ele>39.33333333333333</ele><time>2026-03-31T09:57:03.999Z</time></trkpt><trkpt lat="38.96676038733389" lon="8.43589500622613"><ele>38.666666666666664</ele><time>2026-03-31T09:57:04.999Z</time></trkpt><trkpt lat="38.96681203824766" lon="8.435972673306436"><ele>38.0</ele><time>2026-03-31T09:57:05.999Z</time></trkpt><trkpt lat="38.966865347923815" lon="8.436041842210516"><ele>38.0</ele><time>2026-03-31T09:57:06.999Z</time></trkpt><trkpt lat="38.96691462886833" lon="8.436112840011903"><ele>38.0</ele><time>2026-03-31T09:57:07.999Z</time></trkpt><trkpt lat="38.96695980054405" lon="8.436186292288898"><ele>38.0</ele><time>2026-03-31T09:57:08.999Z</time></trkpt><trkpt lat="38.967000216721466" lon="8.436267710598042"><ele>38.0</ele><time>2026-03-31T09:57:09.999Z</time></trkpt><trkpt lat="38.96703629099509" lon="8.436348437151409"><ele>38.0</ele><time>2026-03-31T09:57:10.999Z</time></trkpt><trkpt lat="38.96706900795966" lon="8.436427215203333"><ele>38.0</ele><time>2026-03-31T09:57:11.999Z</time></trkpt><trkpt lat="38.967104494453714" lon="8.436507331358305"><ele>38.0</ele><time>2026-03-31T09:57:12.999Z</time></trkpt><trkpt lat="38.96714499788477" lon="8.43658566563487"><ele>38.0</ele><time>2026-03-31T09:57:13.999Z</time></trkpt><trkpt lat="38.96719630551026" lon="8.436649665454533"><ele>38.0</ele><time>2026-03-31T09:57:14.999Z</time></trkpt><trkpt lat="38.967259292999245" lon="8.43669447725293"><ele>38.0</ele><time>2026-03-31T09:57:15.999Z</time></trkpt><trkpt lat="38.96732919401586" lon="8.436724584984045"><ele>38.0</ele><time>2026-03-31T09:57:16.999Z</time></trkpt><trkpt lat="38.96740321652472" lon="8.436742509581192"><ele>38.0</ele><time>2026-03-31T09:57:17.999Z</time></trkpt><trkpt lat="38.96748071945192" lon="8.436752877321727"><ele>38.0</ele><time>2026-03-31T09:57:18.999Z</time></trkpt><trkpt lat="38.9675563307598" lon="8.436757324811277"><ele>38.0</ele><time>2026-03-31T09:57:19.999Z</time></trkpt><trkpt lat="38.96763288550424" lon="8.436760985916594"><ele>36.666666666666664</ele><time>2026-03-31T09:57:20.999Z</time></trkpt><trkpt lat="38.967710305039446" lon="8.43675971920742"><ele>35.33333333333333</ele><time>2026-03-31T09:57:21.999Z</time></trkpt><trkpt lat="38.96778960052889" lon="8.436745861878519"><ele>34.0</ele><time>2026-03-31T09:57:22.999Z</time></trkpt><trkpt lat="38.967864917324675" lon="8.436712976964117"><ele>32.666666666666664</ele><time>2026-03-31T09:57:23.999Z</time></trkpt><trkpt lat="38.96794201758589" lon="8.436677535545874"><ele>31.333333333333332</ele><time>2026-03-31T09:57:24.999Z</time></trkpt><trkpt lat="38.968016885747716" lon="8.436644177570772"><ele>30.0</ele><time>2026-03-31T09:57:25.999Z</time></trkpt><trkpt lat="38.96809239750644" lon="8.43659793698845"><ele>30.0</ele><time>2026-03-31T09:57:26.999Z</time></trkpt><trkpt lat="38.96816803764894" lon="8.436543130240898"><ele>30.0</ele><time>2026-03-31T09:57:27.999Z</time></trkpt><trkpt lat="38.968242930576665" lon="8.436487088200408"><ele>30.0</ele><time>2026-03-31T09:57:28.999Z</time></trkpt><trkpt lat="38.968315809215106" lon="8.436423672703935"><ele>30.0</ele><time>2026-03-31T09:57:29.999Z</time></trkpt><trkpt lat="38.968386527122654" lon="8.4363523828329"><ele>30.0</ele><time>2026-03-31T09:57:30.999Z</time></trkpt><trkpt lat="38.96845470774419" lon="8.436280405818778"><ele>30.0</ele><time>2026-03-31T09:57:31.999Z</time></trkpt><trkpt lat="38.968528253236336" lon="8.436219287341258"><ele>31.333333333333332</ele><time>2026-03-31T09:57:32.999Z</time></trkpt><trkpt lat="38.968611727681775" lon="8.43618002945579"><ele>32.666666666666664</ele><time>2026-03-31T09:57:33.999Z</time></trkpt><trkpt lat="38.968695082792294" lon="8.436144153360791"><ele>34.0</ele><time>2026-03-31T09:57:34.999Z</time></trkpt><trkpt lat="38.96877809487401" lon="8.436101619800587"><ele>35.33333333333333</ele><time>2026-03-31T09:57:35.999Z</time></trkpt><trkpt lat="38.968858003962865" lon="8.436058357861546"><ele>36.666666666666664</ele><time>2026-03-31T09:57:36.999Z</time></trkpt><trkpt lat="38.96893615222201" lon="8.436015775914916"><ele>38.0</ele><time>2026-03-31T09:57:37.999Z</time></trkpt><trkpt lat="38.96901234903424" lon="8.43597948957859"><ele>38.0</ele><time>2026-03-31T09:57:38.999Z</time></trkpt><trkpt lat="38.969089984995705" lon="8.435956040885278"><ele>38.0</ele><time>2026-03-31T09:57:39.999Z</time></trkpt><trkpt lat="38.969167827997886" lon="8.435962854641838"><ele>38.0</ele><time>2026-03-31T09:57:40.999Z</time></trkpt><trkpt lat="38.96923382830967" lon="8.435990855673559"><ele>38.0</ele><time>2026-03-31T09:57:41.999Z</time></trkpt><trkpt lat="38.96928866167719" lon="8.436047417801086"><ele>38.0</ele><time>2026-03-31T09:57:42.999Z</time></trkpt><trkpt lat="38.9692989817055" lon="8.436141949030016"><ele>38.0</ele><time>2026-03-31T09:57:43.999Z</time></trkpt><trkpt lat="38.969323392840195" lon="8.436233243861652"><ele>38.0</ele><time>2026-03-31T09:57:44.999Z</time></trkpt><trkpt lat="38.969324389660336" lon="8.436336543402076"><ele>37.5</ele><time>2026-03-31T09:57:45.999Z</time></trkpt><trkpt lat="38.96932096001526" lon="8.436438627788077"><ele>37.0</ele><time>2026-03-31T09:57:46.999Z</time></trkpt><trkpt lat="38.969306610703775" lon="8.436542459209164"><ele>36.5</ele><time>2026-03-31T09:57:47.999Z</time></trkpt><trkpt lat="38.96925651866723" lon="8.436629158707714"><ele>36.0</ele><time>2026-03-31T09:57:48.999Z</time></trkpt><trkpt lat="38.96921780495795" lon="8.436725977383055"><ele>35.5</ele><time>2026-03-31T09:57:49.999Z</time></trkpt><trkpt lat="38.96919250071603" lon="8.436832316720668"><ele>35.0</ele><time>2026-03-31T09:57:50.999Z</time></trkpt><trkpt lat="38.969158047366314" lon="8.43692657842285"><ele>35.0</ele><time>2026-03-31T09:57:51.999Z</time></trkpt><trkpt lat="38.969146193669616" lon="8.437028533539712"><ele>35.0</ele><time>2026-03-31T09:57:52.999Z</time></trkpt><trkpt lat="38.96913964878849" lon="8.437130076244571"><ele>35.0</ele><time>2026-03-31T09:57:53.999Z</time></trkpt><trkpt lat="38.9691576536612" lon="8.437215949017915"><ele>35.0</ele><time>2026-03-31T09:57:54.999Z</time></trkpt><trkpt lat="38.96921718128521" lon="8.437329480141683"><ele>35.0</ele><time>2026-03-31T09:57:56.999Z</time></trkpt><trkpt lat="38.969283668690096" lon="8.437450775345901"><ele>36.6</ele><time>2026-03-31T09:57:58.999Z</time></trkpt><trkpt lat="38.96935820785065" lon="8.437576584242436"><ele>38.2</ele><time>2026-03-31T09:58:00.999Z</time></trkpt><trkpt lat="38.969443194546905" lon="8.437678414226305"><ele>39.8</ele><time>2026-03-31T09:58:02.999Z</time></trkpt><trkpt lat="38.969538579724706" lon="8.437774089581213"><ele>41.4</ele><time>2026-03-31T09:58:04.999Z</time></trkpt><trkpt lat="38.96959035561861" lon="8.437836389190187"><ele>43.0</ele><time>2026-03-31T09:58:05.999Z</time></trkpt><trkpt lat="38.969646546877264" lon="8.437903708148545"><ele>41.66666666666667</ele><time>2026-03-31T09:58:06.999Z</time></trkpt><trkpt lat="38.96969804359694" lon="8.437980753173933"><ele>40.333333333333336</ele><time>2026-03-31T09:58:07.999Z</time></trkpt><trkpt lat="38.969750747331396" lon="8.438061802290811"><ele>39.0</ele><time>2026-03-31T09:58:08.999Z</time></trkpt><trkpt lat="38.96979750774957" lon="8.438149369083852"><ele>37.666666666666664</ele><time>2026-03-31T09:58:09.999Z</time></trkpt><trkpt lat="38.96984283811509" lon="8.43824598452506"><ele>36.33333333333333</ele><time>2026-03-31T09:58:10.999Z</time></trkpt><trkpt lat="38.96987930525026" lon="8.43833963380409"><ele>35.0</ele><time>2026-03-31T09:58:11.999Z</time></trkpt><trkpt lat="38.96991343084158" lon="8.438422387215049"><ele>35.0</ele><time>2026-03-31T09:58:12.999Z</time></trkpt><trkpt lat="38.969962846395134" lon="8.438484679208731"><ele>35.0</ele><time>2026-03-31T09:58:13.999Z</time></trkpt><trkpt lat="38.97002699665171" lon="8.43852567434343"><ele>35.0</ele><time>2026-03-31T09:58:14.999Z</time></trkpt><trkpt lat="38.97009476623662" lon="8.438579046575207"><ele>35.0</ele><time>2026-03-31T09:58:15.999Z</time></trkpt><trkpt lat="38.970162798035915" lon="8.438639873874068"><ele>35.0</ele><time>2026-03-31T09:58:16.999Z</time></trkpt><trkpt lat="38.970226314087" lon="8.438706866344129"><ele>35.0</ele><time>2026-03-31T09:58:17.999Z</time></trkpt><trkpt lat="38.97028434085595" lon="8.438784946100409"><ele>34.5</ele><time>2026-03-31T09:58:18.999Z</time></trkpt><trkpt lat="38.97034224508676" lon="8.438857051836372"><ele>34.0</ele><time>2026-03-31T09:58:19.999Z</time></trkpt><trkpt lat="38.97039620711739" lon="8.438934884063828"><ele>33.5</ele><time>2026-03-31T09:58:20.999Z</time></trkpt><trkpt lat="38.970453648221806" lon="8.439014032300548"><ele>33.0</ele><time>2026-03-31T09:58:21.999Z</time></trkpt><trkpt lat="38.97051091922093" lon="8.439094721669314"><ele>32.5</ele><time>2026-03-31T09:58:22.999Z</time></trkpt><trkpt lat="38.97056853958825" lon="8.439178012358035"><ele>32.0</ele><time>2026-03-31T09:58:23.999Z</time></trkpt><trkpt lat="38.970621299488414" lon="8.439265242841753"><ele>31.999999999999996</ele><time>2026-03-31T09:58:24.999Z</time></trkpt><trkpt lat="38.9706710413018" lon="8.439354935085841"><ele>32.0</ele><time>2026-03-31T09:58:25.999Z</time></trkpt><trkpt lat="38.97071874473477" lon="8.43943598894556"><ele>32.0</ele><time>2026-03-31T09:58:26.999Z</time></trkpt><trkpt lat="38.97080708128125" lon="8.439529306901049"><ele>32.0</ele><time>2026-03-31T09:58:28.999Z</time></trkpt><trkpt lat="38.97086512852004" lon="8.439560797589907"><ele>31.999999999999996</ele><time>2026-03-31T09:58:30.999Z</time></trkpt><trkpt lat="38.970923098762924" lon="8.43961112113051"><ele>32.0</ele><time>2026-03-31T09:58:35.999Z</time></trkpt><trkpt lat="38.97076268876559" lon="8.439869634901363"><ele>31.0</ele><time>2026-03-31T09:58:57.998Z</time></trkpt><trkpt lat="38.97068486589535" lon="8.439941887706324"><ele>30.000000000000004</ele><time>2026-03-31T09:58:59.999Z</time></trkpt><trkpt lat="38.97060709801733" lon="8.440030839663754"><ele>29.000000000000004</ele><time>2026-03-31T09:59:01.999Z</time></trkpt><trkpt lat="38.9705447730488" lon="8.440104061127922"><ele>28.0</ele><time>2026-03-31T09:59:03.999Z</time></trkpt><trkpt lat="38.97048830631914" lon="8.440174964454597"><ele>27.0</ele><time>2026-03-31T09:59:05.999Z</time></trkpt><trkpt lat="38.97041010402006" lon="8.440276481506269"><ele>27.0</ele><time>2026-03-31T09:59:07.999Z</time></trkpt><trkpt lat="38.97035575127763" lon="8.44037535619962"><ele>27.0</ele><time>2026-03-31T09:59:09.999Z</time></trkpt><trkpt lat="38.97030907911522" lon="8.44043389418516"><ele>27.0</ele><time>2026-03-31T09:59:10.999Z</time></trkpt><trkpt lat="38.970227582895895" lon="8.440532975651031"><ele>27.0</ele><time>2026-03-31T09:59:12.999Z</time></trkpt><trkpt lat="38.97017402784299" lon="8.440624388752386"><ele>27.0</ele><time>2026-03-31T09:59:14.999Z</time></trkpt><trkpt lat="38.97010725172" lon="8.440679919783065"><ele>27.0</ele><time>2026-03-31T09:59:16.999Z</time></trkpt><trkpt lat="38.97004673497534" lon="8.440729404365767"><ele>25.57142857142857</ele><time>2026-03-31T09:59:18.999Z</time></trkpt><trkpt lat="38.96999428371742" lon="8.440790200447687"><ele>24.142857142857142</ele><time>2026-03-31T09:59:20.999Z</time></trkpt><trkpt lat="38.96994793170995" lon="8.44086213128317"><ele>22.714285714285715</ele><time>2026-03-31T09:59:23.999Z</time></trkpt><trkpt lat="38.96988642354634" lon="8.440921759074326"><ele>21.285714285714285</ele><time>2026-03-31T09:59:26.999Z</time></trkpt><trkpt lat="38.96985783664218" lon="8.441000076510278"><ele>19.857142857142858</ele><time>2026-03-31T09:59:28.999Z</time></trkpt><trkpt lat="38.96982406834614" lon="8.441105050326495"><ele>18.428571428571427</ele><time>2026-03-31T09:59:30.999Z</time></trkpt><trkpt lat="38.96980500852102" lon="8.441188278807548"><ele>17.0</ele><time>2026-03-31T09:59:32.999Z</time></trkpt><trkpt lat="38.969757297252706" lon="8.441302362984752"><ele>16.833333333333336</ele><time>2026-03-31T09:59:35.999Z</time></trkpt><trkpt lat="38.969745298870066" lon="8.441392276703777"><ele>16.666666666666668</ele><time>2026-03-31T09:59:38.999Z</time></trkpt><trkpt lat="38.96979992124484" lon="8.44144098913546"><ele>16.5</ele><time>2026-03-31T09:59:42.999Z</time></trkpt><trkpt lat="38.969888759154124" lon="8.441445202059658"><ele>16.333333333333332</ele><time>2026-03-31T09:59:43.999Z</time></trkpt><trkpt lat="38.969986594063435" lon="8.44142791980697"><ele>16.166666666666664</ele><time>2026-03-31T09:59:44.999Z</time></trkpt><trkpt lat="38.97008612263371" lon="8.441511643698975"><ele>16.0</ele><time>2026-03-31T09:59:46.999Z</time></trkpt><trkpt lat="38.970164045680356" lon="8.441578758754673"><ele>16.0</ele><time>2026-03-31T09:59:48.999Z</time></trkpt><trkpt lat="38.97023233006381" lon="8.441590213655104"><ele>16.0</ele><time>2026-03-31T09:59:50.999Z</time></trkpt><trkpt lat="38.97030455975877" lon="8.441580696156676"><ele>16.0</ele><time>2026-03-31T09:59:51.999Z</time></trkpt><trkpt lat="38.97040201234331" lon="8.441561183829622"><ele>16.0</ele><time>2026-03-31T09:59:52.999Z</time></trkpt><trkpt lat="38.970532231676756" lon="8.441538841627487"><ele>16.0</ele><time>2026-03-31T09:59:53.999Z</time></trkpt><trkpt lat="38.970669717997986" lon="8.441510353820918"><ele>16.0</ele><time>2026-03-31T09:59:54.999Z</time></trkpt><trkpt lat="38.970819514560475" lon="8.441506703284446"><ele>16.0</ele><time>2026-03-31T09:59:55.999Z</time></trkpt><trkpt lat="38.970972068148846" lon="8.441525992083456"><ele>16.0</ele><time>2026-03-31T09:59:56.999Z</time></trkpt><trkpt lat="38.97109069615765" lon="8.441545954901642"><ele>16.0</ele><time>2026-03-31T09:59:57.999Z</time></trkpt><trkpt lat="38.971191772914125" lon="8.44156775784467"><ele>15.8</ele><time>2026-03-31T09:59:58.999Z</time></trkpt><trkpt lat="38.97128262425759" lon="8.441581116596069"><ele>15.600000000000001</ele><time>2026-03-31T09:59:59.999Z</time></trkpt><trkpt lat="38.97137630089994" lon="8.441588581624206"><ele>15.4</ele><time>2026-03-31T10:00:00.999Z</time></trkpt><trkpt lat="38.9714718831492" lon="8.441586280999799"><ele>15.2</ele><time>2026-03-31T10:00:01.999Z</time></trkpt><trkpt lat="38.97155914589752" lon="8.441583071281922"><ele>15.0</ele><time>2026-03-31T10:00:02.999Z</time></trkpt><trkpt lat="38.97165175092066" lon="8.441581413587606"><ele>14.666666666666666</ele><time>2026-03-31T10:00:03.999Z</time></trkpt><trkpt lat="38.97173384043702" lon="8.441560660830023"><ele>14.333333333333332</ele><time>2026-03-31T10:00:04.999Z</time></trkpt><trkpt lat="38.97180165261935" lon="8.441524629396405"><ele>14.0</ele><time>2026-03-31T10:00:05.999Z</time></trkpt><trkpt lat="38.971885092538834" lon="8.441447489090429"><ele>13.666666666666666</ele><time>2026-03-31T10:00:07.999Z</time></trkpt><trkpt lat="38.97195293921265" lon="8.441398872361527"><ele>13.333333333333332</ele><time>2026-03-31T10:00:08.999Z</time></trkpt><trkpt lat="38.972019869563084" lon="8.441333951195302"><ele>13.0</ele><time>2026-03-31T10:00:09.999Z</time></trkpt><trkpt lat="38.97207474023657" lon="8.441281617675486"><ele>14.4</ele><time>2026-03-31T10:00:10.999Z</time></trkpt><trkpt lat="38.97212611614297" lon="8.441232617322573"><ele>15.8</ele><time>2026-03-31T10:00:11.999Z</time></trkpt><trkpt lat="38.972192752669784" lon="8.441173708219491"><ele>17.2</ele><time>2026-03-31T10:00:12.999Z</time></trkpt><trkpt lat="38.97227907257577" lon="8.441118845364453"><ele>18.6</ele><time>2026-03-31T10:00:13.999Z</time></trkpt><trkpt lat="38.97237531910307" lon="8.44107149075403"><ele>20.0</ele><time>2026-03-31T10:00:14.999Z</time></trkpt><trkpt lat="38.972476608259896" lon="8.440992772243211"><ele>19.6</ele><time>2026-03-31T10:00:15.999Z</time></trkpt><trkpt lat="38.9725835691718" lon="8.44094917969477"><ele>19.2</ele><time>2026-03-31T10:00:17Z</time></trkpt><trkpt lat="38.97269347085848" lon="8.44089414469637"><ele>18.8</ele><time>2026-03-31T10:00:18Z</time></trkpt><trkpt lat="38.97279625312454" lon="8.440842331575181"><ele>18.4</ele><time>2026-03-31T10:00:19Z</time></trkpt><trkpt lat="38.972882434527335" lon="8.440803508047724"><ele>18.0</ele><time>2026-03-31T10:00:20Z</time></trkpt><trkpt lat="38.97294730443286" lon="8.440773557920625"><ele>18.0</ele><time>2026-03-31T10:00:21Z</time></trkpt><trkpt lat="38.97300643954632" lon="8.440729688419472"><ele>18.0</ele><time>2026-03-31T10:00:24Z</time></trkpt><trkpt lat="38.9729310472716" lon="8.440610876388918"><ele>18.0</ele><time>2026-03-31T10:00:26Z</time></trkpt><trkpt lat="38.97286017059586" lon="8.440605407300872"><ele>18.0</ele><time>2026-03-31T10:00:27Z</time></trkpt><trkpt lat="38.972755687479044" lon="8.440600552917418"><ele>18.0</ele><time>2026-03-31T10:00:28Z</time></trkpt><trkpt lat="38.97263452272266" lon="8.440554310353589"><ele>18.666666666666668</ele><time>2026-03-31T10:00:29Z</time></trkpt><trkpt lat="38.9724992222948" lon="8.440508925273445"><ele>19.333333333333336</ele><time>2026-03-31T10:00:30Z</time></trkpt><trkpt lat="38.972351978872425" lon="8.44045799028222"><ele>20.0</ele><time>2026-03-31T10:00:31Z</time></trkpt><trkpt lat="38.972205048868204" lon="8.440367991698153"><ele>23.333333333333336</ele><time>2026-03-31T10:00:32Z</time></trkpt><trkpt lat="38.97203747156198" lon="8.440258807717532"><ele>26.666666666666668</ele><time>2026-03-31T10:00:33Z</time></trkpt><trkpt lat="38.97187764184255" lon="8.440143155082646"><ele>30.0</ele><time>2026-03-31T10:00:34Z</time></trkpt><trkpt lat="38.97172586510571" lon="8.440006948609792"><ele>29.0</ele><time>2026-03-31T10:00:35Z</time></trkpt><trkpt lat="38.971584560146454" lon="8.43988339283121"><ele>28.0</ele><time>2026-03-31T10:00:36Z</time></trkpt><trkpt lat="38.971444082169086" lon="8.439800004841096"><ele>27.0</ele><time>2026-03-31T10:00:37Z</time></trkpt><trkpt lat="38.97128523371076" lon="8.43974101158525"><ele>27.0</ele><time>2026-03-31T10:00:38Z</time></trkpt><trkpt lat="38.971142794622224" lon="8.43967619717814"><ele>27.000000000000004</ele><time>2026-03-31T10:00:39Z</time></trkpt><trkpt lat="38.971028107501745" lon="8.439624877536936"><ele>27.000000000000004</ele><time>2026-03-31T10:00:40Z</time></trkpt><trkpt lat="38.97096410752041" lon="8.439592837692528"><ele>27.0</ele><time>2026-03-31T10:00:41Z</time></trkpt><trkpt lat="38.9709003592827" lon="8.439584881591976"><ele>27.0</ele><time>2026-03-31T10:02:17Z</time></trkpt><trkpt lat="38.97075999027997" lon="8.439898564178158"><ele>27.0</ele><time>2026-03-31T10:02:19Z</time></trkpt><trkpt lat="38.97068426661552" lon="8.439968012873038"><ele>27.000000000000004</ele><time>2026-03-31T10:02:21Z</time></trkpt><trkpt lat="38.9706125047531" lon="8.44005917899507"><ele>27.000000000000004</ele><time>2026-03-31T10:02:23Z</time></trkpt><trkpt lat="38.97055390813374" lon="8.440131145725795"><ele>27.0</ele><time>2026-03-31T10:02:25Z</time></trkpt><trkpt lat="38.97049816200975" lon="8.440197409845792"><ele>27.0</ele><time>2026-03-31T10:02:27Z</time></trkpt><trkpt lat="38.97041344742651" lon="8.44030053338132"><ele>27.0</ele><time>2026-03-31T10:02:29Z</time></trkpt><trkpt lat="38.970345614669434" lon="8.440395908260488"><ele>27.0</ele><time>2026-03-31T10:02:31Z</time></trkpt><trkpt lat="38.970266937487054" lon="8.440500262732105"><ele>27.0</ele><time>2026-03-31T10:02:33Z</time></trkpt><trkpt lat="38.9702192516761" lon="8.440558529211192"><ele>27.0</ele><time>2026-03-31T10:02:34Z</time></trkpt><trkpt lat="38.970179587916434" lon="8.440624377095709"><ele>27.0</ele><time>2026-03-31T10:02:35Z</time></trkpt><trkpt lat="38.97011178570625" lon="8.440686277359452"><ele>27.0</ele><time>2026-03-31T10:02:37Z</time></trkpt><trkpt lat="38.97003401502063" lon="8.440750050805544"><ele>25.0</ele><time>2026-03-31T10:02:39Z</time></trkpt><trkpt lat="38.96996788298413" lon="8.440838244363697"><ele>23.000000000000004</ele><time>2026-03-31T10:02:42Z</time></trkpt><trkpt lat="38.96989923043479" lon="8.440910949514727"><ele>21.0</ele><time>2026-03-31T10:02:45Z</time></trkpt><trkpt lat="38.969865231542414" lon="8.440986884401608"><ele>19.0</ele><time>2026-03-31T10:02:47Z</time></trkpt><trkpt lat="38.96983758341007" lon="8.44110043858041"><ele>17.0</ele><time>2026-03-31T10:02:49Z</time></trkpt><trkpt lat="38.96979351079337" lon="8.441225877456455"><ele>16.5</ele><time>2026-03-31T10:02:51Z</time></trkpt><trkpt lat="38.96974877878958" lon="8.441328991596045"><ele>16.0</ele><time>2026-03-31T10:02:53Z</time></trkpt><trkpt lat="38.96971366254073" lon="8.441405871471126"><ele>15.5</ele><time>2026-03-31T10:02:56Z</time></trkpt><trkpt lat="38.96962472341515" lon="8.441435604196206"><ele>15.0</ele><time>2026-03-31T10:02:59Z</time></trkpt><trkpt lat="38.96954226248598" lon="8.441470578036135"><ele>14.500000000000002</ele><time>2026-03-31T10:03:01Z</time></trkpt><trkpt lat="38.969478686750875" lon="8.441525493320107"><ele>14.0</ele><time>2026-03-31T10:03:03Z</time></trkpt><trkpt lat="38.96941143053138" lon="8.441557903362966"><ele>14.0</ele><time>2026-03-31T10:03:05Z</time></trkpt><trkpt lat="38.96934358532263" lon="8.441562602071144"><ele>13.999999999999998</ele><time>2026-03-31T10:03:56Z</time></trkpt><trkpt lat="38.96931485450793" lon="8.441667717591812"><ele>13.999999999999998</ele><time>2026-03-31T10:03:59Z</time></trkpt><trkpt lat="38.96922402421237" lon="8.441713412709982"><ele>14.0</ele><time>2026-03-31T10:04:02Z</time></trkpt><trkpt lat="38.969136010918454" lon="8.441771892347981"><ele>14.0</ele><time>2026-03-31T10:04:04Z</time></trkpt><trkpt lat="38.96904268721473" lon="8.44184806647479"><ele>14.2</ele><time>2026-03-31T10:04:06Z</time></trkpt><trkpt lat="38.9689287112863" lon="8.44185462187668"><ele>14.399999999999999</ele><time>2026-03-31T10:04:08Z</time></trkpt><trkpt lat="38.96881650820374" lon="8.441886403721185"><ele>14.6</ele><time>2026-03-31T10:04:10Z</time></trkpt><trkpt lat="38.96874988915832" lon="8.441960790424561"><ele>14.8</ele><time>2026-03-31T10:04:12Z</time></trkpt><trkpt lat="38.96870577335189" lon="8.442056456740696"><ele>15.0</ele><time>2026-03-31T10:04:15Z</time></trkpt><trkpt lat="38.96875187446653" lon="8.441974896130606"><ele>15.0</ele><time>2026-03-31T10:04:56.001Z</time></trkpt><trkpt lat="38.96884479421015" lon="8.441880250601296"><ele>15.0</ele><time>2026-03-31T10:04:59.001Z</time></trkpt><trkpt lat="38.968952956198905" lon="8.44183771905706"><ele>15.0</ele><time>2026-03-31T10:05:01.001Z</time></trkpt><trkpt lat="38.96902213209508" lon="8.441833745387143"><ele>15.0</ele><time>2026-03-31T10:05:02.001Z</time></trkpt><trkpt lat="38.96909640473683" lon="8.441805760003191"><ele>15.0</ele><time>2026-03-31T10:05:03.001Z</time></trkpt><trkpt lat="38.96916394642263" lon="8.441760874871802"><ele>14.8</ele><time>2026-03-31T10:05:04.001Z</time></trkpt><trkpt lat="38.969229762788665" lon="8.441691833619533"><ele>14.6</ele><time>2026-03-31T10:05:06.001Z</time></trkpt><trkpt lat="38.969300084108305" lon="8.441696143736625"><ele>14.399999999999999</ele><time>2026-03-31T10:05:11.001Z</time></trkpt><trkpt lat="38.96932110118773" lon="8.441821416377717"><ele>14.2</ele><time>2026-03-31T10:05:17.001Z</time></trkpt><trkpt lat="38.969319113043596" lon="8.441930442331387"><ele>14.0</ele><time>2026-03-31T10:05:18.001Z</time></trkpt><trkpt lat="38.96932724193682" lon="8.442083269686922"><ele>13.399999999999999</ele><time>2026-03-31T10:05:19Z</time></trkpt><trkpt lat="38.96933773605901" lon="8.442233399425044"><ele>12.799999999999999</ele><time>2026-03-31T10:05:20Z</time></trkpt><trkpt lat="38.96933768592767" lon="8.442370412222536"><ele>12.2</ele><time>2026-03-31T10:05:21Z</time></trkpt><trkpt lat="38.96934001974103" lon="8.442493636858591"><ele>11.600000000000001</ele><time>2026-03-31T10:05:22Z</time></trkpt><trkpt lat="38.9693481838576" lon="8.442604563105975"><ele>11.0</ele><time>2026-03-31T10:05:23Z</time></trkpt><trkpt lat="38.96935149426879" lon="8.442713680796887"><ele>11.0</ele><time>2026-03-31T10:05:24Z</time></trkpt><trkpt lat="38.96935022767052" lon="8.442817492503984"><ele>11.0</ele><time>2026-03-31T10:05:25Z</time></trkpt><trkpt lat="38.96934604414726" lon="8.442907461667136"><ele>11.0</ele><time>2026-03-31T10:05:26Z</time></trkpt><trkpt lat="38.969341112231625" lon="8.442989146245731"><ele>11.0</ele><time>2026-03-31T10:05:27Z</time></trkpt><trkpt lat="38.9693036761239" lon="8.443131792374135"><ele>11.0</ele><time>2026-03-31T10:05:29Z</time></trkpt><trkpt lat="38.969292649811806" lon="8.443235265513236"><ele>11.0</ele><time>2026-03-31T10:05:31Z</time></trkpt><trkpt lat="38.96937986681867" lon="8.443318561543318"><ele>10.166666666666666</ele><time>2026-03-31T10:05:33Z</time></trkpt><trkpt lat="38.969486042053475" lon="8.443402010502128"><ele>9.333333333333332</ele><time>2026-03-31T10:05:35Z</time></trkpt><trkpt lat="38.96954760437598" lon="8.443461057413394"><ele>8.5</ele><time>2026-03-31T10:05:36Z</time></trkpt><trkpt lat="38.96959511636007" lon="8.443538321249566"><ele>7.666666666666666</ele><time>2026-03-31T10:05:37Z</time></trkpt><trkpt lat="38.969629029306944" lon="8.443626477876956"><ele>6.833333333333333</ele><time>2026-03-31T10:05:38Z</time></trkpt><trkpt lat="38.96964928129329" lon="8.44371046642954"><ele>6.0</ele><time>2026-03-31T10:05:39Z</time></trkpt><trkpt lat="38.96968295521832" lon="8.443784201364634"><ele>5.428571428571428</ele><time>2026-03-31T10:05:40Z</time></trkpt><trkpt lat="38.969718350170034" lon="8.443855568016241"><ele>4.857142857142857</ele><time>2026-03-31T10:05:41Z</time></trkpt><trkpt lat="38.969758597235334" lon="8.443927734360633"><ele>4.285714285714286</ele><time>2026-03-31T10:05:42Z</time></trkpt><trkpt lat="38.96979887453088" lon="8.443990796721042"><ele>3.714285714285714</ele><time>2026-03-31T10:05:43Z</time></trkpt><trkpt lat="38.96986809070329" lon="8.444099158479467"><ele>3.1428571428571423</ele><time>2026-03-31T10:05:45Z</time></trkpt><trkpt lat="38.96991862520097" lon="8.444160726110425"><ele>2.571428571428571</ele><time>2026-03-31T10:05:47Z</time></trkpt><trkpt lat="38.969983643334146" lon="8.444199167654983"><ele>2.0</ele><time>2026-03-31T10:05:50Z</time></trkpt><trkpt lat="38.97001979962048" lon="8.444116818295365"><ele>2.0</ele><time>2026-03-31T10:05:53Z</time></trkpt><trkpt lat="38.9699822351549" lon="8.444049689874142"><ele>2.0</ele><time>2026-03-31T10:05:55Z</time></trkpt><trkpt lat="38.96989398633008" lon="8.444079362994664"><ele>2.0</ele><time>2026-03-31T10:06:26.001Z</time></trkpt><trkpt lat="38.96981519378004" lon="8.444016125243099"><ele>2.0</ele><time>2026-03-31T10:06:29.001Z</time></trkpt><trkpt lat="38.9697682839548" lon="8.443924013872197"><ele>2.0</ele><time>2026-03-31T10:06:32.001Z</time></trkpt><trkpt lat="38.969684838656036" lon="8.443813898114005"><ele>2.8</ele><time>2026-03-31T10:06:34.001Z</time></trkpt><trkpt lat="38.96963819656459" lon="8.443710407567886"><ele>3.6</ele><time>2026-03-31T10:06:35.001Z</time></trkpt><trkpt lat="38.96957651425363" lon="8.443553527494979"><ele>4.3999999999999995</ele><time>2026-03-31T10:06:36.001Z</time></trkpt><trkpt lat="38.969513924353905" lon="8.443443894562773"><ele>5.2</ele><time>2026-03-31T10:06:37.001Z</time></trkpt><trkpt lat="38.96946359756794" lon="8.443368388786624"><ele>6.0</ele><time>2026-03-31T10:06:38.001Z</time></trkpt><trkpt lat="38.969415889028426" lon="8.443315394605907"><ele>6.0</ele><time>2026-03-31T10:06:39.001Z</time></trkpt><trkpt lat="38.969339686581264" lon="8.44327218074769"><ele>6.0</ele><time>2026-03-31T10:06:41.001Z</time></trkpt><trkpt lat="38.969311393290894" lon="8.44316738937639"><ele>6.0</ele><time>2026-03-31T10:06:45.001Z</time></trkpt><trkpt lat="38.96930026772395" lon="8.443081262861295"><ele>6.0</ele><time>2026-03-31T10:06:47.001Z</time></trkpt><trkpt lat="38.96931865272985" lon="8.442998339161665"><ele>6.0</ele><time>2026-03-31T10:06:49.001Z</time></trkpt><trkpt lat="38.96933265156104" lon="8.44290724890012"><ele>6.0</ele><time>2026-03-31T10:06:51.001Z</time></trkpt><trkpt lat="38.96934085540339" lon="8.44279765608414"><ele>7.0</ele><time>2026-03-31T10:06:53.001Z</time></trkpt><trkpt lat="38.96933454613504" lon="8.442656545113763"><ele>8.0</ele><time>2026-03-31T10:06:55.001Z</time></trkpt><trkpt lat="38.96932928994776" lon="8.442501858638753"><ele>9.0</ele><time>2026-03-31T10:06:57.001Z</time></trkpt><trkpt lat="38.96931983915966" lon="8.442364658722514"><ele>10.0</ele><time>2026-03-31T10:06:59.001Z</time></trkpt><trkpt lat="38.969318139064455" lon="8.442226596642584"><ele>11.0</ele><time>2026-03-31T10:07:01.001Z</time></trkpt><trkpt lat="38.969314695762996" lon="8.442085236243809"><ele>11.5</ele><time>2026-03-31T10:07:03.001Z</time></trkpt><trkpt lat="38.969313073700114" lon="8.441936672630233"><ele>12.0</ele><time>2026-03-31T10:07:05.001Z</time></trkpt><trkpt lat="38.969305672873844" lon="8.441851729261684"><ele>12.5</ele><time>2026-03-31T10:07:06.001Z</time></trkpt><trkpt lat="38.969297756277705" lon="8.441768629892415"><ele>13.0</ele><time>2026-03-31T10:07:07.001Z</time></trkpt><trkpt lat="38.96930097255128" lon="8.441659119541123"><ele>13.500000000000002</ele><time>2026-03-31T10:07:09.001Z</time></trkpt><trkpt lat="38.969357096953374" lon="8.441576123329552"><ele>14.0</ele><time>2026-03-31T10:07:11.001Z</time></trkpt><trkpt lat="38.969435651094436" lon="8.441527122368335"><ele>14.0</ele><time>2026-03-31T10:07:13.001Z</time></trkpt><trkpt lat="38.96957091778237" lon="8.441460488196206"><ele>13.999999999999998</ele><time>2026-03-31T10:10:00Z</time></trkpt><trkpt lat="38.96966479075671" lon="8.44141342759371"><ele>13.999999999999998</ele><time>2026-03-31T10:10:01Z</time></trkpt><trkpt lat="38.96973180906608" lon="8.441380088831343"><ele>14.0</ele><time>2026-03-31T10:10:02Z</time></trkpt><trkpt lat="38.96979593279357" lon="8.441408450794217"><ele>14.0</ele><time>2026-03-31T10:10:03Z</time></trkpt><trkpt lat="38.96990758401624" lon="8.44142363540186"><ele>14.0</ele><time>2026-03-31T10:10:04Z</time></trkpt><trkpt lat="38.97002221640269" lon="8.44147499945512"><ele>13.999999999999998</ele><time>2026-03-31T10:10:05Z</time></trkpt><trkpt lat="38.97009576769796" lon="8.441507941505714"><ele>13.999999999999998</ele><time>2026-03-31T10:10:06Z</time></trkpt><trkpt lat="38.97020544540802" lon="8.441545961270414"><ele>14.0</ele><time>2026-03-31T10:10:08Z</time></trkpt><trkpt lat="38.97031121254171" lon="8.441569007246452"><ele>14.0</ele><time>2026-03-31T10:10:10Z</time></trkpt><trkpt lat="38.97044073269056" lon="8.441539205220026"><ele>14.333333333333334</ele><time>2026-03-31T10:10:12Z</time></trkpt><trkpt lat="38.97057011796245" lon="8.441518248186643"><ele>14.666666666666668</ele><time>2026-03-31T10:10:13Z</time></trkpt><trkpt lat="38.970751102858394" lon="8.441502738457274"><ele>15.0</ele><time>2026-03-31T10:10:14Z</time></trkpt><trkpt lat="38.97093034860826" lon="8.441539353148029"><ele>15.0</ele><time>2026-03-31T10:10:15Z</time></trkpt><trkpt lat="38.971069359236" lon="8.441556447014849"><ele>15.0</ele><time>2026-03-31T10:10:16Z</time></trkpt><trkpt lat="38.97118287671054" lon="8.441548516111617"><ele>15.0</ele><time>2026-03-31T10:10:17Z</time></trkpt><trkpt lat="38.97128258617708" lon="8.441560199925265"><ele>15.0</ele><time>2026-03-31T10:10:18Z</time></trkpt><trkpt lat="38.97137675436838" lon="8.44156988176005"><ele>15.0</ele><time>2026-03-31T10:10:19Z</time></trkpt><trkpt lat="38.971463453774405" lon="8.441581705170364"><ele>15.0</ele><time>2026-03-31T10:10:20Z</time></trkpt><trkpt lat="38.97154297368401" lon="8.441584787998275"><ele>15.0</ele><time>2026-03-31T10:10:21Z</time></trkpt><trkpt lat="38.97162127408397" lon="8.441581478040527"><ele>15.0</ele><time>2026-03-31T10:10:22Z</time></trkpt><trkpt lat="38.97169564797257" lon="8.441565057802343"><ele>15.0</ele><time>2026-03-31T10:10:23Z</time></trkpt><trkpt lat="38.97176294875318" lon="8.441540227391629"><ele>15.0</ele><time>2026-03-31T10:10:24Z</time></trkpt><trkpt lat="38.97182764936643" lon="8.441506188846933"><ele>15.0</ele><time>2026-03-31T10:10:25Z</time></trkpt><trkpt lat="38.97188286288516" lon="8.441460406030977"><ele>15.0</ele><time>2026-03-31T10:10:26Z</time></trkpt><trkpt lat="38.97193436728403" lon="8.441408481374978"><ele>14.714285714285715</ele><time>2026-03-31T10:10:27Z</time></trkpt><trkpt lat="38.97198528947616" lon="8.441350285931845"><ele>14.428571428571427</ele><time>2026-03-31T10:10:28Z</time></trkpt><trkpt lat="38.97204256482148" lon="8.441299313015476"><ele>14.142857142857142</ele><time>2026-03-31T10:10:29Z</time></trkpt><trkpt lat="38.97210122828275" lon="8.441249414463886"><ele>13.857142857142858</ele><time>2026-03-31T10:10:30Z</time></trkpt><trkpt lat="38.97215089019362" lon="8.441185671211601"><ele>13.571428571428573</ele><time>2026-03-31T10:10:31Z</time></trkpt><trkpt lat="38.972216437430475" lon="8.441157496610371"><ele>13.285714285714285</ele><time>2026-03-31T10:10:32Z</time></trkpt><trkpt lat="38.97227214716752" lon="8.441103154096764"><ele>13.0</ele><time>2026-03-31T10:10:33Z</time></trkpt><trkpt lat="38.972352764760856" lon="8.441083938622901"><ele>13.833333333333332</ele><time>2026-03-31T10:10:34Z</time></trkpt><trkpt lat="38.97242127634941" lon="8.441024264284554"><ele>14.666666666666666</ele><time>2026-03-31T10:10:35Z</time></trkpt><trkpt lat="38.97250387047693" lon="8.44099349404891"><ele>15.5</ele><time>2026-03-31T10:10:36Z</time></trkpt><trkpt lat="38.97257575480725" lon="8.440947562314754"><ele>16.333333333333332</ele><time>2026-03-31T10:10:37Z</time></trkpt><trkpt lat="38.972646110427476" lon="8.440908123721856"><ele>17.166666666666668</ele><time>2026-03-31T10:10:38Z</time></trkpt><trkpt lat="38.97272986815725" lon="8.440877368228286"><ele>18.0</ele><time>2026-03-31T10:10:39Z</time></trkpt><trkpt lat="38.97281256301276" lon="8.440842738343523"><ele>18.0</ele><time>2026-03-31T10:10:40Z</time></trkpt><trkpt lat="38.9728905597256" lon="8.440799409603724"><ele>18.0</ele><time>2026-03-31T10:10:41Z</time></trkpt><trkpt lat="38.97294964639506" lon="8.440761120016312"><ele>18.0</ele><time>2026-03-31T10:10:42Z</time></trkpt><trkpt lat="38.97301057295568" lon="8.44071320731543"><ele>18.0</ele><time>2026-03-31T10:10:44Z</time></trkpt><trkpt lat="38.97307484434771" lon="8.44069679202719"><ele>18.0</ele><time>2026-03-31T10:10:46Z</time></trkpt><trkpt lat="38.97316506654837" lon="8.440696131990197"><ele>18.0</ele><time>2026-03-31T10:10:48Z</time></trkpt><trkpt lat="38.973270288485665" lon="8.440666618934339"><ele>18.2</ele><time>2026-03-31T10:10:50Z</time></trkpt><trkpt lat="38.973375308206315" lon="8.44064793292244"><ele>18.4</ele><time>2026-03-31T10:10:52Z</time></trkpt><trkpt lat="38.97347683278783" lon="8.440634612072563"><ele>18.599999999999998</ele><time>2026-03-31T10:10:54Z</time></trkpt><trkpt lat="38.9736168607263" lon="8.44062739714251"><ele>18.8</ele><time>2026-03-31T10:10:56Z</time></trkpt><trkpt lat="38.97370900346804" lon="8.440617203855915"><ele>19.0</ele><time>2026-03-31T10:10:57Z</time></trkpt><trkpt lat="38.97381718824938" lon="8.440609702236381"><ele>19.0</ele><time>2026-03-31T10:10:58Z</time></trkpt><trkpt lat="38.97392393673816" lon="8.440608366427966"><ele>19.0</ele><time>2026-03-31T10:10:59Z</time></trkpt><trkpt lat="38.97403242657373" lon="8.440604645072193"><ele>19.0</ele><time>2026-03-31T10:11:00Z</time></trkpt><trkpt lat="38.974140893747425" lon="8.440613842538292"><ele>19.0</ele><time>2026-03-31T10:11:01Z</time></trkpt><trkpt lat="38.974252586919405" lon="8.44064052000039"><ele>19.0</ele><time>2026-03-31T10:11:02Z</time></trkpt><trkpt lat="38.974360916736714" lon="8.440675637231328"><ele>20.25</ele><time>2026-03-31T10:11:03Z</time></trkpt><trkpt lat="38.974470567904596" lon="8.440704949182361"><ele>21.5</ele><time>2026-03-31T10:11:04Z</time></trkpt><trkpt lat="38.97458319760115" lon="8.440708006368963"><ele>22.75</ele><time>2026-03-31T10:11:05Z</time></trkpt><trkpt lat="38.97469568123393" lon="8.44067638815118"><ele>24.0</ele><time>2026-03-31T10:11:06Z</time></trkpt><trkpt lat="38.974816465742165" lon="8.440640812466421"><ele>24.0</ele><time>2026-03-31T10:11:07Z</time></trkpt><trkpt lat="38.974939070390974" lon="8.440629456455092"><ele>24.0</ele><time>2026-03-31T10:11:08Z</time></trkpt><trkpt lat="38.97505530088663" lon="8.440627754991487"><ele>24.0</ele><time>2026-03-31T10:11:09Z</time></trkpt><trkpt lat="38.975166879419284" lon="8.440603652162878"><ele>24.0</ele><time>2026-03-31T10:11:10Z</time></trkpt><trkpt lat="38.97527668609792" lon="8.440589478030526"><ele>25.5</ele><time>2026-03-31T10:11:11Z</time></trkpt><trkpt lat="38.97539071929043" lon="8.440613585577943"><ele>27.0</ele><time>2026-03-31T10:11:12Z</time></trkpt><trkpt lat="38.97549671935682" lon="8.440697826843877"><ele>28.5</ele><time>2026-03-31T10:11:13Z</time></trkpt><trkpt lat="38.97561667540854" lon="8.440744868925297"><ele>30.0</ele><time>2026-03-31T10:11:14Z</time></trkpt><trkpt lat="38.975729362075235" lon="8.440803870105093"><ele>30.0</ele><time>2026-03-31T10:11:15Z</time></trkpt><trkpt lat="38.975841064460916" lon="8.44085081622217"><ele>30.0</ele><time>2026-03-31T10:11:16Z</time></trkpt><trkpt lat="38.97595489821276" lon="8.440885722530332"><ele>30.0</ele><time>2026-03-31T10:11:17Z</time></trkpt><trkpt lat="38.97607307489814" lon="8.44091421227459"><ele>30.0</ele><time>2026-03-31T10:11:18Z</time></trkpt><trkpt lat="38.97619755220652" lon="8.440938612021016"><ele>29.4</ele><time>2026-03-31T10:11:19Z</time></trkpt><trkpt lat="38.97631241127221" lon="8.4409547362416"><ele>28.8</ele><time>2026-03-31T10:11:20Z</time></trkpt><trkpt lat="38.97641501211724" lon="8.440959502765882"><ele>28.200000000000003</ele><time>2026-03-31T10:11:21Z</time></trkpt><trkpt lat="38.976505180321944" lon="8.44093415881583"><ele>27.6</ele><time>2026-03-31T10:11:22Z</time></trkpt><trkpt lat="38.97658653342658" lon="8.440880939890166"><ele>27.0</ele><time>2026-03-31T10:11:23Z</time></trkpt><trkpt lat="38.97665533076119" lon="8.440802042100316"><ele>24.0</ele><time>2026-03-31T10:11:24Z</time></trkpt><trkpt lat="38.97674100074637" lon="8.440750637053727"><ele>21.000000000000004</ele><time>2026-03-31T10:11:25Z</time></trkpt><trkpt lat="38.97681933552012" lon="8.440703564507169"><ele>18.0</ele><time>2026-03-31T10:11:26Z</time></trkpt><trkpt lat="38.976910538470875" lon="8.440664989990582"><ele>15.0</ele><time>2026-03-31T10:11:27Z</time></trkpt><trkpt lat="38.97701374456702" lon="8.44065980197542"><ele>12.0</ele><time>2026-03-31T10:11:28Z</time></trkpt><trkpt lat="38.97712451229403" lon="8.44064177905804"><ele>12.0</ele><time>2026-03-31T10:11:29Z</time></trkpt><trkpt lat="38.9772319923078" lon="8.440606539868694"><ele>12.0</ele><time>2026-03-31T10:11:30Z</time></trkpt><trkpt lat="38.97733383939915" lon="8.44053068846016"><ele>12.0</ele><time>2026-03-31T10:11:31Z</time></trkpt><trkpt lat="38.977418986493475" lon="8.440428273233476"><ele>12.0</ele><time>2026-03-31T10:11:32Z</time></trkpt><trkpt lat="38.97750481001926" lon="8.440335173030487"><ele>12.75</ele><time>2026-03-31T10:11:33Z</time></trkpt><trkpt lat="38.977611117473224" lon="8.440282381239118"><ele>13.5</ele><time>2026-03-31T10:11:34Z</time></trkpt><trkpt lat="38.97771377534994" lon="8.44022086567327"><ele>14.25</ele><time>2026-03-31T10:11:35Z</time></trkpt><trkpt lat="38.9778237672404" lon="8.440189224245467"><ele>15.0</ele><time>2026-03-31T10:11:36Z</time></trkpt><trkpt lat="38.97793660751854" lon="8.44016179740884"><ele>15.0</ele><time>2026-03-31T10:11:37Z</time></trkpt><trkpt lat="38.97804750070664" lon="8.440160557791076"><ele>15.0</ele><time>2026-03-31T10:11:38Z</time></trkpt><trkpt lat="38.97814899519938" lon="8.440139322658018"><ele>15.0</ele><time>2026-03-31T10:11:39Z</time></trkpt><trkpt lat="38.978241495909174" lon="8.440094092781964"><ele>15.0</ele><time>2026-03-31T10:11:40Z</time></trkpt><trkpt lat="38.97831475354967" lon="8.440032761767743"><ele>15.0</ele><time>2026-03-31T10:11:41Z</time></trkpt><trkpt lat="38.97836765536688" lon="8.439953042713794"><ele>16.333333333333332</ele><time>2026-03-31T10:11:42Z</time></trkpt><trkpt lat="38.9784093027099" lon="8.439853480252841"><ele>17.666666666666668</ele><time>2026-03-31T10:11:43Z</time></trkpt><trkpt lat="38.97843771003858" lon="8.43974466260878"><ele>19.0</ele><time>2026-03-31T10:11:44Z</time></trkpt><trkpt lat="38.978449800335156" lon="8.439640538362621"><ele>20.333333333333336</ele><time>2026-03-31T10:11:45Z</time></trkpt><trkpt lat="38.97845775493175" lon="8.439547980056329"><ele>21.666666666666668</ele><time>2026-03-31T10:11:46Z</time></trkpt><trkpt lat="38.97853176303465" lon="8.439450912863602"><ele>23.0</ele><time>2026-03-31T10:11:48Z</time></trkpt><trkpt lat="38.978628503333944" lon="8.439526063232561"><ele>23.0</ele><time>2026-03-31T10:11:50Z</time></trkpt><trkpt lat="38.978671395357814" lon="8.439602342580102"><ele>23.0</ele><time>2026-03-31T10:11:51Z</time></trkpt><trkpt lat="38.97871048564695" lon="8.439701574702076"><ele>23.0</ele><time>2026-03-31T10:11:52Z</time></trkpt><trkpt lat="38.97873329980673" lon="8.439810321573"><ele>23.0</ele><time>2026-03-31T10:11:53Z</time></trkpt><trkpt lat="38.97875282813767" lon="8.439930238520839"><ele>23.0</ele><time>2026-03-31T10:11:54Z</time></trkpt><trkpt lat="38.978782227746166" lon="8.440038555905769"><ele>23.0</ele><time>2026-03-31T10:11:55Z</time></trkpt><trkpt lat="38.978829452256214" lon="8.440135191377419"><ele>23.0</ele><time>2026-03-31T10:11:56Z</time></trkpt><trkpt lat="38.97889420416078" lon="8.44021882294384"><ele>23.0</ele><time>2026-03-31T10:11:57Z</time></trkpt><trkpt lat="38.978976194701254" lon="8.44027670584008"><ele>23.0</ele><time>2026-03-31T10:11:58Z</time></trkpt><trkpt lat="38.97906917295839" lon="8.440308813452978"><ele>23.0</ele><time>2026-03-31T10:11:59Z</time></trkpt><trkpt lat="38.97916832151116" lon="8.440324572506858"><ele>23.0</ele><time>2026-03-31T10:12:00Z</time></trkpt><trkpt lat="38.97926565774581" lon="8.44034789545287"><ele>23.799999999999997</ele><time>2026-03-31T10:12:01Z</time></trkpt><trkpt lat="38.97936512692251" lon="8.440386494328797"><ele>24.6</ele><time>2026-03-31T10:12:02Z</time></trkpt><trkpt lat="38.97946435216144" lon="8.440436911123808"><ele>25.400000000000002</ele><time>2026-03-31T10:12:03Z</time></trkpt><trkpt lat="38.97956424327332" lon="8.440484574581621"><ele>26.200000000000003</ele><time>2026-03-31T10:12:04Z</time></trkpt><trkpt lat="38.97966584350636" lon="8.440527046386645"><ele>27.0</ele><time>2026-03-31T10:12:05Z</time></trkpt><trkpt lat="38.979763720017175" lon="8.440560142055697"><ele>25.400000000000002</ele><time>2026-03-31T10:12:06Z</time></trkpt><trkpt lat="38.97985837347697" lon="8.440586547229314"><ele>23.800000000000004</ele><time>2026-03-31T10:12:07Z</time></trkpt><trkpt lat="38.979952361394254" lon="8.440612119428833"><ele>22.2</ele><time>2026-03-31T10:12:08Z</time></trkpt><trkpt lat="38.98005162866463" lon="8.440625203406572"><ele>20.6</ele><time>2026-03-31T10:12:09Z</time></trkpt><trkpt lat="38.980155292670275" lon="8.440623250000039"><ele>19.0</ele><time>2026-03-31T10:12:10Z</time></trkpt><trkpt lat="38.98025723298803" lon="8.440615375885228"><ele>19.0</ele><time>2026-03-31T10:12:11Z</time></trkpt><trkpt lat="38.980357542299" lon="8.440625043708371"><ele>19.0</ele><time>2026-03-31T10:12:12Z</time></trkpt><trkpt lat="38.98045035954839" lon="8.44067034447149"><ele>19.0</ele><time>2026-03-31T10:12:13Z</time></trkpt><trkpt lat="38.980526874209396" lon="8.44075227601614"><ele>19.0</ele><time>2026-03-31T10:12:14Z</time></trkpt><trkpt lat="38.980595342881244" lon="8.44084851040368"><ele>19.0</ele><time>2026-03-31T10:12:15Z</time></trkpt><trkpt lat="38.98065339450926" lon="8.440960650727675"><ele>19.0</ele><time>2026-03-31T10:12:16Z</time></trkpt><trkpt lat="38.980700566754244" lon="8.44108543096355"><ele>19.0</ele><time>2026-03-31T10:12:17Z</time></trkpt><trkpt lat="38.98074645025413" lon="8.441212667475883"><ele>19.0</ele><time>2026-03-31T10:12:18Z</time></trkpt><trkpt lat="38.98079676935213" lon="8.441338712275252"><ele>19.0</ele><time>2026-03-31T10:12:19Z</time></trkpt><trkpt lat="38.98084240585023" lon="8.441461599278147"><ele>19.0</ele><time>2026-03-31T10:12:20Z</time></trkpt><trkpt lat="38.98087563140101" lon="8.441564035166433"><ele>17.8</ele><time>2026-03-31T10:12:21Z</time></trkpt><trkpt lat="38.98089924048206" lon="8.441649474012113"><ele>16.599999999999998</ele><time>2026-03-31T10:12:22Z</time></trkpt><trkpt lat="38.98094019519183" lon="8.44178147760519"><ele>15.4</ele><time>2026-03-31T10:12:24Z</time></trkpt><trkpt lat="38.98097178346406" lon="8.441921528602164"><ele>14.2</ele><time>2026-03-31T10:12:26Z</time></trkpt><trkpt lat="38.98101039513383" lon="8.442005497891785"><ele>13.0</ele><time>2026-03-31T10:12:27Z</time></trkpt><trkpt lat="38.98104112629196" lon="8.4421020901625"><ele>12.0</ele><time>2026-03-31T10:12:28Z</time></trkpt><trkpt lat="38.98109553924521" lon="8.442197486361994"><ele>11.0</ele><time>2026-03-31T10:12:29Z</time></trkpt><trkpt lat="38.9811611177586" lon="8.442278467331226"><ele>10.0</ele><time>2026-03-31T10:12:30Z</time></trkpt><trkpt lat="38.98124343395785" lon="8.442339646923731"><ele>9.0</ele><time>2026-03-31T10:12:31Z</time></trkpt><trkpt lat="38.98132654596612" lon="8.442384247332184"><ele>8.0</ele><time>2026-03-31T10:12:32Z</time></trkpt><trkpt lat="38.981410803078795" lon="8.44242262022112"><ele>8.0</ele><time>2026-03-31T10:12:33Z</time></trkpt><trkpt lat="38.98149455414409" lon="8.442467321736919"><ele>8.0</ele><time>2026-03-31T10:12:34Z</time></trkpt><trkpt lat="38.98158444496442" lon="8.442516222978034"><ele>8.0</ele><time>2026-03-31T10:12:35Z</time></trkpt><trkpt lat="38.98168420013587" lon="8.442548390639326"><ele>8.0</ele><time>2026-03-31T10:12:36Z</time></trkpt><trkpt lat="38.98178376065952" lon="8.442558563907113"><ele>8.0</ele><time>2026-03-31T10:12:37Z</time></trkpt><trkpt lat="38.98188238747739" lon="8.442554713790273"><ele>7.4</ele><time>2026-03-31T10:12:38Z</time></trkpt><trkpt lat="38.981985383246105" lon="8.442539329071497"><ele>6.800000000000001</ele><time>2026-03-31T10:12:39Z</time></trkpt><trkpt lat="38.98208299886486" lon="8.442521299366947"><ele>6.2</ele><time>2026-03-31T10:12:40Z</time></trkpt><trkpt lat="38.98217910319533" lon="8.442500303877903"><ele>5.6</ele><time>2026-03-31T10:12:41Z</time></trkpt><trkpt lat="38.98227683707256" lon="8.442479351137527"><ele>5.0</ele><time>2026-03-31T10:12:42Z</time></trkpt><trkpt lat="38.98237479414095" lon="8.442452062912585"><ele>5.0</ele><time>2026-03-31T10:12:43Z</time></trkpt><trkpt lat="38.98247316373669" lon="8.442412181641975"><ele>5.0</ele><time>2026-03-31T10:12:44Z</time></trkpt><trkpt lat="38.982576513846446" lon="8.442376945117074"><ele>5.0</ele><time>2026-03-31T10:12:45Z</time></trkpt><trkpt lat="38.98267553390107" lon="8.442317526829065"><ele>5.0</ele><time>2026-03-31T10:12:46Z</time></trkpt><trkpt lat="38.98277243834237" lon="8.442249873823933"><ele>5.0</ele><time>2026-03-31T10:12:47Z</time></trkpt><trkpt lat="38.982864728495066" lon="8.442162252064941"><ele>5.25</ele><time>2026-03-31T10:12:48Z</time></trkpt><trkpt lat="38.98296522450641" lon="8.442088598202032"><ele>5.5</ele><time>2026-03-31T10:12:49Z</time></trkpt><trkpt lat="38.98306329357939" lon="8.442009047882147"><ele>5.75</ele><time>2026-03-31T10:12:50Z</time></trkpt><trkpt lat="38.98316282777142" lon="8.44193210554057"><ele>6.0</ele><time>2026-03-31T10:12:51Z</time></trkpt><trkpt lat="38.98326544150903" lon="8.44185400781769"><ele>6.0</ele><time>2026-03-31T10:12:52Z</time></trkpt><trkpt lat="38.98338065880571" lon="8.441802095384103"><ele>6.0</ele><time>2026-03-31T10:12:53Z</time></trkpt><trkpt lat="38.98348673247549" lon="8.44172259529305"><ele>6.0</ele><time>2026-03-31T10:12:54Z</time></trkpt><trkpt lat="38.98359018227878" lon="8.44163972116035"><ele>6.0</ele><time>2026-03-31T10:12:55Z</time></trkpt><trkpt lat="38.98367271113389" lon="8.441546452304285"><ele>6.0</ele><time>2026-03-31T10:12:56Z</time></trkpt><trkpt lat="38.98375802449053" lon="8.441477580673315"><ele>6.0</ele><time>2026-03-31T10:12:57Z</time></trkpt><trkpt lat="38.98383087348285" lon="8.441402942502279"><ele>6.0</ele><time>2026-03-31T10:12:58Z</time></trkpt><trkpt lat="38.983894783890264" lon="8.44132896139914"><ele>6.0</ele><time>2026-03-31T10:12:59Z</time></trkpt><trkpt lat="38.98395041488635" lon="8.441262672258775"><ele>6.0</ele><time>2026-03-31T10:13:00Z</time></trkpt><trkpt lat="38.983995920163444" lon="8.44120574371447"><ele>6.0</ele><time>2026-03-31T10:13:01Z</time></trkpt><trkpt lat="38.98404976781022" lon="8.441127117413396"><ele>6.199999999999999</ele><time>2026-03-31T10:13:03Z</time></trkpt><trkpt lat="38.98410137574644" lon="8.441044185572776"><ele>6.3999999999999995</ele><time>2026-03-31T10:13:05Z</time></trkpt><trkpt lat="38.984170271875804" lon="8.44090865705052"><ele>6.6</ele><time>2026-03-31T10:13:07Z</time></trkpt><trkpt lat="38.98421119941751" lon="8.440833655398528"><ele>6.8</ele><time>2026-03-31T10:13:08Z</time></trkpt><trkpt lat="38.98425613544105" lon="8.440748037090108"><ele>7.0</ele><time>2026-03-31T10:13:09Z</time></trkpt><trkpt lat="38.984307419621636" lon="8.440653182652444"><ele>7.0</ele><time>2026-03-31T10:13:10Z</time></trkpt><trkpt lat="38.984352561218316" lon="8.440558469572546"><ele>6.999999999999999</ele><time>2026-03-31T10:13:11Z</time></trkpt><trkpt lat="38.98440076552075" lon="8.440445822147934"><ele>6.999999999999999</ele><time>2026-03-31T10:13:12Z</time></trkpt><trkpt lat="38.98444528678922" lon="8.440321497936894"><ele>7.0</ele><time>2026-03-31T10:13:13Z</time></trkpt><trkpt lat="38.98448830474229" lon="8.440185620888219"><ele>7.0</ele><time>2026-03-31T10:13:14Z</time></trkpt><trkpt lat="38.98453709051937" lon="8.44004154205236"><ele>7.25</ele><time>2026-03-31T10:13:15Z</time></trkpt><trkpt lat="38.98459085547841" lon="8.439899173195718"><ele>7.5</ele><time>2026-03-31T10:13:16Z</time></trkpt><trkpt lat="38.98463373194807" lon="8.43974468325125"><ele>7.75</ele><time>2026-03-31T10:13:17Z</time></trkpt><trkpt lat="38.984676347402484" lon="8.439585254107714"><ele>8.0</ele><time>2026-03-31T10:13:18Z</time></trkpt><trkpt lat="38.98471759546571" lon="8.439424921970652"><ele>9.0</ele><time>2026-03-31T10:13:19Z</time></trkpt><trkpt lat="38.98476129905997" lon="8.43926376516809"><ele>10.0</ele><time>2026-03-31T10:13:20Z</time></trkpt><trkpt lat="38.98480948680845" lon="8.439102756680471"><ele>11.0</ele><time>2026-03-31T10:13:21Z</time></trkpt><trkpt lat="38.98486000566342" lon="8.438948950450762"><ele>12.0</ele><time>2026-03-31T10:13:22Z</time></trkpt><trkpt lat="38.984909916333955" lon="8.438800222051517"><ele>12.399999999999999</ele><time>2026-03-31T10:13:23Z</time></trkpt><trkpt lat="38.984957024361655" lon="8.438659010898453"><ele>12.799999999999999</ele><time>2026-03-31T10:13:24Z</time></trkpt><trkpt lat="38.98499593029522" lon="8.43853290497242"><ele>13.2</ele><time>2026-03-31T10:13:25Z</time></trkpt><trkpt lat="38.98502926188063" lon="8.438424134973946"><ele>13.6</ele><time>2026-03-31T10:13:26Z</time></trkpt><trkpt lat="38.985056864477535" lon="8.438314062267104"><ele>14.0</ele><time>2026-03-31T10:13:27Z</time></trkpt><trkpt lat="38.98508361361785" lon="8.438211314370601"><ele>14.000000000000002</ele><time>2026-03-31T10:13:28Z</time></trkpt><trkpt lat="38.985106788164224" lon="8.43810988501279"><ele>14.0</ele><time>2026-03-31T10:13:29Z</time></trkpt><trkpt lat="38.98513169250117" lon="8.438012766198817"><ele>14.0</ele><time>2026-03-31T10:13:30Z</time></trkpt><trkpt lat="38.98515787896011" lon="8.43792408584528"><ele>14.0</ele><time>2026-03-31T10:13:31Z</time></trkpt><trkpt lat="38.985195011491186" lon="8.437838631969926"><ele>14.000000000000002</ele><time>2026-03-31T10:13:32Z</time></trkpt><trkpt lat="38.98524785849451" lon="8.437766836751827"><ele>14.0</ele><time>2026-03-31T10:13:33Z</time></trkpt><trkpt lat="38.98529985330396" lon="8.437697899723105"><ele>14.399999999999999</ele><time>2026-03-31T10:13:34Z</time></trkpt><trkpt lat="38.98536925410698" lon="8.437637290270082"><ele>14.799999999999999</ele><time>2026-03-31T10:13:35Z</time></trkpt><trkpt lat="38.98544530565926" lon="8.43758017820154"><ele>15.200000000000001</ele><time>2026-03-31T10:13:36Z</time></trkpt><trkpt lat="38.98551695771111" lon="8.437504420510527"><ele>15.600000000000001</ele><time>2026-03-31T10:13:37Z</time></trkpt><trkpt lat="38.985588112485964" lon="8.437422080928835"><ele>16.0</ele><time>2026-03-31T10:13:38Z</time></trkpt><trkpt lat="38.98566026517475" lon="8.43733928673154"><ele>15.999999999999998</ele><time>2026-03-31T10:13:39Z</time></trkpt><trkpt lat="38.98572522797739" lon="8.437241250551414"><ele>16.0</ele><time>2026-03-31T10:13:40Z</time></trkpt><trkpt lat="38.98578619694254" lon="8.437151275330457"><ele>16.0</ele><time>2026-03-31T10:13:41Z</time></trkpt><trkpt lat="38.98584372482104" lon="8.437061699942962"><ele>16.0</ele><time>2026-03-31T10:13:42Z</time></trkpt><trkpt lat="38.98589436114761" lon="8.43697811716825"><ele>15.999999999999998</ele><time>2026-03-31T10:13:43Z</time></trkpt><trkpt lat="38.98594249235915" lon="8.436898752485497"><ele>16.0</ele><time>2026-03-31T10:13:44Z</time></trkpt><trkpt lat="38.985986624538356" lon="8.436822886445256"><ele>17.166666666666664</ele><time>2026-03-31T10:13:45Z</time></trkpt><trkpt lat="38.98602809441408" lon="8.436743338130155"><ele>18.333333333333332</ele><time>2026-03-31T10:13:46Z</time></trkpt><trkpt lat="38.98606992587038" lon="8.436659488758025"><ele>19.5</ele><time>2026-03-31T10:13:47Z</time></trkpt><trkpt lat="38.9861187582116" lon="8.436585028432253"><ele>20.666666666666668</ele><time>2026-03-31T10:13:48Z</time></trkpt><trkpt lat="38.98615930055484" lon="8.43650502033458"><ele>21.833333333333336</ele><time>2026-03-31T10:13:49Z</time></trkpt><trkpt lat="38.98619706728309" lon="8.43642258582726"><ele>23.0</ele><time>2026-03-31T10:13:50Z</time></trkpt><trkpt lat="38.98624300120688" lon="8.436346285158741"><ele>22.857142857142858</ele><time>2026-03-31T10:13:51Z</time></trkpt><trkpt lat="38.98628302832535" lon="8.436264020162"><ele>22.71428571428571</ele><time>2026-03-31T10:13:52Z</time></trkpt><trkpt lat="38.986329445347955" lon="8.436185791384725"><ele>22.57142857142857</ele><time>2026-03-31T10:13:53Z</time></trkpt><trkpt lat="38.98636610026917" lon="8.436099358361757"><ele>22.42857142857143</ele><time>2026-03-31T10:13:54Z</time></trkpt><trkpt lat="38.986411425612566" lon="8.436026790915163"><ele>22.285714285714285</ele><time>2026-03-31T10:13:55Z</time></trkpt><trkpt lat="38.98645203768168" lon="8.435949890926185"><ele>22.142857142857142</ele><time>2026-03-31T10:13:56Z</time></trkpt><trkpt lat="38.98649105062871" lon="8.435870777845151"><ele>22.0</ele><time>2026-03-31T10:13:57Z</time></trkpt><trkpt lat="38.98653148699764" lon="8.435793646229907"><ele>22.0</ele><time>2026-03-31T10:13:58Z</time></trkpt><trkpt lat="38.98657304678125" lon="8.43572373843073"><ele>22.0</ele><time>2026-03-31T10:13:59Z</time></trkpt><trkpt lat="38.98661325629103" lon="8.435648518351538"><ele>22.0</ele><time>2026-03-31T10:14:00Z</time></trkpt><trkpt lat="38.98665383933945" lon="8.435571367860975"><ele>22.0</ele><time>2026-03-31T10:14:01Z</time></trkpt><trkpt lat="38.98669451932285" lon="8.435494959158623"><ele>22.0</ele><time>2026-03-31T10:14:02Z</time></trkpt><trkpt lat="38.986735702276384" lon="8.435419313563143"><ele>22.0</ele><time>2026-03-31T10:14:03Z</time></trkpt><trkpt lat="38.98677778117722" lon="8.435344486648503"><ele>22.0</ele><time>2026-03-31T10:14:04Z</time></trkpt><trkpt lat="38.986823582128714" lon="8.435264132188815"><ele>22.857142857142858</ele><time>2026-03-31T10:14:05Z</time></trkpt><trkpt lat="38.98686937416808" lon="8.435183699357383"><ele>23.714285714285715</ele><time>2026-03-31T10:14:06Z</time></trkpt><trkpt lat="38.98691258711656" lon="8.435101726461392"><ele>24.57142857142857</ele><time>2026-03-31T10:14:07Z</time></trkpt><trkpt lat="38.98695378907449" lon="8.435021636406548"><ele>25.42857142857143</ele><time>2026-03-31T10:14:08Z</time></trkpt><trkpt lat="38.986992877913025" lon="8.434946671136913"><ele>26.285714285714285</ele><time>2026-03-31T10:14:09Z</time></trkpt><trkpt lat="38.98703243784938" lon="8.434868648779563"><ele>27.142857142857142</ele><time>2026-03-31T10:14:10Z</time></trkpt><trkpt lat="38.98707259689937" lon="8.434791828981991"><ele>28.0</ele><time>2026-03-31T10:14:11Z</time></trkpt><trkpt lat="38.98711559745199" lon="8.434717151865325"><ele>27.500000000000004</ele><time>2026-03-31T10:14:12Z</time></trkpt><trkpt lat="38.987151815484104" lon="8.43463290024019"><ele>27.0</ele><time>2026-03-31T10:14:13Z</time></trkpt><trkpt lat="38.98719190968898" lon="8.434547275019897"><ele>26.5</ele><time>2026-03-31T10:14:14Z</time></trkpt><trkpt lat="38.987236606463924" lon="8.43446188595896"><ele>26.0</ele><time>2026-03-31T10:14:15Z</time></trkpt><trkpt lat="38.987278700377175" lon="8.434371925912837"><ele>25.500000000000004</ele><time>2026-03-31T10:14:16Z</time></trkpt><trkpt lat="38.98732794801982" lon="8.434276334738572"><ele>25.0</ele><time>2026-03-31T10:14:17Z</time></trkpt><trkpt lat="38.987384226238326" lon="8.434180648684158"><ele>25.0</ele><time>2026-03-31T10:14:18Z</time></trkpt><trkpt lat="38.98744262949318" lon="8.43408456407204"><ele>25.0</ele><time>2026-03-31T10:14:19Z</time></trkpt><trkpt lat="38.98749937590496" lon="8.43398530742177"><ele>25.0</ele><time>2026-03-31T10:14:20Z</time></trkpt><trkpt lat="38.98755632486999" lon="8.433878482253773"><ele>25.0</ele><time>2026-03-31T10:14:21Z</time></trkpt><trkpt lat="38.98761090682615" lon="8.433769445563724"><ele>25.0</ele><time>2026-03-31T10:14:22Z</time></trkpt><trkpt lat="38.98766923728165" lon="8.433663106263786"><ele>26.6</ele><time>2026-03-31T10:14:23Z</time></trkpt><trkpt lat="38.987722900929" lon="8.433553232979046"><ele>28.2</ele><time>2026-03-31T10:14:24Z</time></trkpt><trkpt lat="38.987777871216686" lon="8.43344060619875"><ele>29.799999999999997</ele><time>2026-03-31T10:14:25Z</time></trkpt><trkpt lat="38.98784196062083" lon="8.433329038238009"><ele>31.4</ele><time>2026-03-31T10:14:26Z</time></trkpt><trkpt lat="38.987908233239295" lon="8.43321482115711"><ele>33.0</ele><time>2026-03-31T10:14:27Z</time></trkpt><trkpt lat="38.98797544502392" lon="8.433097576268898"><ele>33.0</ele><time>2026-03-31T10:14:28Z</time></trkpt><trkpt lat="38.98803918252209" lon="8.432981451938762"><ele>33.0</ele><time>2026-03-31T10:14:29Z</time></trkpt><trkpt lat="38.98810228630232" lon="8.43286366339409"><ele>33.0</ele><time>2026-03-31T10:14:30Z</time></trkpt><trkpt lat="38.98816504514312" lon="8.432748267118509"><ele>33.0</ele><time>2026-03-31T10:14:31Z</time></trkpt><trkpt lat="38.98823173414424" lon="8.432644826837713"><ele>33.0</ele><time>2026-03-31T10:14:32Z</time></trkpt><trkpt lat="38.98830650992731" lon="8.432557347328025"><ele>32.6</ele><time>2026-03-31T10:14:33Z</time></trkpt><trkpt lat="38.98838755383908" lon="8.432478026877144"><ele>32.199999999999996</ele><time>2026-03-31T10:14:34Z</time></trkpt><trkpt lat="38.988477414554254" lon="8.432414370717275"><ele>31.8</ele><time>2026-03-31T10:14:35Z</time></trkpt><trkpt lat="38.988571709498025" lon="8.432354493812205"><ele>31.4</ele><time>2026-03-31T10:14:36Z</time></trkpt><trkpt lat="38.988667737380105" lon="8.432295224649643"><ele>31.0</ele><time>2026-03-31T10:14:37Z</time></trkpt><trkpt lat="38.988772582861785" lon="8.432242458545147"><ele>31.0</ele><time>2026-03-31T10:14:38Z</time></trkpt><trkpt lat="38.98888163796123" lon="8.432184160157345"><ele>31.0</ele><time>2026-03-31T10:14:39Z</time></trkpt><trkpt lat="38.988992956289096" lon="8.432123691219742"><ele>31.0</ele><time>2026-03-31T10:14:40Z</time></trkpt><trkpt lat="38.98910254962074" lon="8.432063312720013"><ele>31.0</ele><time>2026-03-31T10:14:41Z</time></trkpt><trkpt lat="38.98921497566805" lon="8.432002115132686"><ele>30.0</ele><time>2026-03-31T10:14:42Z</time></trkpt><trkpt lat="38.98932687099345" lon="8.431940180621948"><ele>29.0</ele><time>2026-03-31T10:14:43Z</time></trkpt><trkpt lat="38.98944227975674" lon="8.431878241047077"><ele>28.0</ele><time>2026-03-31T10:14:44Z</time></trkpt><trkpt lat="38.989556627873576" lon="8.43181430573205"><ele>27.0</ele><time>2026-03-31T10:14:45Z</time></trkpt><trkpt lat="38.98967319204341" lon="8.431749640416863"><ele>27.0</ele><time>2026-03-31T10:14:46Z</time></trkpt><trkpt lat="38.98979389473749" lon="8.431689277231456"><ele>27.0</ele><time>2026-03-31T10:14:47Z</time></trkpt><trkpt lat="38.98991403935089" lon="8.431629604741026"><ele>27.0</ele><time>2026-03-31T10:14:48Z</time></trkpt><trkpt lat="38.990036072467305" lon="8.431563032197516"><ele>27.0</ele><time>2026-03-31T10:14:49Z</time></trkpt><trkpt lat="38.99015579264597" lon="8.431496657720343"><ele>26.75</ele><time>2026-03-31T10:14:50Z</time></trkpt><trkpt lat="38.990275029701365" lon="8.431428068735539"><ele>26.5</ele><time>2026-03-31T10:14:51Z</time></trkpt><trkpt lat="38.990398019305" lon="8.431363090735221"><ele>26.25</ele><time>2026-03-31T10:14:52Z</time></trkpt><trkpt lat="38.990515996821905" lon="8.43130379095329"><ele>26.0</ele><time>2026-03-31T10:14:53Z</time></trkpt><trkpt lat="38.990631519311016" lon="8.431243214727733"><ele>26.75</ele><time>2026-03-31T10:14:54Z</time></trkpt><trkpt lat="38.99075085654379" lon="8.43117865088682"><ele>27.5</ele><time>2026-03-31T10:14:55Z</time></trkpt><trkpt lat="38.990873439762474" lon="8.431112251995783"><ele>28.25</ele><time>2026-03-31T10:14:56Z</time></trkpt><trkpt lat="38.9909942856151" lon="8.431046735181642"><ele>29.0</ele><time>2026-03-31T10:14:57Z</time></trkpt><trkpt lat="38.99111522878516" lon="8.430974761410603"><ele>27.25</ele><time>2026-03-31T10:14:58Z</time></trkpt><trkpt lat="38.991234540410574" lon="8.430892778526358"><ele>25.5</ele><time>2026-03-31T10:14:59Z</time></trkpt><trkpt lat="38.99135053643788" lon="8.430793801476154"><ele>23.75</ele><time>2026-03-31T10:15:00Z</time></trkpt><trkpt lat="38.991458329913286" lon="8.430692824316075"><ele>22.0</ele><time>2026-03-31T10:15:01Z</time></trkpt><trkpt lat="38.991559816193444" lon="8.430591415904093"><ele>22.0</ele><time>2026-03-31T10:15:02Z</time></trkpt><trkpt lat="38.99165527522217" lon="8.430495824523394"><ele>22.0</ele><time>2026-03-31T10:15:03Z</time></trkpt><trkpt lat="38.99174799889652" lon="8.430405764685554"><ele>22.0</ele><time>2026-03-31T10:15:04Z</time></trkpt><trkpt lat="38.991834374094864" lon="8.430320247509163"><ele>22.0</ele><time>2026-03-31T10:15:05Z</time></trkpt><trkpt lat="38.9919247070533" lon="8.430234131937153"><ele>21.5</ele><time>2026-03-31T10:15:06Z</time></trkpt><trkpt lat="38.992016821334424" lon="8.430145772259221"><ele>21.0</ele><time>2026-03-31T10:15:07Z</time></trkpt><trkpt lat="38.99211594236209" lon="8.43006008727451"><ele>20.5</ele><time>2026-03-31T10:15:08Z</time></trkpt><trkpt lat="38.99221491748361" lon="8.429965399864942"><ele>20.0</ele><time>2026-03-31T10:15:09Z</time></trkpt><trkpt lat="38.99231433209912" lon="8.429865847833481"><ele>20.0</ele><time>2026-03-31T10:15:10Z</time></trkpt><trkpt lat="38.99241336995154" lon="8.429765459222542"><ele>20.0</ele><time>2026-03-31T10:15:11Z</time></trkpt><trkpt lat="38.992506967447675" lon="8.42966903733742"><ele>20.0</ele><time>2026-03-31T10:15:12Z</time></trkpt><trkpt lat="38.992598621513054" lon="8.429578180177135"><ele>20.0</ele><time>2026-03-31T10:15:13Z</time></trkpt><trkpt lat="38.99269172970917" lon="8.42948333112694"><ele>19.6</ele><time>2026-03-31T10:15:14Z</time></trkpt><trkpt lat="38.99278591827107" lon="8.429386073248962"><ele>19.2</ele><time>2026-03-31T10:15:15Z</time></trkpt><trkpt lat="38.992877694530456" lon="8.429296460009876"><ele>18.8</ele><time>2026-03-31T10:15:16Z</time></trkpt><trkpt lat="38.9929560541267" lon="8.429233490302114"><ele>18.4</ele><time>2026-03-31T10:15:17Z</time></trkpt><trkpt lat="38.99302771926364" lon="8.42919489366757"><ele>18.0</ele><time>2026-03-31T10:15:18Z</time></trkpt><trkpt lat="38.993166668741736" lon="8.429505056087885"><ele>18.0</ele><time>2026-03-31T10:15:23Z</time></trkpt><trkpt lat="38.993187913161535" lon="8.429595530880158"><ele>18.0</ele><time>2026-03-31T10:15:24Z</time></trkpt><trkpt lat="38.99321840514833" lon="8.429689977403639"><ele>18.0</ele><time>2026-03-31T10:15:25Z</time></trkpt><trkpt lat="38.9932523538202" lon="8.429791986755065"><ele>18.0</ele><time>2026-03-31T10:15:26Z</time></trkpt><trkpt lat="38.99328910870786" lon="8.429898299835102"><ele>18.0</ele><time>2026-03-31T10:15:27Z</time></trkpt><trkpt lat="38.99332281582463" lon="8.430020786119195"><ele>18.0</ele><time>2026-03-31T10:15:28Z</time></trkpt><trkpt lat="38.993355727843415" lon="8.430159071295309"><ele>18.25</ele><time>2026-03-31T10:15:29Z</time></trkpt><trkpt lat="38.993392981939415" lon="8.430291374436267"><ele>18.5</ele><time>2026-03-31T10:15:30Z</time></trkpt><trkpt lat="38.99343500233467" lon="8.43043107092119"><ele>18.75</ele><time>2026-03-31T10:15:31Z</time></trkpt><trkpt lat="38.99347824357985" lon="8.430576101636724"><ele>19.0</ele><time>2026-03-31T10:15:32Z</time></trkpt><trkpt lat="38.99352276772543" lon="8.430727245434813"><ele>18.5</ele><time>2026-03-31T10:15:33Z</time></trkpt><trkpt lat="38.993569838425294" lon="8.430884913886699"><ele>18.0</ele><time>2026-03-31T10:15:34Z</time></trkpt><trkpt lat="38.99361483331321" lon="8.431042712838641"><ele>17.5</ele><time>2026-03-31T10:15:35Z</time></trkpt><trkpt lat="38.99366626121755" lon="8.43120440604772"><ele>17.0</ele><time>2026-03-31T10:15:36Z</time></trkpt><trkpt lat="38.99372651370447" lon="8.431365551546373"><ele>16.75</ele><time>2026-03-31T10:15:37Z</time></trkpt><trkpt lat="38.99379242071323" lon="8.43152618606183"><ele>16.5</ele><time>2026-03-31T10:15:38Z</time></trkpt><trkpt lat="38.993859166421586" lon="8.431684793891751"><ele>16.25</ele><time>2026-03-31T10:15:39Z</time></trkpt><trkpt lat="38.99392371087" lon="8.431842192800042"><ele>16.0</ele><time>2026-03-31T10:15:40Z</time></trkpt><trkpt lat="38.99398405920613" lon="8.432003217348358"><ele>16.75</ele><time>2026-03-31T10:15:41Z</time></trkpt><trkpt lat="38.99403371151348" lon="8.432154598427601"><ele>17.5</ele><time>2026-03-31T10:15:42Z</time></trkpt><trkpt lat="38.99407062791411" lon="8.432301896610445"><ele>18.25</ele><time>2026-03-31T10:15:43Z</time></trkpt><trkpt lat="38.99407994719597" lon="8.432443756445238"><ele>19.0</ele><time>2026-03-31T10:15:44Z</time></trkpt><trkpt lat="38.994065626619914" lon="8.432589850128197"><ele>19.0</ele><time>2026-03-31T10:15:45Z</time></trkpt><trkpt lat="38.9940431600379" lon="8.432736752312886"><ele>19.0</ele><time>2026-03-31T10:15:46Z</time></trkpt><trkpt lat="38.99402666416184" lon="8.432881294503492"><ele>19.0</ele><time>2026-03-31T10:15:47Z</time></trkpt><trkpt lat="38.99403145579359" lon="8.433025515622662"><ele>19.0</ele><time>2026-03-31T10:15:48Z</time></trkpt><trkpt lat="38.9940570312441" lon="8.433170908255974"><ele>20.25</ele><time>2026-03-31T10:15:49Z</time></trkpt><trkpt lat="38.99409538003415" lon="8.43331904207338"><ele>21.5</ele><time>2026-03-31T10:15:50Z</time></trkpt><trkpt lat="38.99414333970516" lon="8.433472692897887"><ele>22.75</ele><time>2026-03-31T10:15:51Z</time></trkpt><trkpt lat="38.99419152977541" lon="8.433636666153753"><ele>24.0</ele><time>2026-03-31T10:15:52Z</time></trkpt><trkpt lat="38.99424377617412" lon="8.43379461977078"><ele>24.5</ele><time>2026-03-31T10:15:53Z</time></trkpt><trkpt lat="38.99430181041776" lon="8.433940827718818"><ele>25.0</ele><time>2026-03-31T10:15:54Z</time></trkpt><trkpt lat="38.994358431513" lon="8.434079778243735"><ele>25.5</ele><time>2026-03-31T10:15:55Z</time></trkpt><trkpt lat="38.994391373334345" lon="8.434209132658028"><ele>26.0</ele><time>2026-03-31T10:15:56Z</time></trkpt><trkpt lat="38.99438559647966" lon="8.434346255180385"><ele>26.0</ele><time>2026-03-31T10:15:57Z</time></trkpt><trkpt lat="38.99435133654325" lon="8.434482385107874"><ele>26.0</ele><time>2026-03-31T10:15:58Z</time></trkpt><trkpt lat="38.994298444348" lon="8.434618290267041"><ele>26.0</ele><time>2026-03-31T10:15:59Z</time></trkpt><trkpt lat="38.99424193461999" lon="8.434758507970718"><ele>26.0</ele><time>2026-03-31T10:16:00Z</time></trkpt><trkpt lat="38.99421173676304" lon="8.434910088887184"><ele>24.5</ele><time>2026-03-31T10:16:01Z</time></trkpt><trkpt lat="38.994206882698855" lon="8.435066839709618"><ele>23.0</ele><time>2026-03-31T10:16:02Z</time></trkpt><trkpt lat="38.99421453234512" lon="8.435233229714855"><ele>21.5</ele><time>2026-03-31T10:16:03Z</time></trkpt><trkpt lat="38.994213657245616" lon="8.43541056459434"><ele>20.0</ele><time>2026-03-31T10:16:04Z</time></trkpt><trkpt lat="38.99421502006909" lon="8.435579368342452"><ele>18.5</ele><time>2026-03-31T10:16:05Z</time></trkpt><trkpt lat="38.99421629391298" lon="8.435743131489158"><ele>17.0</ele><time>2026-03-31T10:16:06Z</time></trkpt><trkpt lat="38.99421867104253" lon="8.435900361526995"><ele>15.5</ele><time>2026-03-31T10:16:07Z</time></trkpt><trkpt lat="38.99422466405977" lon="8.43605280147318"><ele>14.0</ele><time>2026-03-31T10:16:08Z</time></trkpt><trkpt lat="38.99422660722181" lon="8.436201439279284"><ele>13.6</ele><time>2026-03-31T10:16:09Z</time></trkpt><trkpt lat="38.994231119497734" lon="8.436344692015295"><ele>13.2</ele><time>2026-03-31T10:16:10Z</time></trkpt><trkpt lat="38.99423797822564" lon="8.436484041758488"><ele>12.799999999999999</ele><time>2026-03-31T10:16:11Z</time></trkpt><trkpt lat="38.99425459819559" lon="8.436619386725763"><ele>12.399999999999999</ele><time>2026-03-31T10:16:12Z</time></trkpt><trkpt lat="38.994283352864535" lon="8.436748018517882"><ele>12.0</ele><time>2026-03-31T10:16:13Z</time></trkpt><trkpt lat="38.994321980042876" lon="8.436873094872242"><ele>12.0</ele><time>2026-03-31T10:16:14Z</time></trkpt><trkpt lat="38.99436439592521" lon="8.436993159584242"><ele>12.0</ele><time>2026-03-31T10:16:15Z</time></trkpt><trkpt lat="38.99442540594218" lon="8.43708541109617"><ele>12.0</ele><time>2026-03-31T10:16:16Z</time></trkpt><trkpt lat="38.99450688637937" lon="8.43715274112048"><ele>12.0</ele><time>2026-03-31T10:16:17Z</time></trkpt><trkpt lat="38.9946061645342" lon="8.437197833019818"><ele>12.0</ele><time>2026-03-31T10:16:18Z</time></trkpt><trkpt lat="38.99471106438553" lon="8.437235486197716"><ele>11.5</ele><time>2026-03-31T10:16:19Z</time></trkpt><trkpt lat="38.99482094801099" lon="8.437267608679942"><ele>11.0</ele><time>2026-03-31T10:16:20Z</time></trkpt><trkpt lat="38.99493105188965" lon="8.437300209454415"><ele>10.5</ele><time>2026-03-31T10:16:21Z</time></trkpt><trkpt lat="38.99504549347604" lon="8.437341647516048"><ele>10.0</ele><time>2026-03-31T10:16:22Z</time></trkpt><trkpt lat="38.99515898572364" lon="8.437383679396358"><ele>10.0</ele><time>2026-03-31T10:16:23Z</time></trkpt><trkpt lat="38.995272167447816" lon="8.43742299843914"><ele>10.0</ele><time>2026-03-31T10:16:24Z</time></trkpt><trkpt lat="38.99538138132992" lon="8.437458373918544"><ele>10.0</ele><time>2026-03-31T10:16:25Z</time></trkpt><trkpt lat="38.99548394021751" lon="8.437488093371734"><ele>10.0</ele><time>2026-03-31T10:16:26Z</time></trkpt><trkpt lat="38.99557882581619" lon="8.4375227883245"><ele>10.0</ele><time>2026-03-31T10:16:27Z</time></trkpt><trkpt lat="38.9956695501638" lon="8.437559339693635"><ele>10.0</ele><time>2026-03-31T10:16:28Z</time></trkpt><trkpt lat="38.99575297030541" lon="8.437596955313948"><ele>10.0</ele><time>2026-03-31T10:16:29Z</time></trkpt><trkpt lat="38.99582584507272" lon="8.437647036703778"><ele>10.0</ele><time>2026-03-31T10:16:30Z</time></trkpt><trkpt lat="38.99587945991887" lon="8.437710723033813"><ele>10.0</ele><time>2026-03-31T10:16:31Z</time></trkpt><trkpt lat="38.99591746618355" lon="8.437788639433158"><ele>10.0</ele><time>2026-03-31T10:16:32Z</time></trkpt><trkpt lat="38.99594492497144" lon="8.437873815556335"><ele>10.0</ele><time>2026-03-31T10:16:33Z</time></trkpt><trkpt lat="38.99596395240676" lon="8.437972890004078"><ele>10.833333333333334</ele><time>2026-03-31T10:16:34Z</time></trkpt><trkpt lat="38.99597499779335" lon="8.438067926706273"><ele>11.666666666666668</ele><time>2026-03-31T10:16:35Z</time></trkpt><trkpt lat="38.995993292111386" lon="8.438160566046133"><ele>12.5</ele><time>2026-03-31T10:16:36Z</time></trkpt><trkpt lat="38.996015062333186" lon="8.438268597094044"><ele>13.333333333333334</ele><time>2026-03-31T10:16:37Z</time></trkpt><trkpt lat="38.996036915044584" lon="8.438384217901982"><ele>14.166666666666666</ele><time>2026-03-31T10:16:38Z</time></trkpt><trkpt lat="38.99605751685095" lon="8.438508886793771"><ele>15.0</ele><time>2026-03-31T10:16:39Z</time></trkpt><trkpt lat="38.996073308129745" lon="8.438627963493643"><ele>15.0</ele><time>2026-03-31T10:16:40Z</time></trkpt><trkpt lat="38.996083797330606" lon="8.438727733530614"><ele>15.0</ele><time>2026-03-31T10:16:41Z</time></trkpt><trkpt lat="38.996093882947" lon="8.438874511153037"><ele>15.0</ele><time>2026-03-31T10:16:43Z</time></trkpt><trkpt lat="38.99607667805063" lon="8.438954160019017"><ele>15.0</ele><time>2026-03-31T10:16:46Z</time></trkpt><trkpt lat="38.99606437870324" lon="8.43906184031451"><ele>15.0</ele><time>2026-03-31T10:16:49Z</time></trkpt><trkpt lat="38.99602724376772" lon="8.439219158313293"><ele>14.8</ele><time>2026-03-31T10:16:51Z</time></trkpt><trkpt lat="38.995997911323826" lon="8.439308969424985"><ele>14.6</ele><time>2026-03-31T10:16:52Z</time></trkpt><trkpt lat="38.99596031774144" lon="8.439402916148394"><ele>14.399999999999999</ele><time>2026-03-31T10:16:53Z</time></trkpt><trkpt lat="38.99591568688506" lon="8.439504910066729"><ele>14.2</ele><time>2026-03-31T10:16:54Z</time></trkpt><trkpt lat="38.99586947420872" lon="8.439616341296071"><ele>14.0</ele><time>2026-03-31T10:16:55Z</time></trkpt><trkpt lat="38.99582767910157" lon="8.439746673403183"><ele>12.5</ele><time>2026-03-31T10:16:56Z</time></trkpt><trkpt lat="38.995786638862064" lon="8.439893257414417"><ele>11.0</ele><time>2026-03-31T10:16:57Z</time></trkpt><trkpt lat="38.995744652550044" lon="8.440039614651722"><ele>9.5</ele><time>2026-03-31T10:16:58Z</time></trkpt><trkpt lat="38.995708452931545" lon="8.440198591354008"><ele>8.0</ele><time>2026-03-31T10:16:59Z</time></trkpt><trkpt lat="38.9956789453752" lon="8.440356794728254"><ele>7.75</ele><time>2026-03-31T10:17:00Z</time></trkpt><trkpt lat="38.995666338177244" lon="8.44050879636672"><ele>7.5</ele><time>2026-03-31T10:17:01Z</time></trkpt><trkpt lat="38.99567205756293" lon="8.440667870977183"><ele>7.25</ele><time>2026-03-31T10:17:02Z</time></trkpt><trkpt lat="38.995692265615865" lon="8.440833219098018"><ele>7.0</ele><time>2026-03-31T10:17:03Z</time></trkpt><trkpt lat="38.995707735485084" lon="8.441003586673045"><ele>7.0</ele><time>2026-03-31T10:17:04Z</time></trkpt><trkpt lat="38.99573193723529" lon="8.44116231079653"><ele>7.0</ele><time>2026-03-31T10:17:05Z</time></trkpt><trkpt lat="38.99576401503854" lon="8.44131737041439"><ele>7.0</ele><time>2026-03-31T10:17:06Z</time></trkpt><trkpt lat="38.99580225760533" lon="8.441468145421313"><ele>7.0</ele><time>2026-03-31T10:17:07Z</time></trkpt><trkpt lat="38.99585218564913" lon="8.441615300690295"><ele>7.25</ele><time>2026-03-31T10:17:08Z</time></trkpt><trkpt lat="38.995907736884185" lon="8.441768369522771"><ele>7.5</ele><time>2026-03-31T10:17:09Z</time></trkpt><trkpt lat="38.9959647167217" lon="8.441921288189585"><ele>7.75</ele><time>2026-03-31T10:17:10Z</time></trkpt><trkpt lat="38.99602226496884" lon="8.442078228281352"><ele>8.0</ele><time>2026-03-31T10:17:11Z</time></trkpt><trkpt lat="38.996079982960175" lon="8.442237005389698"><ele>8.0</ele><time>2026-03-31T10:17:12Z</time></trkpt><trkpt lat="38.99614095906905" lon="8.442397803021937"><ele>8.0</ele><time>2026-03-31T10:17:13Z</time></trkpt><trkpt lat="38.99620438170032" lon="8.442558291046295"><ele>8.0</ele><time>2026-03-31T10:17:14Z</time></trkpt><trkpt lat="38.99626551098762" lon="8.44271625521962"><ele>8.0</ele><time>2026-03-31T10:17:15Z</time></trkpt><trkpt lat="38.9963237145815" lon="8.442869459619208"><ele>7.2</ele><time>2026-03-31T10:17:16Z</time></trkpt><trkpt lat="38.996377334079256" lon="8.44301249872843"><ele>6.4</ele><time>2026-03-31T10:17:17Z</time></trkpt><trkpt lat="38.99642551237672" lon="8.443137372097008"><ele>5.6000000000000005</ele><time>2026-03-31T10:17:18Z</time></trkpt><trkpt lat="38.99647049035442" lon="8.443240125142108"><ele>4.800000000000001</ele><time>2026-03-31T10:17:19Z</time></trkpt><trkpt lat="38.996499013857225" lon="8.443319602709254"><ele>4.0</ele><time>2026-03-31T10:17:20Z</time></trkpt><trkpt lat="38.996536121807495" lon="8.44341701714269"><ele>4.0</ele><time>2026-03-31T10:17:22Z</time></trkpt><trkpt lat="38.99657688923348" lon="8.443500184718069"><ele>4.0</ele><time>2026-03-31T10:17:23Z</time></trkpt><trkpt lat="38.996621781015975" lon="8.443594162545216"><ele>4.0</ele><time>2026-03-31T10:17:24Z</time></trkpt><trkpt lat="38.99667122072086" lon="8.443700795488597"><ele>4.0</ele><time>2026-03-31T10:17:25Z</time></trkpt><trkpt lat="38.99671742254773" lon="8.443824726972654"><ele>4.0</ele><time>2026-03-31T10:17:26Z</time></trkpt><trkpt lat="38.99676816838608" lon="8.443962288693335"><ele>5.25</ele><time>2026-03-31T10:17:27Z</time></trkpt><trkpt lat="38.99682250401638" lon="8.444101471516293"><ele>6.5</ele><time>2026-03-31T10:17:28Z</time></trkpt><trkpt lat="38.99687761064019" lon="8.444244210656477"><ele>7.75</ele><time>2026-03-31T10:17:29Z</time></trkpt><trkpt lat="38.99693825681247" lon="8.444386272821669"><ele>9.0</ele><time>2026-03-31T10:17:30Z</time></trkpt><trkpt lat="38.996997828233745" lon="8.444534625739571"><ele>7.75</ele><time>2026-03-31T10:17:31Z</time></trkpt><trkpt lat="38.99705823146315" lon="8.44468925256792"><ele>6.5</ele><time>2026-03-31T10:17:32Z</time></trkpt><trkpt lat="38.997118113915164" lon="8.444845780109164"><ele>5.25</ele><time>2026-03-31T10:17:33Z</time></trkpt><trkpt lat="38.99717343775918" lon="8.444991516150182"><ele>4.0</ele><time>2026-03-31T10:17:34Z</time></trkpt><trkpt lat="38.997231133325485" lon="8.445134462190902"><ele>4.0</ele><time>2026-03-31T10:17:35Z</time></trkpt><trkpt lat="38.997288464631886" lon="8.445275770289918"><ele>4.0</ele><time>2026-03-31T10:17:36Z</time></trkpt><trkpt lat="38.99733386083485" lon="8.445421911075675"><ele>4.0</ele><time>2026-03-31T10:17:37Z</time></trkpt><trkpt lat="38.9973621151691" lon="8.445567818994341"><ele>4.0</ele><time>2026-03-31T10:17:38Z</time></trkpt><trkpt lat="38.997370077176996" lon="8.445713147132675"><ele>3.4000000000000004</ele><time>2026-03-31T10:17:39Z</time></trkpt><trkpt lat="38.99736480978465" lon="8.445849391681316"><ele>2.8000000000000003</ele><time>2026-03-31T10:17:40Z</time></trkpt><trkpt lat="38.99732915642313" lon="8.44598456938997"><ele>2.2</ele><time>2026-03-31T10:17:41Z</time></trkpt><trkpt lat="38.99732813760868" lon="8.446133564276307"><ele>1.6</ele><time>2026-03-31T10:17:42Z</time></trkpt><trkpt lat="38.997321688797314" lon="8.446279478908243"><ele>1.0</ele><time>2026-03-31T10:17:43Z</time></trkpt><trkpt lat="38.99733865938652" lon="8.446419476972448"><ele>0.8</ele><time>2026-03-31T10:17:44Z</time></trkpt><trkpt lat="38.99736573607644" lon="8.446512783843586"><ele>0.6000000000000001</ele><time>2026-03-31T10:17:45Z</time></trkpt><trkpt lat="38.99736749502455" lon="8.446599940140246"><ele>0.4</ele><time>2026-03-31T10:17:47Z</time></trkpt><trkpt lat="38.997495542340545" lon="8.446557854446672"><ele>0.2</ele><time>2026-03-31T10:17:49Z</time></trkpt><trkpt lat="38.997600275768995" lon="8.446537260944984"><ele>0.0</ele><time>2026-03-31T10:17:51Z</time></trkpt><trkpt lat="38.99766826649498" lon="8.446555688508816"><ele>1.2</ele><time>2026-03-31T10:17:52Z</time></trkpt><trkpt lat="38.9977393251216" lon="8.446576061037925"><ele>2.4</ele><time>2026-03-31T10:17:53Z</time></trkpt><trkpt lat="38.9978227169659" lon="8.446584472118083"><ele>3.5999999999999996</ele><time>2026-03-31T10:17:54Z</time></trkpt><trkpt lat="38.9979162341087" lon="8.446588909050922"><ele>4.8</ele><time>2026-03-31T10:17:55Z</time></trkpt><trkpt lat="38.99801484427368" lon="8.446593827947"><ele>6.0</ele><time>2026-03-31T10:17:56Z</time></trkpt><trkpt lat="38.99811572737704" lon="8.446605956222202"><ele>6.0</ele><time>2026-03-31T10:17:57Z</time></trkpt><trkpt lat="38.9982168939795" lon="8.446618103814455"><ele>6.0</ele><time>2026-03-31T10:17:58Z</time></trkpt><trkpt lat="38.998318486896004" lon="8.446627289430754"><ele>6.0</ele><time>2026-03-31T10:17:59Z</time></trkpt><trkpt lat="38.998419907224026" lon="8.446638042207535"><ele>6.0</ele><time>2026-03-31T10:18:00Z</time></trkpt><trkpt lat="38.99851762270475" lon="8.446651707043797"><ele>6.0</ele><time>2026-03-31T10:18:01Z</time></trkpt><trkpt lat="38.99861313192116" lon="8.44666511154881"><ele>7.333333333333334</ele><time>2026-03-31T10:18:02Z</time></trkpt><trkpt lat="38.99870539273627" lon="8.446675424662306"><ele>8.666666666666668</ele><time>2026-03-31T10:18:03Z</time></trkpt><trkpt lat="38.99879530457006" lon="8.44668616979016"><ele>10.0</ele><time>2026-03-31T10:18:04Z</time></trkpt><trkpt lat="38.9988871801845" lon="8.446695304825202"><ele>11.333333333333334</ele><time>2026-03-31T10:18:05Z</time></trkpt><trkpt lat="38.99896804974453" lon="8.44670036441453"><ele>12.666666666666668</ele><time>2026-03-31T10:18:06Z</time></trkpt><trkpt lat="38.99904496884614" lon="8.446704810732605"><ele>14.0</ele><time>2026-03-31T10:18:07Z</time></trkpt><trkpt lat="38.99912734790578" lon="8.446706093933106"><ele>16.0</ele><time>2026-03-31T10:18:08Z</time></trkpt><trkpt lat="38.99920641091323" lon="8.446702980644142"><ele>18.0</ele><time>2026-03-31T10:18:09Z</time></trkpt><trkpt lat="38.999328711167266" lon="8.446718701330918"><ele>20.0</ele><time>2026-03-31T10:18:11Z</time></trkpt><trkpt lat="38.99939458111086" lon="8.446727323832555"><ele>22.0</ele><time>2026-03-31T10:18:12Z</time></trkpt><trkpt lat="38.999459388294724" lon="8.44674857260852"><ele>23.999999999999996</ele><time>2026-03-31T10:18:13Z</time></trkpt><trkpt lat="38.999504986866896" lon="8.446830965319108"><ele>26.0</ele><time>2026-03-31T10:18:14Z</time></trkpt><trkpt lat="38.99956230230635" lon="8.446897409862347"><ele>26.0</ele><time>2026-03-31T10:18:15Z</time></trkpt><trkpt lat="38.999633237379584" lon="8.44697107095191"><ele>26.0</ele><time>2026-03-31T10:18:16Z</time></trkpt><trkpt lat="38.99971086899994" lon="8.447049145373963"><ele>26.0</ele><time>2026-03-31T10:18:17Z</time></trkpt><trkpt lat="38.99979377225946" lon="8.44712812960313"><ele>26.0</ele><time>2026-03-31T10:18:18Z</time></trkpt><trkpt lat="38.999872278637966" lon="8.447211190377411"><ele>26.0</ele><time>2026-03-31T10:18:19Z</time></trkpt><trkpt lat="38.99995592493949" lon="8.447293399103534"><ele>24.400000000000002</ele><time>2026-03-31T10:18:20Z</time></trkpt><trkpt lat="39.00003065924259" lon="8.447378888801282"><ele>22.8</ele><time>2026-03-31T10:18:21Z</time></trkpt><trkpt lat="39.00011393251584" lon="8.447459371647204"><ele>21.200000000000003</ele><time>2026-03-31T10:18:22Z</time></trkpt><trkpt lat="39.00019347980823" lon="8.447532967410993"><ele>19.6</ele><time>2026-03-31T10:18:23Z</time></trkpt><trkpt lat="39.000273547856494" lon="8.447604454369655"><ele>18.0</ele><time>2026-03-31T10:18:24Z</time></trkpt><trkpt lat="39.00035263167636" lon="8.447675944382802"><ele>18.0</ele><time>2026-03-31T10:18:25Z</time></trkpt><trkpt lat="39.00043122298167" lon="8.44774724104244"><ele>18.0</ele><time>2026-03-31T10:18:26Z</time></trkpt><trkpt lat="39.000506670024784" lon="8.447826115439854"><ele>18.0</ele><time>2026-03-31T10:18:27Z</time></trkpt><trkpt lat="39.000578467144095" lon="8.447907471840347"><ele>18.0</ele><time>2026-03-31T10:18:28Z</time></trkpt><trkpt lat="39.00066131469192" lon="8.447972285773428"><ele>18.0</ele><time>2026-03-31T10:18:29Z</time></trkpt><trkpt lat="39.000744602191766" lon="8.4480476339136"><ele>19.0</ele><time>2026-03-31T10:18:30Z</time></trkpt><trkpt lat="39.000833072126206" lon="8.448135906929785"><ele>20.0</ele><time>2026-03-31T10:18:31Z</time></trkpt><trkpt lat="39.000925588492485" lon="8.448218164686029"><ele>21.0</ele><time>2026-03-31T10:18:32Z</time></trkpt><trkpt lat="39.00102269731447" lon="8.448319452036726"><ele>22.0</ele><time>2026-03-31T10:18:33Z</time></trkpt><trkpt lat="39.00110983818177" lon="8.44840785577335"><ele>22.0</ele><time>2026-03-31T10:18:34Z</time></trkpt><trkpt lat="39.001191276558316" lon="8.448490096200171"><ele>22.0</ele><time>2026-03-31T10:18:35Z</time></trkpt><trkpt lat="39.00126739182255" lon="8.448566523074527"><ele>22.0</ele><time>2026-03-31T10:18:36Z</time></trkpt><trkpt lat="39.00133560191395" lon="8.44863870492984"><ele>22.0</ele><time>2026-03-31T10:18:37Z</time></trkpt><trkpt lat="39.001409560609474" lon="8.44870808752057"><ele>22.0</ele><time>2026-03-31T10:18:38Z</time></trkpt><trkpt lat="39.00148956707555" lon="8.44876398789784"><ele>21.0</ele><time>2026-03-31T10:18:39Z</time></trkpt><trkpt lat="39.001573424464965" lon="8.448801030838677"><ele>20.0</ele><time>2026-03-31T10:18:40Z</time></trkpt><trkpt lat="39.00166327381874" lon="8.448818244020512"><ele>19.0</ele><time>2026-03-31T10:18:41Z</time></trkpt><trkpt lat="39.001758703100826" lon="8.448810378237024"><ele>18.0</ele><time>2026-03-31T10:18:42Z</time></trkpt><trkpt lat="39.00184836239671" lon="8.448803041811765"><ele>17.0</ele><time>2026-03-31T10:18:43Z</time></trkpt><trkpt lat="39.0019321346582" lon="8.448805320589052"><ele>16.0</ele><time>2026-03-31T10:18:44Z</time></trkpt><trkpt lat="39.00201392979271" lon="8.448806705192956"><ele>15.999999999999998</ele><time>2026-03-31T10:18:45Z</time></trkpt><trkpt lat="39.00209745688417" lon="8.448815453916868"><ele>16.0</ele><time>2026-03-31T10:18:46Z</time></trkpt><trkpt lat="39.00218123896731" lon="8.448830721184398"><ele>16.0</ele><time>2026-03-31T10:18:47Z</time></trkpt><trkpt lat="39.00226120771914" lon="8.448843749560687"><ele>16.0</ele><time>2026-03-31T10:18:48Z</time></trkpt><trkpt lat="39.00234503974511" lon="8.44885248184739"><ele>15.999999999999998</ele><time>2026-03-31T10:18:49Z</time></trkpt><trkpt lat="39.002431706421376" lon="8.44886500916505"><ele>16.0</ele><time>2026-03-31T10:18:50Z</time></trkpt><trkpt lat="39.00251976299003" lon="8.448894962807097"><ele>17.4</ele><time>2026-03-31T10:18:51Z</time></trkpt><trkpt lat="39.00260639537334" lon="8.448930963110552"><ele>18.8</ele><time>2026-03-31T10:18:52Z</time></trkpt><trkpt lat="39.00269560425457" lon="8.448964714470076"><ele>20.2</ele><time>2026-03-31T10:18:53Z</time></trkpt><trkpt lat="39.00278367697301" lon="8.448991774119254"><ele>21.599999999999998</ele><time>2026-03-31T10:18:54Z</time></trkpt><trkpt lat="39.00287641034437" lon="8.449010532021934"><ele>23.0</ele><time>2026-03-31T10:18:55Z</time></trkpt><trkpt lat="39.00297128344867" lon="8.449031410461142"><ele>23.0</ele><time>2026-03-31T10:18:56Z</time></trkpt><trkpt lat="39.003069849100264" lon="8.44905201020501"><ele>23.0</ele><time>2026-03-31T10:18:57Z</time></trkpt><trkpt lat="39.00317243928212" lon="8.449061014112617"><ele>23.0</ele><time>2026-03-31T10:18:58Z</time></trkpt><trkpt lat="39.003273379320916" lon="8.449081714478154"><ele>23.0</ele><time>2026-03-31T10:18:59Z</time></trkpt><trkpt lat="39.003368803610506" lon="8.449076513732495"><ele>23.0</ele><time>2026-03-31T10:19:00Z</time></trkpt><trkpt lat="39.00345617462996" lon="8.449079991104357"><ele>23.4</ele><time>2026-03-31T10:19:01Z</time></trkpt><trkpt lat="39.00354097711963" lon="8.449081973576542"><ele>23.799999999999997</ele><time>2026-03-31T10:19:02Z</time></trkpt><trkpt lat="39.00363044297459" lon="8.449085350542925"><ele>24.2</ele><time>2026-03-31T10:19:03Z</time></trkpt><trkpt lat="39.00371716387125" lon="8.449071679958177"><ele>24.6</ele><time>2026-03-31T10:19:04Z</time></trkpt><trkpt lat="39.003806343593865" lon="8.449041716346267"><ele>25.0</ele><time>2026-03-31T10:19:05Z</time></trkpt><trkpt lat="39.0038961907955" lon="8.448986790625808"><ele>25.0</ele><time>2026-03-31T10:19:06Z</time></trkpt><trkpt lat="39.00398531680974" lon="8.4489153056309"><ele>25.0</ele><time>2026-03-31T10:19:07Z</time></trkpt><trkpt lat="39.0040722398341" lon="8.448839704126426"><ele>25.0</ele><time>2026-03-31T10:19:08Z</time></trkpt><trkpt lat="39.00416728592765" lon="8.448791652598608"><ele>25.0</ele><time>2026-03-31T10:19:09Z</time></trkpt><trkpt lat="39.00427078746741" lon="8.448769950310576"><ele>25.0</ele><time>2026-03-31T10:19:10Z</time></trkpt><trkpt lat="39.00437841565808" lon="8.44879204729411"><ele>24.2</ele><time>2026-03-31T10:19:11Z</time></trkpt><trkpt lat="39.0044753660702" lon="8.448834793016566"><ele>23.4</ele><time>2026-03-31T10:19:12Z</time></trkpt><trkpt lat="39.00456999993221" lon="8.448889674941137"><ele>22.6</ele><time>2026-03-31T10:19:13Z</time></trkpt><trkpt lat="39.00465561538122" lon="8.44894804958726"><ele>21.8</ele><time>2026-03-31T10:19:14Z</time></trkpt><trkpt lat="39.00473943920841" lon="8.448995404282073"><ele>21.0</ele><time>2026-03-31T10:19:15Z</time></trkpt><trkpt lat="39.00481790055156" lon="8.449029437411975"><ele>21.0</ele><time>2026-03-31T10:19:16Z</time></trkpt><trkpt lat="39.00488214020352" lon="8.449050710877124"><ele>21.0</ele><time>2026-03-31T10:19:17Z</time></trkpt><trkpt lat="39.004969997281115" lon="8.449088642504167"><ele>21.0</ele><time>2026-03-31T10:19:19Z</time></trkpt><trkpt lat="39.005065431225994" lon="8.44913195937664"><ele>21.0</ele><time>2026-03-31T10:19:22Z</time></trkpt><trkpt lat="39.00517652269244" lon="8.44919389490315"><ele>21.0</ele><time>2026-03-31T10:19:24Z</time></trkpt><trkpt lat="39.005243182787105" lon="8.449244182831423"><ele>22.4</ele><time>2026-03-31T10:19:25Z</time></trkpt><trkpt lat="39.00531964741936" lon="8.44930227790529"><ele>23.8</ele><time>2026-03-31T10:19:26Z</time></trkpt><trkpt lat="39.005408660064575" lon="8.44934620914172"><ele>25.199999999999996</ele><time>2026-03-31T10:19:27Z</time></trkpt><trkpt lat="39.005510768163425" lon="8.449382310804443"><ele>26.599999999999998</ele><time>2026-03-31T10:19:28Z</time></trkpt><trkpt lat="39.005619961164726" lon="8.449412031988407"><ele>28.0</ele><time>2026-03-31T10:19:29Z</time></trkpt><trkpt lat="39.005727725052644" lon="8.44943598568162"><ele>29.25</ele><time>2026-03-31T10:19:30Z</time></trkpt><trkpt lat="39.00583429403375" lon="8.449465924246104"><ele>30.5</ele><time>2026-03-31T10:19:31Z</time></trkpt><trkpt lat="39.005945587547146" lon="8.449506275255004"><ele>31.75</ele><time>2026-03-31T10:19:32Z</time></trkpt><trkpt lat="39.00606091415082" lon="8.449549677045194"><ele>33.0</ele><time>2026-03-31T10:19:33Z</time></trkpt><trkpt lat="39.00617055548562" lon="8.449591881881611"><ele>33.0</ele><time>2026-03-31T10:19:34Z</time></trkpt><trkpt lat="39.006271687486596" lon="8.449609928239195"><ele>33.0</ele><time>2026-03-31T10:19:35Z</time></trkpt><trkpt lat="39.006361234233324" lon="8.449587430943561"><ele>33.0</ele><time>2026-03-31T10:19:36Z</time></trkpt><trkpt lat="39.00644548796732" lon="8.449541860309068"><ele>33.0</ele><time>2026-03-31T10:19:37Z</time></trkpt><trkpt lat="39.006530660911515" lon="8.449504016164644"><ele>33.0</ele><time>2026-03-31T10:19:38Z</time></trkpt><trkpt lat="39.00662118803144" lon="8.449478019326198"><ele>32.6</ele><time>2026-03-31T10:19:39Z</time></trkpt><trkpt lat="39.00671910958143" lon="8.449469370460173"><ele>32.199999999999996</ele><time>2026-03-31T10:19:40Z</time></trkpt><trkpt lat="39.006823096722705" lon="8.449467613986725"><ele>31.8</ele><time>2026-03-31T10:19:41Z</time></trkpt><trkpt lat="39.00693611519795" lon="8.449473116775426"><ele>31.4</ele><time>2026-03-31T10:19:42Z</time></trkpt><trkpt lat="39.00705573876473" lon="8.449480860137896"><ele>31.0</ele><time>2026-03-31T10:19:43Z</time></trkpt><trkpt lat="39.00717828786218" lon="8.44948901466479"><ele>31.0</ele><time>2026-03-31T10:19:44Z</time></trkpt><trkpt lat="39.007301438675945" lon="8.449492318027882"><ele>31.0</ele><time>2026-03-31T10:19:45Z</time></trkpt><trkpt lat="39.00741761881656" lon="8.449484713455973"><ele>31.0</ele><time>2026-03-31T10:19:46Z</time></trkpt><trkpt lat="39.007521666413325" lon="8.44946622348415"><ele>31.0</ele><time>2026-03-31T10:19:47Z</time></trkpt><trkpt lat="39.00761914772326" lon="8.449456318528679"><ele>31.0</ele><time>2026-03-31T10:19:48Z</time></trkpt><trkpt lat="39.00772031058125" lon="8.449452217823316"><ele>29.25</ele><time>2026-03-31T10:19:49Z</time></trkpt><trkpt lat="39.00782664363631" lon="8.449445908919268"><ele>27.5</ele><time>2026-03-31T10:19:50Z</time></trkpt><trkpt lat="39.007941226702975" lon="8.449427569706604"><ele>25.75</ele><time>2026-03-31T10:19:51Z</time></trkpt><trkpt lat="39.008063203942" lon="8.44939309701419"><ele>24.0</ele><time>2026-03-31T10:19:52Z</time></trkpt><trkpt lat="39.00818603242187" lon="8.449357643979923"><ele>24.0</ele><time>2026-03-31T10:19:53Z</time></trkpt><trkpt lat="39.00831401650143" lon="8.449331700156852"><ele>24.0</ele><time>2026-03-31T10:19:54Z</time></trkpt><trkpt lat="39.00844035878203" lon="8.44931173220823"><ele>24.0</ele><time>2026-03-31T10:19:55Z</time></trkpt><trkpt lat="39.008547817081464" lon="8.449243268848413"><ele>24.0</ele><time>2026-03-31T10:19:56Z</time></trkpt><trkpt lat="39.00864530267451" lon="8.449172395130098"><ele>24.333333333333332</ele><time>2026-03-31T10:19:57Z</time></trkpt><trkpt lat="39.0087302548361" lon="8.449090490121499"><ele>24.666666666666664</ele><time>2026-03-31T10:19:58Z</time></trkpt><trkpt lat="39.008801189611724" lon="8.449011612921563"><ele>25.0</ele><time>2026-03-31T10:19:59Z</time></trkpt><trkpt lat="39.008869730652705" lon="8.448940324665545"><ele>25.333333333333332</ele><time>2026-03-31T10:20:00Z</time></trkpt><trkpt lat="39.00893465609333" lon="8.448870732543163"><ele>25.666666666666664</ele><time>2026-03-31T10:20:01Z</time></trkpt><trkpt lat="39.00899553222052" lon="8.44881057313194"><ele>26.0</ele><time>2026-03-31T10:20:02Z</time></trkpt><trkpt lat="39.009051446366996" lon="8.448760946992731"><ele>26.0</ele><time>2026-03-31T10:20:03Z</time></trkpt><trkpt lat="39.00915380197284" lon="8.448691610277104"><ele>26.0</ele><time>2026-03-31T10:20:05Z</time></trkpt><trkpt lat="39.00925709051748" lon="8.448621207416926"><ele>26.0</ele><time>2026-03-31T10:20:07Z</time></trkpt><trkpt lat="39.00932069179393" lon="8.448586353390853"><ele>26.0</ele><time>2026-03-31T10:20:08Z</time></trkpt><trkpt lat="39.009400460430165" lon="8.448559500860794"><ele>26.0</ele><time>2026-03-31T10:20:09Z</time></trkpt><trkpt lat="39.00947874304038" lon="8.448540069351068"><ele>23.833333333333332</ele><time>2026-03-31T10:20:10Z</time></trkpt><trkpt lat="39.009561443303326" lon="8.448547045387624"><ele>21.666666666666664</ele><time>2026-03-31T10:20:11Z</time></trkpt><trkpt lat="39.009643111708066" lon="8.448517813305608"><ele>19.5</ele><time>2026-03-31T10:20:12Z</time></trkpt><trkpt lat="39.00972639143951" lon="8.448521669842439"><ele>17.333333333333332</ele><time>2026-03-31T10:20:13Z</time></trkpt><trkpt lat="39.009812949606825" lon="8.448527931661117"><ele>15.166666666666664</ele><time>2026-03-31T10:20:14Z</time></trkpt><trkpt lat="39.00990218830494" lon="8.448545341934198"><ele>13.0</ele><time>2026-03-31T10:20:15Z</time></trkpt><trkpt lat="39.00998400459096" lon="8.448581477089155"><ele>12.833333333333332</ele><time>2026-03-31T10:20:16Z</time></trkpt><trkpt lat="39.01005275508838" lon="8.448633015627065"><ele>12.666666666666666</ele><time>2026-03-31T10:20:17Z</time></trkpt><trkpt lat="39.01011296285281" lon="8.448682479504015"><ele>12.5</ele><time>2026-03-31T10:20:18Z</time></trkpt><trkpt lat="39.010169823353095" lon="8.448726228356453"><ele>12.333333333333332</ele><time>2026-03-31T10:20:19Z</time></trkpt><trkpt lat="39.01023315531099" lon="8.44877629588177"><ele>12.166666666666666</ele><time>2026-03-31T10:20:20Z</time></trkpt><trkpt lat="39.010297868533854" lon="8.44883486403499"><ele>12.0</ele><time>2026-03-31T10:20:21Z</time></trkpt><trkpt lat="39.01036968298391" lon="8.448901227957725"><ele>10.4</ele><time>2026-03-31T10:20:22Z</time></trkpt><trkpt lat="39.010447834962434" lon="8.448964637582268"><ele>8.799999999999999</ele><time>2026-03-31T10:20:23Z</time></trkpt><trkpt lat="39.01053146377907" lon="8.449031131948605"><ele>7.2</ele><time>2026-03-31T10:20:24Z</time></trkpt><trkpt lat="39.01061252778607" lon="8.44909431902867"><ele>5.6</ele><time>2026-03-31T10:20:25Z</time></trkpt><trkpt lat="39.010698939835535" lon="8.449159063872518"><ele>4.0</ele><time>2026-03-31T10:20:26Z</time></trkpt><trkpt lat="39.01078760225789" lon="8.449227706774144"><ele>5.6</ele><time>2026-03-31T10:20:27Z</time></trkpt><trkpt lat="39.010873634526064" lon="8.4492971619386"><ele>7.2</ele><time>2026-03-31T10:20:28Z</time></trkpt><trkpt lat="39.01096078674807" lon="8.44936512298841"><ele>8.799999999999999</ele><time>2026-03-31T10:20:29Z</time></trkpt><trkpt lat="39.01104610244514" lon="8.449434805586671"><ele>10.4</ele><time>2026-03-31T10:20:30Z</time></trkpt><trkpt lat="39.01113422711067" lon="8.449494447445351"><ele>12.0</ele><time>2026-03-31T10:20:31Z</time></trkpt><trkpt lat="39.011224487927365" lon="8.44953151256032"><ele>12.0</ele><time>2026-03-31T10:20:32Z</time></trkpt><trkpt lat="39.011314927270206" lon="8.44956196299669"><ele>12.0</ele><time>2026-03-31T10:20:33Z</time></trkpt><trkpt lat="39.01140111027896" lon="8.44958906457311"><ele>12.0</ele><time>2026-03-31T10:20:34Z</time></trkpt><trkpt lat="39.01148619075909" lon="8.449609894847839"><ele>12.0</ele><time>2026-03-31T10:20:35Z</time></trkpt><trkpt lat="39.01157011459564" lon="8.449627442360576"><ele>12.0</ele><time>2026-03-31T10:20:36Z</time></trkpt><trkpt lat="39.01165597060247" lon="8.449650433590168"><ele>12.0</ele><time>2026-03-31T10:20:37Z</time></trkpt><trkpt lat="39.01173729608768" lon="8.449678199409068"><ele>12.5</ele><time>2026-03-31T10:20:38Z</time></trkpt><trkpt lat="39.01182044343538" lon="8.449713264991697"><ele>13.0</ele><time>2026-03-31T10:20:39Z</time></trkpt><trkpt lat="39.01190459941068" lon="8.449741254984671"><ele>13.5</ele><time>2026-03-31T10:20:40Z</time></trkpt><trkpt lat="39.01198269019346" lon="8.44976679446831"><ele>14.0</ele><time>2026-03-31T10:20:41Z</time></trkpt><trkpt lat="39.0120644724214" lon="8.449788478374392"><ele>14.5</ele><time>2026-03-31T10:20:42Z</time></trkpt><trkpt lat="39.01214292475294" lon="8.449805503345447"><ele>15.0</ele><time>2026-03-31T10:20:43Z</time></trkpt><trkpt lat="39.01222418183922" lon="8.449847452293785"><ele>15.0</ele><time>2026-03-31T10:20:44Z</time></trkpt><trkpt lat="39.01231473315395" lon="8.449872047808377"><ele>15.0</ele><time>2026-03-31T10:20:45Z</time></trkpt><trkpt lat="39.012392683849264" lon="8.449932968610455"><ele>15.0</ele><time>2026-03-31T10:20:46Z</time></trkpt><trkpt lat="39.01246730383183" lon="8.450001196184536"><ele>15.0</ele><time>2026-03-31T10:20:47Z</time></trkpt><trkpt lat="39.01254489831873" lon="8.450069666890883"><ele>15.0</ele><time>2026-03-31T10:20:48Z</time></trkpt><trkpt lat="39.0126327321513" lon="8.450126197976203"><ele>16.2</ele><time>2026-03-31T10:20:49Z</time></trkpt><trkpt lat="39.01273082112628" lon="8.450161707508162"><ele>17.4</ele><time>2026-03-31T10:20:50Z</time></trkpt><trkpt lat="39.01283750238841" lon="8.45018059338691"><ele>18.6</ele><time>2026-03-31T10:20:51Z</time></trkpt><trkpt lat="39.012947956093704" lon="8.450187637429329"><ele>19.8</ele><time>2026-03-31T10:20:52Z</time></trkpt><trkpt lat="39.013058896852264" lon="8.450191442016298"><ele>21.0</ele><time>2026-03-31T10:20:53Z</time></trkpt><trkpt lat="39.01317342101295" lon="8.450178739963471"><ele>21.0</ele><time>2026-03-31T10:20:54Z</time></trkpt><trkpt lat="39.013290685315695" lon="8.450152394807917"><ele>21.0</ele><time>2026-03-31T10:20:55Z</time></trkpt><trkpt lat="39.01340005763366" lon="8.450146691705234"><ele>21.0</ele><time>2026-03-31T10:20:56Z</time></trkpt><trkpt lat="39.013512148536606" lon="8.450151927574872"><ele>21.0</ele><time>2026-03-31T10:20:57Z</time></trkpt><trkpt lat="39.013627432030674" lon="8.450157117905277"><ele>21.5</ele><time>2026-03-31T10:20:58Z</time></trkpt><trkpt lat="39.01374710475511" lon="8.4501529198859"><ele>22.0</ele><time>2026-03-31T10:20:59Z</time></trkpt><trkpt lat="39.013872179613934" lon="8.450145310791141"><ele>22.5</ele><time>2026-03-31T10:21:00Z</time></trkpt><trkpt lat="39.01399682885183" lon="8.450121597626556"><ele>23.0</ele><time>2026-03-31T10:21:01Z</time></trkpt><trkpt lat="39.01411680511214" lon="8.450083661958706"><ele>22.799999999999997</ele><time>2026-03-31T10:21:02Z</time></trkpt><trkpt lat="39.014224968860965" lon="8.450043621696565"><ele>22.6</ele><time>2026-03-31T10:21:03Z</time></trkpt><trkpt lat="39.01432711992208" lon="8.450006305460938"><ele>22.4</ele><time>2026-03-31T10:21:04Z</time></trkpt><trkpt lat="39.014434131139424" lon="8.449982022544948"><ele>22.200000000000003</ele><time>2026-03-31T10:21:05Z</time></trkpt><trkpt lat="39.01454121003855" lon="8.449959342834836"><ele>22.0</ele><time>2026-03-31T10:21:06Z</time></trkpt><trkpt lat="39.01464444636535" lon="8.449920446082485"><ele>22.0</ele><time>2026-03-31T10:21:07Z</time></trkpt><trkpt lat="39.014738826834545" lon="8.449872966081985"><ele>22.0</ele><time>2026-03-31T10:21:08Z</time></trkpt><trkpt lat="39.01482408486992" lon="8.44982150390931"><ele>22.0</ele><time>2026-03-31T10:21:09Z</time></trkpt><trkpt lat="39.014899328851826" lon="8.449756636458524"><ele>22.0</ele><time>2026-03-31T10:21:10Z</time></trkpt><trkpt lat="39.014970577684316" lon="8.44967194328756"><ele>22.0</ele><time>2026-03-31T10:21:11Z</time></trkpt><trkpt lat="39.01502293742987" lon="8.449584435929108"><ele>21.833333333333332</ele><time>2026-03-31T10:21:12Z</time></trkpt><trkpt lat="39.01506157346162" lon="8.449497164765521"><ele>21.666666666666664</ele><time>2026-03-31T10:21:13Z</time></trkpt><trkpt lat="39.01509600480367" lon="8.449406905338043"><ele>21.5</ele><time>2026-03-31T10:21:14Z</time></trkpt><trkpt lat="39.01513851992581" lon="8.449320681882117"><ele>21.333333333333332</ele><time>2026-03-31T10:21:15Z</time></trkpt><trkpt lat="39.015192115391585" lon="8.449238690032116"><ele>21.166666666666668</ele><time>2026-03-31T10:21:16Z</time></trkpt><trkpt lat="39.01525307223061" lon="8.44915459546247"><ele>21.0</ele><time>2026-03-31T10:21:17Z</time></trkpt><trkpt lat="39.015324746772485" lon="8.449071976844998"><ele>21.0</ele><time>2026-03-31T10:21:18Z</time></trkpt><trkpt lat="39.01541222095979" lon="8.44899254390889"><ele>21.0</ele><time>2026-03-31T10:21:19Z</time></trkpt><trkpt lat="39.01549488107213" lon="8.448911308706572"><ele>21.0</ele><time>2026-03-31T10:21:20Z</time></trkpt><trkpt lat="39.01557434086277" lon="8.448827313142873"><ele>21.0</ele><time>2026-03-31T10:21:21Z</time></trkpt><trkpt lat="39.01564868056821" lon="8.448737056714712"><ele>21.0</ele><time>2026-03-31T10:21:22Z</time></trkpt><trkpt lat="39.01572622982752" lon="8.44864803669231"><ele>22.75</ele><time>2026-03-31T10:21:23Z</time></trkpt><trkpt lat="39.01580923881221" lon="8.448557834915047"><ele>24.5</ele><time>2026-03-31T10:21:24Z</time></trkpt><trkpt lat="39.01589655210223" lon="8.448470599217423"><ele>26.25</ele><time>2026-03-31T10:21:25Z</time></trkpt><trkpt lat="39.01598267789138" lon="8.448373504388636"><ele>28.0</ele><time>2026-03-31T10:21:26Z</time></trkpt><trkpt lat="39.01606252260976" lon="8.448262980888016"><ele>25.799999999999997</ele><time>2026-03-31T10:21:27Z</time></trkpt><trkpt lat="39.01613011616592" lon="8.448148939917832"><ele>23.599999999999998</ele><time>2026-03-31T10:21:28Z</time></trkpt><trkpt lat="39.01618176731374" lon="8.448025127785572"><ele>21.4</ele><time>2026-03-31T10:21:29Z</time></trkpt><trkpt lat="39.01622070923691" lon="8.44789400004562"><ele>19.2</ele><time>2026-03-31T10:21:30Z</time></trkpt><trkpt lat="39.0162635920732" lon="8.447771711435452"><ele>17.0</ele><time>2026-03-31T10:21:31Z</time></trkpt><trkpt lat="39.01631312863359" lon="8.447634662181198"><ele>17.0</ele><time>2026-03-31T10:21:32Z</time></trkpt><trkpt lat="39.01636177163836" lon="8.447499820109554"><ele>17.0</ele><time>2026-03-31T10:21:33Z</time></trkpt><trkpt lat="39.0164084574893" lon="8.447366580996734"><ele>17.0</ele><time>2026-03-31T10:21:34Z</time></trkpt><trkpt lat="39.01645772169271" lon="8.447240546508253"><ele>17.0</ele><time>2026-03-31T10:21:35Z</time></trkpt><trkpt lat="39.01651640813689" lon="8.44711943921623"><ele>17.2</ele><time>2026-03-31T10:21:36Z</time></trkpt><trkpt lat="39.01658676105333" lon="8.447012120396808"><ele>17.4</ele><time>2026-03-31T10:21:37Z</time></trkpt><trkpt lat="39.01665472996089" lon="8.44691681166111"><ele>17.6</ele><time>2026-03-31T10:21:38Z</time></trkpt><trkpt lat="39.01671521250051" lon="8.446824949918856"><ele>17.8</ele><time>2026-03-31T10:21:39Z</time></trkpt><trkpt lat="39.01677070414016" lon="8.446725417766274"><ele>18.0</ele><time>2026-03-31T10:21:40Z</time></trkpt><trkpt lat="39.01682478084012" lon="8.446619925016508"><ele>18.0</ele><time>2026-03-31T10:21:41Z</time></trkpt><trkpt lat="39.01687911255452" lon="8.446507231444054"><ele>18.0</ele><time>2026-03-31T10:21:42Z</time></trkpt><trkpt lat="39.01692926599362" lon="8.446404142674576"><ele>18.0</ele><time>2026-03-31T10:21:43Z</time></trkpt><trkpt lat="39.01697201278272" lon="8.44630983503153"><ele>18.0</ele><time>2026-03-31T10:21:44Z</time></trkpt><trkpt lat="39.017012289260315" lon="8.446228193816893"><ele>18.0</ele><time>2026-03-31T10:21:45Z</time></trkpt><trkpt lat="39.01705000361251" lon="8.446159570783935"><ele>18.0</ele><time>2026-03-31T10:21:46Z</time></trkpt><trkpt lat="39.01713247890694" lon="8.446051641041377"><ele>18.666666666666668</ele><time>2026-03-31T10:21:48Z</time></trkpt><trkpt lat="39.01723639609598" lon="8.44598139053825"><ele>19.333333333333332</ele><time>2026-03-31T10:21:50Z</time></trkpt><trkpt lat="39.01730149066855" lon="8.445958345883337"><ele>20.0</ele><time>2026-03-31T10:21:51Z</time></trkpt><trkpt lat="39.01738071504337" lon="8.4459421976883"><ele>20.666666666666664</ele><time>2026-03-31T10:21:52Z</time></trkpt><trkpt lat="39.01745965694627" lon="8.445921247979745"><ele>21.333333333333332</ele><time>2026-03-31T10:21:53Z</time></trkpt><trkpt lat="39.01754625026943" lon="8.445900392295847"><ele>22.0</ele><time>2026-03-31T10:21:54Z</time></trkpt><trkpt lat="39.017634478188185" lon="8.445881847735821"><ele>22.400000000000002</ele><time>2026-03-31T10:21:55Z</time></trkpt><trkpt lat="39.017726215340964" lon="8.44586369692927"><ele>22.8</ele><time>2026-03-31T10:21:56Z</time></trkpt><trkpt lat="39.01781969837503" lon="8.445849871875636"><ele>23.2</ele><time>2026-03-31T10:21:57Z</time></trkpt><trkpt lat="39.01791765369815" lon="8.445839258890901"><ele>23.6</ele><time>2026-03-31T10:21:58Z</time></trkpt><trkpt lat="39.01801675034508" lon="8.445822982307378"><ele>24.0</ele><time>2026-03-31T10:21:59Z</time></trkpt><trkpt lat="39.01811557321516" lon="8.445808731464934"><ele>24.0</ele><time>2026-03-31T10:22:00Z</time></trkpt><trkpt lat="39.01821859484801" lon="8.445796240568615"><ele>24.0</ele><time>2026-03-31T10:22:01Z</time></trkpt><trkpt lat="39.018330754973285" lon="8.445794158068768"><ele>24.0</ele><time>2026-03-31T10:22:02Z</time></trkpt><trkpt lat="39.018447506509936" lon="8.445812076528474"><ele>24.0</ele><time>2026-03-31T10:22:03Z</time></trkpt><trkpt lat="39.01856601595783" lon="8.445847491680874"><ele>24.5</ele><time>2026-03-31T10:22:04Z</time></trkpt><trkpt lat="39.018685869722084" lon="8.445899241799305"><ele>25.0</ele><time>2026-03-31T10:22:05Z</time></trkpt><trkpt lat="39.01880404185795" lon="8.445948915711986"><ele>25.5</ele><time>2026-03-31T10:22:06Z</time></trkpt><trkpt lat="39.01891966690503" lon="8.446008213904973"><ele>26.0</ele><time>2026-03-31T10:22:07Z</time></trkpt><trkpt lat="39.01903503294852" lon="8.446067424994059"><ele>25.5</ele><time>2026-03-31T10:22:08Z</time></trkpt><trkpt lat="39.01915228698779" lon="8.446125963244265"><ele>25.0</ele><time>2026-03-31T10:22:09Z</time></trkpt><trkpt lat="39.01927151787562" lon="8.446187835465782"><ele>24.5</ele><time>2026-03-31T10:22:10Z</time></trkpt><trkpt lat="39.01939310825202" lon="8.446251332886717"><ele>24.0</ele><time>2026-03-31T10:22:11Z</time></trkpt><trkpt lat="39.01951951781548" lon="8.446314639649234"><ele>24.0</ele><time>2026-03-31T10:22:12Z</time></trkpt><trkpt lat="39.019649155274394" lon="8.446380815390098"><ele>24.0</ele><time>2026-03-31T10:22:13Z</time></trkpt><trkpt lat="39.019781122704394" lon="8.446449203065399"><ele>24.0</ele><time>2026-03-31T10:22:14Z</time></trkpt><trkpt lat="39.01991802668688" lon="8.446507699223512"><ele>24.0</ele><time>2026-03-31T10:22:15Z</time></trkpt><trkpt lat="39.020054539023555" lon="8.44657819524904"><ele>22.5</ele><time>2026-03-31T10:22:16Z</time></trkpt><trkpt lat="39.020192323549225" lon="8.446650960211311"><ele>21.0</ele><time>2026-03-31T10:22:17Z</time></trkpt><trkpt lat="39.02032960324653" lon="8.446726535126109"><ele>19.5</ele><time>2026-03-31T10:22:18Z</time></trkpt><trkpt lat="39.020463166757466" lon="8.44680048416132"><ele>18.0</ele><time>2026-03-31T10:22:19Z</time></trkpt><trkpt lat="39.02059574099817" lon="8.446863565282431"><ele>18.0</ele><time>2026-03-31T10:22:20Z</time></trkpt><trkpt lat="39.02073644023302" lon="8.446910945409366"><ele>18.0</ele><time>2026-03-31T10:22:21Z</time></trkpt><trkpt lat="39.02087946155579" lon="8.446942621634014"><ele>18.0</ele><time>2026-03-31T10:22:22Z</time></trkpt><trkpt lat="39.021026399016456" lon="8.446967310064775"><ele>18.0</ele><time>2026-03-31T10:22:23Z</time></trkpt><trkpt lat="39.02117683763902" lon="8.446988338042416"><ele>17.666666666666668</ele><time>2026-03-31T10:22:24Z</time></trkpt><trkpt lat="39.021329659582065" lon="8.447003696877966"><ele>17.333333333333336</ele><time>2026-03-31T10:22:25Z</time></trkpt><trkpt lat="39.02148342377935" lon="8.447020964874499"><ele>17.0</ele><time>2026-03-31T10:22:26Z</time></trkpt><trkpt lat="39.0216400576349" lon="8.447041687618603"><ele>15.666666666666668</ele><time>2026-03-31T10:22:27Z</time></trkpt><trkpt lat="39.02180160312841" lon="8.44706902727332"><ele>14.333333333333332</ele><time>2026-03-31T10:22:28Z</time></trkpt><trkpt lat="39.021965946974994" lon="8.447095159665759"><ele>13.0</ele><time>2026-03-31T10:22:29Z</time></trkpt><trkpt lat="39.02212651627623" lon="8.447110178526138"><ele>11.0</ele><time>2026-03-31T10:22:30Z</time></trkpt><trkpt lat="39.022291884900234" lon="8.447129277689399"><ele>9.0</ele><time>2026-03-31T10:22:31Z</time></trkpt><trkpt lat="39.02244877432428" lon="8.447148031126963"><ele>7.0</ele><time>2026-03-31T10:22:32Z</time></trkpt><trkpt lat="39.0226048344328" lon="8.447171735921984"><ele>7.0</ele><time>2026-03-31T10:22:33Z</time></trkpt><trkpt lat="39.02275456863838" lon="8.447189028370461"><ele>7.0</ele><time>2026-03-31T10:22:34Z</time></trkpt><trkpt lat="39.02290434798969" lon="8.447204790638644"><ele>7.0</ele><time>2026-03-31T10:22:35Z</time></trkpt><trkpt lat="39.023048411491594" lon="8.44721952232323"><ele>7.0</ele><time>2026-03-31T10:22:36Z</time></trkpt><trkpt lat="39.0231840975967" lon="8.447243792785198"><ele>7.0</ele><time>2026-03-31T10:22:37Z</time></trkpt><trkpt lat="39.02331170950232" lon="8.447273086244442"><ele>7.0</ele><time>2026-03-31T10:22:38Z</time></trkpt><trkpt lat="39.02343846090631" lon="8.447310898480927"><ele>7.0</ele><time>2026-03-31T10:22:39Z</time></trkpt><trkpt lat="39.02356362511036" lon="8.447338034361229"><ele>7.0</ele><time>2026-03-31T10:22:40Z</time></trkpt><trkpt lat="39.02368391267138" lon="8.447378144259298"><ele>6.5</ele><time>2026-03-31T10:22:41Z</time></trkpt><trkpt lat="39.02380062753937" lon="8.447428510190354"><ele>6.0</ele><time>2026-03-31T10:22:42Z</time></trkpt><trkpt lat="39.023912474342666" lon="8.447487199271993"><ele>5.5</ele><time>2026-03-31T10:22:43Z</time></trkpt><trkpt lat="39.02402572899162" lon="8.447558025444055"><ele>5.0</ele><time>2026-03-31T10:22:44Z</time></trkpt><trkpt lat="39.02413861031454" lon="8.447634448439882"><ele>5.0</ele><time>2026-03-31T10:22:45Z</time></trkpt><trkpt lat="39.0242475136371" lon="8.447714787988152"><ele>5.0</ele><time>2026-03-31T10:22:46Z</time></trkpt><trkpt lat="39.02435551121128" lon="8.447798612030885"><ele>5.0</ele><time>2026-03-31T10:22:47Z</time></trkpt><trkpt lat="39.024460711749235" lon="8.447881622288019"><ele>5.0</ele><time>2026-03-31T10:22:48Z</time></trkpt><trkpt lat="39.02456942768987" lon="8.447958850250338"><ele>4.5</ele><time>2026-03-31T10:22:49Z</time></trkpt><trkpt lat="39.02468456494764" lon="8.448035006402327"><ele>4.0</ele><time>2026-03-31T10:22:50Z</time></trkpt><trkpt lat="39.024800294488834" lon="8.448115445722927"><ele>3.5</ele><time>2026-03-31T10:22:51Z</time></trkpt><trkpt lat="39.02491847183763" lon="8.44819730475397"><ele>3.0</ele><time>2026-03-31T10:22:52Z</time></trkpt><trkpt lat="39.025039527396316" lon="8.448280584449781"><ele>3.0</ele><time>2026-03-31T10:22:53Z</time></trkpt><trkpt lat="39.025160960246005" lon="8.448370519736883"><ele>3.0</ele><time>2026-03-31T10:22:54Z</time></trkpt><trkpt lat="39.02528426385345" lon="8.448464451476935"><ele>3.0</ele><time>2026-03-31T10:22:55Z</time></trkpt><trkpt lat="39.02540700666565" lon="8.448561259486691"><ele>3.0</ele><time>2026-03-31T10:22:56Z</time></trkpt><trkpt lat="39.02551994667012" lon="8.448664900013638"><ele>3.0</ele><time>2026-03-31T10:22:57Z</time></trkpt><trkpt lat="39.02563003555539" lon="8.448775370111772"><ele>3.0</ele><time>2026-03-31T10:22:58Z</time></trkpt><trkpt lat="39.02574808244584" lon="8.448860266045061"><ele>3.0</ele><time>2026-03-31T10:22:59Z</time></trkpt><trkpt lat="39.02586104707511" lon="8.448939976950413"><ele>3.0</ele><time>2026-03-31T10:23:00Z</time></trkpt><trkpt lat="39.025976094331014" lon="8.449020731649613"><ele>2.0</ele><time>2026-03-31T10:23:01Z</time></trkpt><trkpt lat="39.02593448141978" lon="8.449474131009714"><ele>1.0</ele><time>2026-03-31T10:23:02Z</time></trkpt><trkpt lat="39.025912977100894" lon="8.4496277649869"><ele>1.0</ele><time>2026-03-31T10:23:03Z</time></trkpt><trkpt lat="39.02588010127387" lon="8.44979506144095"><ele>1.0</ele><time>2026-03-31T10:23:04Z</time></trkpt><trkpt lat="39.02585628046271" lon="8.449983035863815"><ele>1.0</ele><time>2026-03-31T10:23:05Z</time></trkpt><trkpt lat="39.02582960891525" lon="8.450183622614388"><ele>1.0</ele><time>2026-03-31T10:23:06Z</time></trkpt><trkpt lat="39.02582767678741" lon="8.450350007782928"><ele>0.3333333333333333</ele><time>2026-03-31T10:23:07Z</time></trkpt><trkpt lat="39.02583114481782" lon="8.450513402726141"><ele>-0.3333333333333333</ele><time>2026-03-31T10:23:08Z</time></trkpt><trkpt lat="39.025844545431596" lon="8.450634351618216"><ele>-1.0</ele><time>2026-03-31T10:23:09Z</time></trkpt><trkpt lat="39.02661418816191" lon="8.450842565366056"><ele>-1.0</ele><time>2026-03-31T10:23:10Z</time></trkpt><trkpt lat="39.02673475158336" lon="8.450939555094845"><ele>-1.0</ele><time>2026-03-31T10:23:11Z</time></trkpt><trkpt lat="39.02688260116082" lon="8.450952110468751"><ele>-1.0</ele><time>2026-03-31T10:23:12Z</time></trkpt><trkpt lat="39.027058612983176" lon="8.450877560710216"><ele>-1.0</ele><time>2026-03-31T10:23:13Z</time></trkpt><trkpt lat="39.027250977879426" lon="8.450738757343679"><ele>-1.0</ele><time>2026-03-31T10:23:14Z</time></trkpt><trkpt lat="39.027416497191325" lon="8.45069499514382"><ele>-1.0</ele><time>2026-03-31T10:23:15Z</time></trkpt><trkpt lat="39.027566859123446" lon="8.450705999320828"><ele>-0.75</ele><time>2026-03-31T10:23:16Z</time></trkpt><trkpt lat="39.02771542799529" lon="8.450726068621606"><ele>-0.5</ele><time>2026-03-31T10:23:17Z</time></trkpt><trkpt lat="39.02786134248958" lon="8.450763802044898"><ele>-0.25</ele><time>2026-03-31T10:23:18Z</time></trkpt><trkpt lat="39.02800241129144" lon="8.450819220439268"><ele>0.0</ele><time>2026-03-31T10:23:19Z</time></trkpt><trkpt lat="39.028146304039275" lon="8.450869444967738"><ele>0.0</ele><time>2026-03-31T10:23:20Z</time></trkpt><trkpt lat="39.028291171419276" lon="8.450910736530146"><ele>0.0</ele><time>2026-03-31T10:23:21Z</time></trkpt><trkpt lat="39.02843481749418" lon="8.45095527221927"><ele>0.0</ele><time>2026-03-31T10:23:22Z</time></trkpt><trkpt lat="39.028577297395074" lon="8.451001852712688"><ele>0.0</ele><time>2026-03-31T10:23:23Z</time></trkpt><trkpt lat="39.02872404688362" lon="8.451053804923895"><ele>0.3333333333333333</ele><time>2026-03-31T10:23:24Z</time></trkpt><trkpt lat="39.02888773054675" lon="8.451053602487805"><ele>0.6666666666666666</ele><time>2026-03-31T10:23:25Z</time></trkpt><trkpt lat="39.02908261810277" lon="8.450960290972978"><ele>1.0</ele><time>2026-03-31T10:23:26Z</time></trkpt><trkpt lat="39.02921541975609" lon="8.451038720832123"><ele>1.0</ele><time>2026-03-31T10:23:27Z</time></trkpt><trkpt lat="39.029347905466494" lon="8.451117742980239"><ele>1.0</ele><time>2026-03-31T10:23:28Z</time></trkpt><trkpt lat="39.02948081914712" lon="8.451198788711809"><ele>1.0</ele><time>2026-03-31T10:23:29Z</time></trkpt><trkpt lat="39.02961120851337" lon="8.451278295304572"><ele>1.0</ele><time>2026-03-31T10:23:30Z</time></trkpt><trkpt lat="39.029734500544436" lon="8.451375711848842"><ele>1.0</ele><time>2026-03-31T10:23:31Z</time></trkpt><trkpt lat="39.029867560864595" lon="8.451443386867494"><ele>1.0</ele><time>2026-03-31T10:23:32Z</time></trkpt><trkpt lat="39.02999925866458" lon="8.451520533785082"><ele>1.0</ele><time>2026-03-31T10:23:33Z</time></trkpt><trkpt lat="39.03013244184101" lon="8.451594145654663"><ele>1.0</ele><time>2026-03-31T10:23:34Z</time></trkpt><trkpt lat="39.03026759773448" lon="8.451667332322787"><ele>1.25</ele><time>2026-03-31T10:23:35Z</time></trkpt><trkpt lat="39.030402130402365" lon="8.451743178150952"><ele>1.5</ele><time>2026-03-31T10:23:36Z</time></trkpt><trkpt lat="39.03054008548387" lon="8.451816690641314"><ele>1.75</ele><time>2026-03-31T10:23:37Z</time></trkpt><trkpt lat="39.03067413821996" lon="8.451890213284118"><ele>2.0</ele><time>2026-03-31T10:23:38Z</time></trkpt><trkpt lat="39.03080683009761" lon="8.451966828224664"><ele>2.25</ele><time>2026-03-31T10:23:39Z</time></trkpt><trkpt lat="39.03092734272024" lon="8.452045716483696"><ele>2.5</ele><time>2026-03-31T10:23:40Z</time></trkpt><trkpt lat="39.03104528887961" lon="8.452116141342021"><ele>2.75</ele><time>2026-03-31T10:23:41Z</time></trkpt><trkpt lat="39.031161729544394" lon="8.452183763242612"><ele>3.0</ele><time>2026-03-31T10:23:42Z</time></trkpt><trkpt lat="39.03128265750268" lon="8.452254127036284"><ele>2.5</ele><time>2026-03-31T10:23:43Z</time></trkpt><trkpt lat="39.03139858931548" lon="8.45232915660479"><ele>2.0</ele><time>2026-03-31T10:23:44Z</time></trkpt><trkpt lat="39.03151313998803" lon="8.452408669264958"><ele>1.5</ele><time>2026-03-31T10:23:45Z</time></trkpt><trkpt lat="39.031629031118875" lon="8.452488993478417"><ele>1.0</ele><time>2026-03-31T10:23:46Z</time></trkpt><trkpt lat="39.031746241871645" lon="8.452574646783763"><ele>1.0</ele><time>2026-03-31T10:23:47Z</time></trkpt><trkpt lat="39.0318623468561" lon="8.452663989769224"><ele>1.0</ele><time>2026-03-31T10:23:48Z</time></trkpt><trkpt lat="39.03198158987423" lon="8.452748852482705"><ele>1.0</ele><time>2026-03-31T10:23:49Z</time></trkpt><trkpt lat="39.032109077784014" lon="8.452819307242331"><ele>1.0</ele><time>2026-03-31T10:23:50Z</time></trkpt><trkpt lat="39.032242143730045" lon="8.452874153237532"><ele>1.0</ele><time>2026-03-31T10:23:51Z</time></trkpt><trkpt lat="39.03237292617726" lon="8.45292825917257"><ele>1.0</ele><time>2026-03-31T10:23:52Z</time></trkpt><trkpt lat="39.03250219487539" lon="8.452983911625026"><ele>1.0</ele><time>2026-03-31T10:23:53Z</time></trkpt><trkpt lat="39.032631850341545" lon="8.453038264219732"><ele>1.0</ele><time>2026-03-31T10:23:54Z</time></trkpt><trkpt lat="39.032761774965124" lon="8.453091394189816"><ele>1.25</ele><time>2026-03-31T10:23:55Z</time></trkpt><trkpt lat="39.03289065594174" lon="8.453148068463504"><ele>1.5</ele><time>2026-03-31T10:23:56Z</time></trkpt><trkpt lat="39.033018761479134" lon="8.453204556928515"><ele>1.75</ele><time>2026-03-31T10:23:57Z</time></trkpt><trkpt lat="39.03314748887446" lon="8.453263831877615"><ele>2.0</ele><time>2026-03-31T10:23:58Z</time></trkpt><trkpt lat="39.03327304403677" lon="8.4533206168344"><ele>2.0</ele><time>2026-03-31T10:23:59Z</time></trkpt><trkpt lat="39.03339607751877" lon="8.453378676655296"><ele>2.0</ele><time>2026-03-31T10:24:00Z</time></trkpt><trkpt lat="39.033521109002315" lon="8.453438485873093"><ele>2.0</ele><time>2026-03-31T10:24:01Z</time></trkpt><trkpt lat="39.033648895212025" lon="8.453497077418742"><ele>2.0</ele><time>2026-03-31T10:24:02Z</time></trkpt><trkpt lat="39.033779674137456" lon="8.453554177594645"><ele>2.0</ele><time>2026-03-31T10:24:03Z</time></trkpt><trkpt lat="39.03391086586719" lon="8.453613689239026"><ele>2.0</ele><time>2026-03-31T10:24:04Z</time></trkpt><trkpt lat="39.03404128935526" lon="8.453682507708315"><ele>2.0</ele><time>2026-03-31T10:24:05Z</time></trkpt><trkpt lat="39.03417688330686" lon="8.45374714934447"><ele>2.0</ele><time>2026-03-31T10:24:06Z</time></trkpt><trkpt lat="39.034303783231636" lon="8.453841964311586"><ele>2.0</ele><time>2026-03-31T10:24:07Z</time></trkpt><trkpt lat="39.034436876969465" lon="8.45392269219619"><ele>2.0</ele><time>2026-03-31T10:24:08Z</time></trkpt><trkpt lat="39.034564038858655" lon="8.454020453321249"><ele>2.0</ele><time>2026-03-31T10:24:09Z</time></trkpt><trkpt lat="39.03468907658607" lon="8.454112330420372"><ele>2.0</ele><time>2026-03-31T10:24:10Z</time></trkpt><trkpt lat="39.03481173382667" lon="8.454201066971967"><ele>2.0</ele><time>2026-03-31T10:24:11Z</time></trkpt><trkpt lat="39.03494170514555" lon="8.454282955306692"><ele>2.0</ele><time>2026-03-31T10:24:12Z</time></trkpt><trkpt lat="39.0350764579995" lon="8.454353226679295"><ele>2.0</ele><time>2026-03-31T10:24:13Z</time></trkpt><trkpt lat="39.03521382681533" lon="8.454402983999403"><ele>2.0</ele><time>2026-03-31T10:24:14Z</time></trkpt><trkpt lat="39.03535718707466" lon="8.454418656534843"><ele>2.25</ele><time>2026-03-31T10:24:15Z</time></trkpt><trkpt lat="39.03550150469578" lon="8.454449593809418"><ele>2.5</ele><time>2026-03-31T10:24:16Z</time></trkpt><trkpt lat="39.035646666363704" lon="8.454452308799357"><ele>2.75</ele><time>2026-03-31T10:24:17Z</time></trkpt><trkpt lat="39.035791473641" lon="8.454439752735432"><ele>3.0</ele><time>2026-03-31T10:24:18Z</time></trkpt><trkpt lat="39.03593426159776" lon="8.454418875214811"><ele>3.0</ele><time>2026-03-31T10:24:19Z</time></trkpt><trkpt lat="39.03605595609715" lon="8.454400023907013"><ele>3.0</ele><time>2026-03-31T10:24:20Z</time></trkpt><trkpt lat="39.03616519469362" lon="8.454379794113441"><ele>3.0</ele><time>2026-03-31T10:24:21Z</time></trkpt><trkpt lat="39.03627116314369" lon="8.454366786119465"><ele>3.0</ele><time>2026-03-31T10:24:22Z</time></trkpt><trkpt lat="39.03637577087665" lon="8.454357606473282"><ele>3.0</ele><time>2026-03-31T10:24:23Z</time></trkpt><trkpt lat="39.03648490931246" lon="8.454345266482512"><ele>3.0</ele><time>2026-03-31T10:24:24Z</time></trkpt><trkpt lat="39.036591436068605" lon="8.45432660487453"><ele>3.0</ele><time>2026-03-31T10:24:25Z</time></trkpt><trkpt lat="39.03670551751646" lon="8.454314155882589"><ele>3.0</ele><time>2026-03-31T10:24:26Z</time></trkpt><trkpt lat="39.03682292101329" lon="8.45430202569538"><ele>3.0</ele><time>2026-03-31T10:24:27Z</time></trkpt><trkpt lat="39.036945117147624" lon="8.454283084600704"><ele>3.5</ele><time>2026-03-31T10:24:28Z</time></trkpt><trkpt lat="39.03706826200152" lon="8.454264046951272"><ele>4.0</ele><time>2026-03-31T10:24:29Z</time></trkpt><trkpt lat="39.03719238268134" lon="8.45425011741444"><ele>4.5</ele><time>2026-03-31T10:24:30Z</time></trkpt><trkpt lat="39.03732598365154" lon="8.454243523490746"><ele>5.0</ele><time>2026-03-31T10:24:31Z</time></trkpt><trkpt lat="39.03745800315493" lon="8.454233937116339"><ele>4.75</ele><time>2026-03-31T10:24:32Z</time></trkpt><trkpt lat="39.03759070675165" lon="8.454208267826324"><ele>4.5</ele><time>2026-03-31T10:24:33Z</time></trkpt><trkpt lat="39.0377259011859" lon="8.454198503961775"><ele>4.25</ele><time>2026-03-31T10:24:34Z</time></trkpt><trkpt lat="39.03786450891791" lon="8.45420543121585"><ele>4.0</ele><time>2026-03-31T10:24:35Z</time></trkpt><trkpt lat="39.0380077302956" lon="8.454226950570511"><ele>4.0</ele><time>2026-03-31T10:24:36Z</time></trkpt><trkpt lat="39.038146866832996" lon="8.454249355053683"><ele>4.0</ele><time>2026-03-31T10:24:37Z</time></trkpt><trkpt lat="39.03827031873228" lon="8.454269672397963"><ele>4.0</ele><time>2026-03-31T10:24:38Z</time></trkpt><trkpt lat="39.03839364722066" lon="8.454273869402096"><ele>4.0</ele><time>2026-03-31T10:24:39Z</time></trkpt><trkpt lat="39.038519922385376" lon="8.454294504187827"><ele>4.0</ele><time>2026-03-31T10:24:40Z</time></trkpt><trkpt lat="39.0386437767221" lon="8.454323210487226"><ele>4.0</ele><time>2026-03-31T10:24:41Z</time></trkpt><trkpt lat="39.03876371878557" lon="8.45433588959551"><ele>4.0</ele><time>2026-03-31T10:24:42Z</time></trkpt><trkpt lat="39.03888891794324" lon="8.454354725074529"><ele>4.0</ele><time>2026-03-31T10:24:43Z</time></trkpt><trkpt lat="39.0390166326384" lon="8.454371855348157"><ele>4.0</ele><time>2026-03-31T10:24:44Z</time></trkpt><trkpt lat="39.039145827947564" lon="8.454387304568789"><ele>4.0</ele><time>2026-03-31T10:24:45Z</time></trkpt><trkpt lat="39.039278842909845" lon="8.454406721725466"><ele>4.0</ele><time>2026-03-31T10:24:46Z</time></trkpt><trkpt lat="39.03941085513572" lon="8.454424939322891"><ele>4.0</ele><time>2026-03-31T10:24:47Z</time></trkpt><trkpt lat="39.03953424772061" lon="8.454448342782454"><ele>4.0</ele><time>2026-03-31T10:24:48Z</time></trkpt><trkpt lat="39.03965995951005" lon="8.45446895417851"><ele>4.0</ele><time>2026-03-31T10:24:49Z</time></trkpt><trkpt lat="39.03979127559791" lon="8.454483053267642"><ele>4.0</ele><time>2026-03-31T10:24:50Z</time></trkpt><trkpt lat="39.03990630663267" lon="8.454496447648664"><ele>4.0</ele><time>2026-03-31T10:24:51Z</time></trkpt><trkpt lat="39.04000960510086" lon="8.454500291570147"><ele>3.9999999999999996</ele><time>2026-03-31T10:24:52Z</time></trkpt><trkpt lat="39.04010837165392" lon="8.454495958898715"><ele>4.0</ele><time>2026-03-31T10:24:53Z</time></trkpt><trkpt lat="39.040201424580665" lon="8.454477216248987"><ele>4.0</ele><time>2026-03-31T10:24:54Z</time></trkpt><trkpt lat="39.04028841018721" lon="8.454446552737052"><ele>4.0</ele><time>2026-03-31T10:24:55Z</time></trkpt><trkpt lat="39.04037105449052" lon="8.454423743792388"><ele>3.9999999999999996</ele><time>2026-03-31T10:24:56Z</time></trkpt><trkpt lat="39.040443095277055" lon="8.454423070859699"><ele>4.0</ele><time>2026-03-31T10:24:57Z</time></trkpt><trkpt lat="39.0405057495599" lon="8.454441535494235"><ele>4.0</ele><time>2026-03-31T10:24:58Z</time></trkpt><trkpt lat="39.04059183360528" lon="8.454520360563567"><ele>4.0</ele><time>2026-03-31T10:25:00Z</time></trkpt><trkpt lat="39.040676834205776" lon="8.454612322159065"><ele>4.0</ele><time>2026-03-31T10:25:02Z</time></trkpt><trkpt lat="39.04075972854299" lon="8.454611543198247"><ele>4.0</ele><time>2026-03-31T10:25:03Z</time></trkpt><trkpt lat="39.04082333656724" lon="8.454708985069747"><ele>4.0</ele><time>2026-03-31T10:25:04Z</time></trkpt><trkpt lat="39.04090159472184" lon="8.454788848597502"><ele>3.6</ele><time>2026-03-31T10:25:05Z</time></trkpt><trkpt lat="39.04098567972356" lon="8.454862388089783"><ele>3.2</ele><time>2026-03-31T10:25:06Z</time></trkpt><trkpt lat="39.04107712340264" lon="8.454933857186035"><ele>2.8000000000000003</ele><time>2026-03-31T10:25:07Z</time></trkpt><trkpt lat="39.04116258419529" lon="8.454996285069054"><ele>2.4000000000000004</ele><time>2026-03-31T10:25:08Z</time></trkpt><trkpt lat="39.04125342023247" lon="8.455060100571453"><ele>2.0</ele><time>2026-03-31T10:25:09Z</time></trkpt><trkpt lat="39.0413356785082" lon="8.455111873896582"><ele>2.0</ele><time>2026-03-31T10:25:10Z</time></trkpt><trkpt lat="39.04140421123926" lon="8.455154728748816"><ele>2.0</ele><time>2026-03-31T10:25:11Z</time></trkpt><trkpt lat="39.04146554598642" lon="8.45519213800223"><ele>2.0</ele><time>2026-03-31T10:25:12Z</time></trkpt><trkpt lat="39.04159457603723" lon="8.455256780733695"><ele>2.0</ele><time>2026-03-31T10:25:14Z</time></trkpt><trkpt lat="39.041682976704685" lon="8.45529111163737"><ele>2.0</ele><time>2026-03-31T10:25:15Z</time></trkpt><trkpt lat="39.04177604565929" lon="8.455330646325642"><ele>2.25</ele><time>2026-03-31T10:25:16Z</time></trkpt><trkpt lat="39.04187648833847" lon="8.45536992853644"><ele>2.5</ele><time>2026-03-31T10:25:17Z</time></trkpt><trkpt lat="39.0419856096204" lon="8.455416048615005"><ele>2.75</ele><time>2026-03-31T10:25:18Z</time></trkpt><trkpt lat="39.04209997008001" lon="8.45544337853416"><ele>3.0</ele><time>2026-03-31T10:25:19Z</time></trkpt><trkpt lat="39.042225513288415" lon="8.455454174493378"><ele>3.25</ele><time>2026-03-31T10:25:20Z</time></trkpt><trkpt lat="39.04235000868795" lon="8.455457640890684"><ele>3.5</ele><time>2026-03-31T10:25:21Z</time></trkpt><trkpt lat="39.04247885953905" lon="8.455470563349124"><ele>3.75</ele><time>2026-03-31T10:25:22Z</time></trkpt><trkpt lat="39.04260802819775" lon="8.455484291734049"><ele>4.0</ele><time>2026-03-31T10:25:23Z</time></trkpt><trkpt lat="39.04274012498986" lon="8.455502026673027"><ele>4.0</ele><time>2026-03-31T10:25:24Z</time></trkpt><trkpt lat="39.04287115142039" lon="8.455516360039374"><ele>4.0</ele><time>2026-03-31T10:25:25Z</time></trkpt><trkpt lat="39.04300630511404" lon="8.455534459968366"><ele>4.0</ele><time>2026-03-31T10:25:26Z</time></trkpt><trkpt lat="39.043142257161904" lon="8.455553127063846"><ele>4.0</ele><time>2026-03-31T10:25:27Z</time></trkpt><trkpt lat="39.04327581645985" lon="8.455568759564702"><ele>3.5</ele><time>2026-03-31T10:25:28Z</time></trkpt><trkpt lat="39.043413970171216" lon="8.455585948302414"><ele>3.0</ele><time>2026-03-31T10:25:29Z</time></trkpt><trkpt lat="39.04355102129428" lon="8.455612596602785"><ele>2.5</ele><time>2026-03-31T10:25:30Z</time></trkpt><trkpt lat="39.04368204910983" lon="8.455642409898472"><ele>2.0</ele><time>2026-03-31T10:25:31Z</time></trkpt><trkpt lat="39.04381798623858" lon="8.455673546289214"><ele>2.0</ele><time>2026-03-31T10:25:32Z</time></trkpt><trkpt lat="39.04395179255277" lon="8.455709907536239"><ele>2.0</ele><time>2026-03-31T10:25:33Z</time></trkpt><trkpt lat="39.04408641512469" lon="8.45574188738864"><ele>2.0</ele><time>2026-03-31T10:25:34Z</time></trkpt><trkpt lat="39.044221607144415" lon="8.455776758776059"><ele>2.0</ele><time>2026-03-31T10:25:35Z</time></trkpt><trkpt lat="39.04435702171941" lon="8.45581448760549"><ele>2.0</ele><time>2026-03-31T10:25:36Z</time></trkpt><trkpt lat="39.044494041184336" lon="8.455850309199333"><ele>2.0</ele><time>2026-03-31T10:25:37Z</time></trkpt><trkpt lat="39.04463986704862" lon="8.455885240513924"><ele>2.0</ele><time>2026-03-31T10:25:38Z</time></trkpt><trkpt lat="39.044778567897225" lon="8.455934629430276"><ele>2.0</ele><time>2026-03-31T10:25:39Z</time></trkpt><trkpt lat="39.04491322166094" lon="8.456011879204215"><ele>1.75</ele><time>2026-03-31T10:25:40Z</time></trkpt><trkpt lat="39.045044208289916" lon="8.456099505146407"><ele>1.5</ele><time>2026-03-31T10:25:41Z</time></trkpt><trkpt lat="39.04517854732855" lon="8.45619312455054"><ele>1.25</ele><time>2026-03-31T10:25:42Z</time></trkpt><trkpt lat="39.045313274018746" lon="8.456274793202859"><ele>1.0</ele><time>2026-03-31T10:25:43Z</time></trkpt><trkpt lat="39.04545318323097" lon="8.45635234017971"><ele>1.0</ele><time>2026-03-31T10:25:44Z</time></trkpt><trkpt lat="39.045589148974564" lon="8.45643227927091"><ele>1.0</ele><time>2026-03-31T10:25:45Z</time></trkpt><trkpt lat="39.04572954056577" lon="8.456513430855273"><ele>1.0</ele><time>2026-03-31T10:25:46Z</time></trkpt><trkpt lat="39.045870764145505" lon="8.456590292268988"><ele>1.0</ele><time>2026-03-31T10:25:47Z</time></trkpt><trkpt lat="39.04600826560764" lon="8.456662428799874"><ele>1.0</ele><time>2026-03-31T10:25:48Z</time></trkpt><trkpt lat="39.04614903908744" lon="8.4567269672905"><ele>1.0</ele><time>2026-03-31T10:25:49Z</time></trkpt><trkpt lat="39.04629266817252" lon="8.45677821282166"><ele>1.0</ele><time>2026-03-31T10:25:50Z</time></trkpt><trkpt lat="39.04644041707043" lon="8.456808365213902"><ele>1.0</ele><time>2026-03-31T10:25:51Z</time></trkpt><trkpt lat="39.04658705576844" lon="8.456833889268378"><ele>1.0</ele><time>2026-03-31T10:25:52Z</time></trkpt><trkpt lat="39.0467331207075" lon="8.456854380932134"><ele>1.0</ele><time>2026-03-31T10:25:53Z</time></trkpt><trkpt lat="39.04688043193435" lon="8.456874647215232"><ele>1.0</ele><time>2026-03-31T10:25:54Z</time></trkpt><trkpt lat="39.047027664671724" lon="8.45689327929522"><ele>1.0</ele><time>2026-03-31T10:25:55Z</time></trkpt><trkpt lat="39.04717224359149" lon="8.456905655156136"><ele>1.0</ele><time>2026-03-31T10:25:56Z</time></trkpt><trkpt lat="39.047320107467755" lon="8.456906676427879"><ele>1.0</ele><time>2026-03-31T10:25:57Z</time></trkpt><trkpt lat="39.047466977197566" lon="8.456910286494306"><ele>1.0</ele><time>2026-03-31T10:25:58Z</time></trkpt><trkpt lat="39.047614255354425" lon="8.456920731144226"><ele>1.0</ele><time>2026-03-31T10:25:59Z</time></trkpt><trkpt lat="39.04776474811695" lon="8.456924519302023"><ele>1.0</ele><time>2026-03-31T10:26:00Z</time></trkpt><trkpt lat="39.04791482875697" lon="8.456927994875489"><ele>1.0</ele><time>2026-03-31T10:26:01Z</time></trkpt><trkpt lat="39.04806226108977" lon="8.456932817893101"><ele>1.0</ele><time>2026-03-31T10:26:02Z</time></trkpt><trkpt lat="39.04820715486854" lon="8.456929503302597"><ele>1.0</ele><time>2026-03-31T10:26:03Z</time></trkpt><trkpt lat="39.048352268822235" lon="8.456925831492008"><ele>1.0</ele><time>2026-03-31T10:26:04Z</time></trkpt><trkpt lat="39.04849553208737" lon="8.456924704573579"><ele>1.0</ele><time>2026-03-31T10:26:05Z</time></trkpt><trkpt lat="39.04863673719588" lon="8.456928182582622"><ele>1.0</ele><time>2026-03-31T10:26:06Z</time></trkpt><trkpt lat="39.04877000251374" lon="8.456968630504312"><ele>1.0</ele><time>2026-03-31T10:26:07Z</time></trkpt><trkpt lat="39.048888572775134" lon="8.456997905908455"><ele>1.0</ele><time>2026-03-31T10:26:08Z</time></trkpt><trkpt lat="39.0489999607692" lon="8.45702392104342"><ele>1.0</ele><time>2026-03-31T10:26:09Z</time></trkpt><trkpt lat="39.049116327215216" lon="8.45704909679527"><ele>1.0</ele><time>2026-03-31T10:26:10Z</time></trkpt><trkpt lat="39.049231079713245" lon="8.457076314521542"><ele>1.25</ele><time>2026-03-31T10:26:11Z</time></trkpt><trkpt lat="39.0493477641275" lon="8.457116752762817"><ele>1.5</ele><time>2026-03-31T10:26:12Z</time></trkpt><trkpt lat="39.04946350971699" lon="8.457169920252028"><ele>1.75</ele><time>2026-03-31T10:26:13Z</time></trkpt><trkpt lat="39.04958330202811" lon="8.457228429770945"><ele>2.0</ele><time>2026-03-31T10:26:14Z</time></trkpt><trkpt lat="39.04970313523625" lon="8.457283269240428"><ele>2.25</ele><time>2026-03-31T10:26:15Z</time></trkpt><trkpt lat="39.04982558961184" lon="8.457343923492777"><ele>2.5</ele><time>2026-03-31T10:26:16Z</time></trkpt><trkpt lat="39.04994854725864" lon="8.457404753967246"><ele>2.75</ele><time>2026-03-31T10:26:17Z</time></trkpt><trkpt lat="39.05007293770125" lon="8.45746491451781"><ele>3.0</ele><time>2026-03-31T10:26:18Z</time></trkpt><trkpt lat="39.050196925913106" lon="8.457524716834076"><ele>2.5</ele><time>2026-03-31T10:26:19Z</time></trkpt><trkpt lat="39.05032171864119" lon="8.457582549793935"><ele>2.0</ele><time>2026-03-31T10:26:20Z</time></trkpt><trkpt lat="39.050448403301516" lon="8.457643835582953"><ele>1.5</ele><time>2026-03-31T10:26:21Z</time></trkpt><trkpt lat="39.05057641630518" lon="8.457708319649553"><ele>1.0</ele><time>2026-03-31T10:26:22Z</time></trkpt><trkpt lat="39.050695899936514" lon="8.457776022914286"><ele>1.2000000000000002</ele><time>2026-03-31T10:26:23Z</time></trkpt><trkpt lat="39.0508040788189" lon="8.45784146746966"><ele>1.4000000000000001</ele><time>2026-03-31T10:26:24Z</time></trkpt><trkpt lat="39.0509154092195" lon="8.457898327552746"><ele>1.6</ele><time>2026-03-31T10:26:25Z</time></trkpt><trkpt lat="39.051022285308086" lon="8.457935904827343"><ele>1.8</ele><time>2026-03-31T10:26:26Z</time></trkpt><trkpt lat="39.05111451733611" lon="8.457972560133982"><ele>2.0</ele><time>2026-03-31T10:26:27Z</time></trkpt><trkpt lat="39.05120217883026" lon="8.45801045002209"><ele>1.8</ele><time>2026-03-31T10:26:28Z</time></trkpt><trkpt lat="39.05128966374064" lon="8.458047616849012"><ele>1.6</ele><time>2026-03-31T10:26:29Z</time></trkpt><trkpt lat="39.051388358634235" lon="8.45808169457964"><ele>1.4000000000000001</ele><time>2026-03-31T10:26:30Z</time></trkpt><trkpt lat="39.051500124129895" lon="8.458107718769236"><ele>1.2000000000000002</ele><time>2026-03-31T10:26:31Z</time></trkpt><trkpt lat="39.05161205436379" lon="8.458136370956089"><ele>1.0</ele><time>2026-03-31T10:26:32Z</time></trkpt><trkpt lat="39.05172423733748" lon="8.458160109477479"><ele>1.0</ele><time>2026-03-31T10:26:33Z</time></trkpt><trkpt lat="39.051840939929406" lon="8.458189539332711"><ele>1.0</ele><time>2026-03-31T10:26:34Z</time></trkpt><trkpt lat="39.05195759327708" lon="8.458228126175793"><ele>1.0</ele><time>2026-03-31T10:26:35Z</time></trkpt><trkpt lat="39.052074360525815" lon="8.45827601307321"><ele>1.0</ele><time>2026-03-31T10:26:36Z</time></trkpt><trkpt lat="39.052190381426826" lon="8.458312362803113"><ele>1.0</ele><time>2026-03-31T10:26:37Z</time></trkpt><trkpt lat="39.05230697832208" lon="8.458345417196556"><ele>1.0</ele><time>2026-03-31T10:26:38Z</time></trkpt><trkpt lat="39.05241955880844" lon="8.45838076863051"><ele>1.0</ele><time>2026-03-31T10:26:39Z</time></trkpt><trkpt lat="39.052532736864364" lon="8.458420673738681"><ele>1.0</ele><time>2026-03-31T10:26:40Z</time></trkpt><trkpt lat="39.05264240116486" lon="8.458457015102177"><ele>0.9999999999999999</ele><time>2026-03-31T10:26:41Z</time></trkpt><trkpt lat="39.05274330834613" lon="8.458489644014549"><ele>1.0</ele><time>2026-03-31T10:26:42Z</time></trkpt><trkpt lat="39.052823632023795" lon="8.458516435180647"><ele>1.0</ele><time>2026-03-31T10:26:43Z</time></trkpt><trkpt lat="39.0528991105182" lon="8.458546041388303"><ele>1.0</ele><time>2026-03-31T10:26:44Z</time></trkpt><trkpt lat="39.052972296489465" lon="8.458574996524797"><ele>0.9999999999999999</ele><time>2026-03-31T10:26:45Z</time></trkpt><trkpt lat="39.05305064222666" lon="8.458597942737878"><ele>1.0</ele><time>2026-03-31T10:26:46Z</time></trkpt><trkpt lat="39.05313505939684" lon="8.458625742911554"><ele>1.0</ele><time>2026-03-31T10:26:47Z</time></trkpt><trkpt lat="39.053215884346166" lon="8.458665262369033"><ele>1.0</ele><time>2026-03-31T10:26:48Z</time></trkpt><trkpt lat="39.053302223424076" lon="8.458712733707923"><ele>1.0</ele><time>2026-03-31T10:26:49Z</time></trkpt><trkpt lat="39.05339379869667" lon="8.458763566865242"><ele>1.0</ele><time>2026-03-31T10:26:50Z</time></trkpt><trkpt lat="39.053485901956606" lon="8.458808620011395"><ele>1.0</ele><time>2026-03-31T10:26:51Z</time></trkpt><trkpt lat="39.05358354914782" lon="8.458856744884084"><ele>1.0</ele><time>2026-03-31T10:26:52Z</time></trkpt><trkpt lat="39.05368109063492" lon="8.45890934923166"><ele>1.0</ele><time>2026-03-31T10:26:53Z</time></trkpt><trkpt lat="39.0537805548612" lon="8.458967995797266"><ele>1.0</ele><time>2026-03-31T10:26:54Z</time></trkpt><trkpt lat="39.05388753546353" lon="8.459027373291738"><ele>1.0</ele><time>2026-03-31T10:26:55Z</time></trkpt><trkpt lat="39.05399959603086" lon="8.459090061801177"><ele>1.0</ele><time>2026-03-31T10:26:56Z</time></trkpt><trkpt lat="39.05411364450374" lon="8.459158138577628"><ele>1.0</ele><time>2026-03-31T10:26:57Z</time></trkpt><trkpt lat="39.05422908577579" lon="8.45922707166253"><ele>1.0</ele><time>2026-03-31T10:26:58Z</time></trkpt><trkpt lat="39.05434722158205" lon="8.459287943727352"><ele>1.0</ele><time>2026-03-31T10:26:59Z</time></trkpt><trkpt lat="39.05446976571925" lon="8.459343884088579"><ele>1.3333333333333333</ele><time>2026-03-31T10:27:00Z</time></trkpt><trkpt lat="39.05472029263805" lon="8.459450536483095"><ele>1.6666666666666665</ele><time>2026-03-31T10:27:02Z</time></trkpt><trkpt lat="39.05484688308758" lon="8.459495190899064"><ele>2.0</ele><time>2026-03-31T10:27:03Z</time></trkpt><trkpt lat="39.05497289044269" lon="8.459537810615014"><ele>2.5</ele><time>2026-03-31T10:27:04Z</time></trkpt><trkpt lat="39.05509886014478" lon="8.459576307374109"><ele>3.0</ele><time>2026-03-31T10:27:05Z</time></trkpt><trkpt lat="39.05522285482493" lon="8.459613484371113"><ele>3.5</ele><time>2026-03-31T10:27:06Z</time></trkpt><trkpt lat="39.05534551279155" lon="8.459650167569102"><ele>4.0</ele><time>2026-03-31T10:27:07Z</time></trkpt><trkpt lat="39.055465688787905" lon="8.459688919879314"><ele>4.0</ele><time>2026-03-31T10:27:08Z</time></trkpt><trkpt lat="39.055582724935306" lon="8.459727339025402"><ele>4.0</ele><time>2026-03-31T10:27:09Z</time></trkpt><trkpt lat="39.05569953263244" lon="8.459766726629562"><ele>4.0</ele><time>2026-03-31T10:27:10Z</time></trkpt><trkpt lat="39.05581790754021" lon="8.45980565363415"><ele>4.0</ele><time>2026-03-31T10:27:11Z</time></trkpt><trkpt lat="39.05593647030644" lon="8.459841558410005"><ele>4.5</ele><time>2026-03-31T10:27:12Z</time></trkpt><trkpt lat="39.056057882982756" lon="8.459877271707382"><ele>5.0</ele><time>2026-03-31T10:27:13Z</time></trkpt><trkpt lat="39.056181564150194" lon="8.459908556441375"><ele>5.5</ele><time>2026-03-31T10:27:14Z</time></trkpt><trkpt lat="39.05630677291049" lon="8.459928538740364"><ele>6.0</ele><time>2026-03-31T10:27:15Z</time></trkpt><trkpt lat="39.05643297305366" lon="8.459942379474503"><ele>6.0</ele><time>2026-03-31T10:27:16Z</time></trkpt><trkpt lat="39.05656082496793" lon="8.459957796639811"><ele>6.0</ele><time>2026-03-31T10:27:17Z</time></trkpt><trkpt lat="39.05669071169942" lon="8.459976382717555"><ele>6.0</ele><time>2026-03-31T10:27:18Z</time></trkpt><trkpt lat="39.05681839330056" lon="8.459995811544285"><ele>6.0</ele><time>2026-03-31T10:27:19Z</time></trkpt><trkpt lat="39.05694195213789" lon="8.460012961584965"><ele>6.0</ele><time>2026-03-31T10:27:20Z</time></trkpt><trkpt lat="39.05705316468333" lon="8.460023494402959"><ele>6.0</ele><time>2026-03-31T10:27:21Z</time></trkpt><trkpt lat="39.05715592212834" lon="8.46002908379235"><ele>6.0</ele><time>2026-03-31T10:27:22Z</time></trkpt><trkpt lat="39.057252393668634" lon="8.460033786199745"><ele>6.0</ele><time>2026-03-31T10:27:23Z</time></trkpt><trkpt lat="39.05734073676103" lon="8.46003351363493"><ele>6.0</ele><time>2026-03-31T10:27:24Z</time></trkpt><trkpt lat="39.05743048205069" lon="8.46004043370478"><ele>6.0</ele><time>2026-03-31T10:27:25Z</time></trkpt><trkpt lat="39.057523079378115" lon="8.460052488821082"><ele>6.0</ele><time>2026-03-31T10:27:26Z</time></trkpt><trkpt lat="39.05761179381273" lon="8.46006600761561"><ele>6.0</ele><time>2026-03-31T10:27:27Z</time></trkpt><trkpt lat="39.057689911901704" lon="8.46007564698654"><ele>6.0</ele><time>2026-03-31T10:27:28Z</time></trkpt><trkpt lat="39.057782693866685" lon="8.460086189126372"><ele>6.0</ele><time>2026-03-31T10:27:29Z</time></trkpt><trkpt lat="39.05788124355579" lon="8.460097610444535"><ele>6.0</ele><time>2026-03-31T10:27:30Z</time></trkpt><trkpt lat="39.05797483830385" lon="8.460109226723622"><ele>6.0</ele><time>2026-03-31T10:27:31Z</time></trkpt><trkpt lat="39.05805781986453" lon="8.460122142707776"><ele>6.0</ele><time>2026-03-31T10:27:32Z</time></trkpt><trkpt lat="39.0581300350578" lon="8.460146679510306"><ele>6.0</ele><time>2026-03-31T10:27:33Z</time></trkpt><trkpt lat="39.058201347341985" lon="8.460163809939736"><ele>6.0</ele><time>2026-03-31T10:27:34Z</time></trkpt><trkpt lat="39.05826960574747" lon="8.46016597611383"><ele>6.0</ele><time>2026-03-31T10:27:35Z</time></trkpt><trkpt lat="39.0583460649234" lon="8.46016491212812"><ele>6.0</ele><time>2026-03-31T10:27:36Z</time></trkpt><trkpt lat="39.05843340115548" lon="8.460171856044434"><ele>6.0</ele><time>2026-03-31T10:27:37Z</time></trkpt><trkpt lat="39.058516934773344" lon="8.46017519990889"><ele>6.0</ele><time>2026-03-31T10:27:38Z</time></trkpt><trkpt lat="39.058594742428184" lon="8.460173642145744"><ele>6.0</ele><time>2026-03-31T10:27:39Z</time></trkpt><trkpt lat="39.0587837451467" lon="8.460148684400709"><ele>6.0</ele><time>2026-03-31T10:27:42Z</time></trkpt><trkpt lat="39.058848285805546" lon="8.460143937225792"><ele>6.0</ele><time>2026-03-31T10:27:43Z</time></trkpt><trkpt lat="39.05892040633488" lon="8.460131419224615"><ele>6.0</ele><time>2026-03-31T10:27:44Z</time></trkpt><trkpt lat="39.05900017257686" lon="8.460108379986732"><ele>6.0</ele><time>2026-03-31T10:27:45Z</time></trkpt><trkpt lat="39.0590910624704" lon="8.460068097375055"><ele>6.0</ele><time>2026-03-31T10:27:46Z</time></trkpt><trkpt lat="39.05918604474231" lon="8.460026066902385"><ele>6.0</ele><time>2026-03-31T10:27:47Z</time></trkpt><trkpt lat="39.05928305195568" lon="8.459977928899729"><ele>5.8</ele><time>2026-03-31T10:27:48Z</time></trkpt><trkpt lat="39.05937812098989" lon="8.459926972474742"><ele>5.6</ele><time>2026-03-31T10:27:49Z</time></trkpt><trkpt lat="39.059470832704946" lon="8.4598784229921"><ele>5.4</ele><time>2026-03-31T10:27:50Z</time></trkpt><trkpt lat="39.05956961814558" lon="8.459852648499739"><ele>5.2</ele><time>2026-03-31T10:27:51Z</time></trkpt><trkpt lat="39.059654100573226" lon="8.459812645226604"><ele>5.0</ele><time>2026-03-31T10:27:52Z</time></trkpt><trkpt lat="39.05973199328276" lon="8.459775762310123"><ele>5.0</ele><time>2026-03-31T10:27:53Z</time></trkpt><trkpt lat="39.05979808689891" lon="8.459720766682793"><ele>5.0</ele><time>2026-03-31T10:27:54Z</time></trkpt><trkpt lat="39.059866379248305" lon="8.459688230109387"><ele>5.0</ele><time>2026-03-31T10:27:55Z</time></trkpt><trkpt lat="39.059931907669664" lon="8.459658320264532"><ele>5.0</ele><time>2026-03-31T10:27:56Z</time></trkpt><trkpt lat="39.05999575416067" lon="8.459628451353497"><ele>5.0</ele><time>2026-03-31T10:27:57Z</time></trkpt><trkpt lat="39.06010437492461" lon="8.459575473534098"><ele>5.0</ele><time>2026-03-31T10:27:59Z</time></trkpt><trkpt lat="39.06017857849739" lon="8.45953438305677"><ele>5.0</ele><time>2026-03-31T10:28:01Z</time></trkpt><trkpt lat="39.060244379043546" lon="8.459510176832003"><ele>5.0</ele><time>2026-03-31T10:28:11Z</time></trkpt><trkpt lat="39.060321642740874" lon="8.459534740136553"><ele>5.0</ele><time>2026-03-31T10:28:21Z</time></trkpt><trkpt lat="39.060406496991874" lon="8.45951820012571"><ele>5.0</ele><time>2026-03-31T10:28:24Z</time></trkpt><trkpt lat="39.060472769838526" lon="8.459486484406158"><ele>5.0</ele><time>2026-03-31T10:28:26Z</time></trkpt><trkpt lat="39.060533597130686" lon="8.45939320958218"><ele>5.0</ele><time>2026-03-31T10:28:28Z</time></trkpt><trkpt lat="39.060623884249665" lon="8.45930445342913"><ele>5.0</ele><time>2026-03-31T10:28:30Z</time></trkpt><trkpt lat="39.060718508903975" lon="8.459216243970513"><ele>5.0</ele><time>2026-03-31T10:28:32Z</time></trkpt><trkpt lat="39.060818370377966" lon="8.459117353400645"><ele>5.0</ele><time>2026-03-31T10:28:34Z</time></trkpt><trkpt lat="39.06090588532583" lon="8.45902866753231"><ele>5.0</ele><time>2026-03-31T10:28:36Z</time></trkpt><trkpt lat="39.06097817875614" lon="8.45894638806158"><ele>5.0</ele><time>2026-03-31T10:28:38Z</time></trkpt><trkpt lat="39.06105940771177" lon="8.458864246469043"><ele>5.0</ele><time>2026-03-31T10:28:40Z</time></trkpt><trkpt lat="39.06115195689761" lon="8.458771541279836"><ele>5.0</ele><time>2026-03-31T10:28:42Z</time></trkpt><trkpt lat="39.0612433687846" lon="8.458708576077429"><ele>5.0</ele><time>2026-03-31T10:28:44Z</time></trkpt><trkpt lat="39.0613151644837" lon="8.458639406506848"><ele>5.0</ele><time>2026-03-31T10:28:46Z</time></trkpt><trkpt lat="39.06137655560486" lon="8.458580787747493"><ele>5.166666666666667</ele><time>2026-03-31T10:28:48Z</time></trkpt><trkpt lat="39.061455212694355" lon="8.458505682691122"><ele>5.333333333333334</ele><time>2026-03-31T10:28:51Z</time></trkpt><trkpt lat="39.06154959878661" lon="8.458415559352591"><ele>5.5</ele><time>2026-03-31T10:28:53Z</time></trkpt><trkpt lat="39.06160485217309" lon="8.458363669250017"><ele>5.666666666666667</ele><time>2026-03-31T10:28:54Z</time></trkpt><trkpt lat="39.061662321825914" lon="8.458309394503676"><ele>5.833333333333333</ele><time>2026-03-31T10:28:55Z</time></trkpt><trkpt lat="39.06172383634725" lon="8.458251299756757"><ele>6.0</ele><time>2026-03-31T10:28:56Z</time></trkpt><trkpt lat="39.06177942860061" lon="8.458198798049814"><ele>5.999999999999999</ele><time>2026-03-31T10:28:57Z</time></trkpt><trkpt lat="39.06183194627319" lon="8.458149751754767"><ele>6.0</ele><time>2026-03-31T10:28:58Z</time></trkpt><trkpt lat="39.06188626302533" lon="8.458099685244921"><ele>6.0</ele><time>2026-03-31T10:28:59Z</time></trkpt><trkpt lat="39.06194272488952" lon="8.458045614845664"><ele>6.0</ele><time>2026-03-31T10:29:00Z</time></trkpt><trkpt lat="39.0620032732907" lon="8.457987631050724"><ele>6.0</ele><time>2026-03-31T10:29:01Z</time></trkpt><trkpt lat="39.06206520333802" lon="8.457928324090974"><ele>5.999999999999999</ele><time>2026-03-31T10:29:02Z</time></trkpt><trkpt lat="39.06212773139072" lon="8.4578683232068"><ele>6.0</ele><time>2026-03-31T10:29:03Z</time></trkpt><trkpt lat="39.06218438497065" lon="8.45778820818677"><ele>6.0</ele><time>2026-03-31T10:29:04Z</time></trkpt><trkpt lat="39.062251735143256" lon="8.4577223465547"><ele>6.0</ele><time>2026-03-31T10:29:05Z</time></trkpt><trkpt lat="39.062315007229515" lon="8.457670891147998"><ele>6.0</ele><time>2026-03-31T10:29:06Z</time></trkpt><trkpt lat="39.06236982079243" lon="8.457615652188895"><ele>6.0</ele><time>2026-03-31T10:29:07Z</time></trkpt><trkpt lat="39.06246751253828" lon="8.457526760911543"><ele>6.0</ele><time>2026-03-31T10:29:09Z</time></trkpt><trkpt lat="39.06255186900057" lon="8.457437548842671"><ele>6.0</ele><time>2026-03-31T10:29:11Z</time></trkpt><trkpt lat="39.062654164335974" lon="8.45733418756449"><ele>6.0</ele><time>2026-03-31T10:29:13Z</time></trkpt><trkpt lat="39.062712774969185" lon="8.457276786551345"><ele>6.0</ele><time>2026-03-31T10:29:14Z</time></trkpt><trkpt lat="39.06276976033885" lon="8.457220694187393"><ele>6.0</ele><time>2026-03-31T10:29:15Z</time></trkpt><trkpt lat="39.06283328058299" lon="8.457184477933705"><ele>6.0</ele><time>2026-03-31T10:29:16Z</time></trkpt><trkpt lat="39.0628845690572" lon="8.457135514450142"><ele>6.0</ele><time>2026-03-31T10:29:17Z</time></trkpt><trkpt lat="39.062937358876034" lon="8.457085158756856"><ele>6.166666666666667</ele><time>2026-03-31T10:29:18Z</time></trkpt><trkpt lat="39.06299291889995" lon="8.45703431884362"><ele>6.333333333333334</ele><time>2026-03-31T10:29:19Z</time></trkpt><trkpt lat="39.06304531911406" lon="8.45698642871274"><ele>6.5</ele><time>2026-03-31T10:29:20Z</time></trkpt><trkpt lat="39.063097676503915" lon="8.456938577690098"><ele>6.666666666666667</ele><time>2026-03-31T10:29:21Z</time></trkpt><trkpt lat="39.063194070900565" lon="8.456847995912138"><ele>6.833333333333334</ele><time>2026-03-31T10:29:23Z</time></trkpt><trkpt lat="39.06328240451546" lon="8.456763212527383"><ele>7.0</ele><time>2026-03-31T10:29:25Z</time></trkpt><trkpt lat="39.063377376705475" lon="8.456669782776558"><ele>7.000000000000001</ele><time>2026-03-31T10:29:27Z</time></trkpt><trkpt lat="39.063427844959214" lon="8.456620073183647"><ele>7.0</ele><time>2026-03-31T10:29:28Z</time></trkpt><trkpt lat="39.06348064555379" lon="8.456568066314722"><ele>7.0</ele><time>2026-03-31T10:29:29Z</time></trkpt><trkpt lat="39.063532991094576" lon="8.456516507653815"><ele>7.0</ele><time>2026-03-31T10:29:30Z</time></trkpt><trkpt lat="39.063632234976936" lon="8.456421114144446"><ele>7.000000000000001</ele><time>2026-03-31T10:29:32Z</time></trkpt><trkpt lat="39.06368564048962" lon="8.456370904547137"><ele>7.0</ele><time>2026-03-31T10:29:33Z</time></trkpt><trkpt lat="39.0637424049095" lon="8.456319006133697"><ele>7.333333333333334</ele><time>2026-03-31T10:29:34Z</time></trkpt><trkpt lat="39.063799419218164" lon="8.456267725398991"><ele>7.666666666666667</ele><time>2026-03-31T10:29:35Z</time></trkpt><trkpt lat="39.063855837098686" lon="8.456218754909212"><ele>8.0</ele><time>2026-03-31T10:29:36Z</time></trkpt><trkpt lat="39.06391381763755" lon="8.45616921368988"><ele>8.333333333333334</ele><time>2026-03-31T10:29:37Z</time></trkpt><trkpt lat="39.063972968717316" lon="8.456119290213291"><ele>8.666666666666666</ele><time>2026-03-31T10:29:38Z</time></trkpt><trkpt lat="39.06402925781431" lon="8.456072364969916"><ele>9.0</ele><time>2026-03-31T10:29:39Z</time></trkpt><trkpt lat="39.064118743502206" lon="8.455985285023255"><ele>9.0</ele><time>2026-03-31T10:29:41Z</time></trkpt><trkpt lat="39.064197558731486" lon="8.455915427999816"><ele>9.0</ele><time>2026-03-31T10:29:43Z</time></trkpt><trkpt lat="39.06428129175204" lon="8.455868269826922"><ele>9.0</ele><time>2026-03-31T10:29:45Z</time></trkpt><trkpt lat="39.06434483098997" lon="8.455887619512072"><ele>9.0</ele><time>2026-03-31T10:29:47Z</time></trkpt><trkpt lat="39.06436615276315" lon="8.456050522440773"><ele>9.0</ele><time>2026-03-31T10:29:49Z</time></trkpt><trkpt lat="39.06440077279427" lon="8.456211033280328"><ele>8.5</ele><time>2026-03-31T10:29:51Z</time></trkpt><trkpt lat="39.064415611687366" lon="8.456307811562771"><ele>8.0</ele><time>2026-03-31T10:29:52Z</time></trkpt><trkpt lat="39.06443356008077" lon="8.456408908921444"><ele>7.5</ele><time>2026-03-31T10:29:53Z</time></trkpt><trkpt lat="39.06444960298303" lon="8.456505426843508"><ele>7.0</ele><time>2026-03-31T10:29:54Z</time></trkpt><trkpt lat="39.06446700499281" lon="8.456593475303976"><ele>6.5</ele><time>2026-03-31T10:29:55Z</time></trkpt><trkpt lat="39.06448506701214" lon="8.456688284331674"><ele>6.0</ele><time>2026-03-31T10:29:56Z</time></trkpt><trkpt lat="39.064491625454885" lon="8.456798735599047"><ele>5.999999999999999</ele><time>2026-03-31T10:29:57Z</time></trkpt><trkpt lat="39.06451179261408" lon="8.456891477994168"><ele>6.0</ele><time>2026-03-31T10:29:58Z</time></trkpt><trkpt lat="39.0645220683819" lon="8.45698182918484"><ele>6.0</ele><time>2026-03-31T10:29:59Z</time></trkpt><trkpt lat="39.064531589228025" lon="8.457067650239551"><ele>6.0</ele><time>2026-03-31T10:30:00Z</time></trkpt><trkpt lat="39.06454637838077" lon="8.45715336129338"><ele>6.0</ele><time>2026-03-31T10:30:01Z</time></trkpt><trkpt lat="39.06456455161526" lon="8.457241417499894"><ele>5.999999999999999</ele><time>2026-03-31T10:30:02Z</time></trkpt><trkpt lat="39.06458311689242" lon="8.457332932549539"><ele>6.0</ele><time>2026-03-31T10:30:03Z</time></trkpt><trkpt lat="39.06460033590695" lon="8.457427025998324"><ele>5.666666666666667</ele><time>2026-03-31T10:30:04Z</time></trkpt><trkpt lat="39.0646165887183" lon="8.457521822623539"><ele>5.333333333333333</ele><time>2026-03-31T10:30:05Z</time></trkpt><trkpt lat="39.06462528598257" lon="8.457611532249556"><ele>5.0</ele><time>2026-03-31T10:30:06Z</time></trkpt><trkpt lat="39.06463596355606" lon="8.457697385928462"><ele>4.666666666666666</ele><time>2026-03-31T10:30:07Z</time></trkpt><trkpt lat="39.06466208638128" lon="8.457837013925"><ele>4.333333333333333</ele><time>2026-03-31T10:30:09Z</time></trkpt><trkpt lat="39.06468339802146" lon="8.457913572644555"><ele>4.0</ele><time>2026-03-31T10:30:13Z</time></trkpt><trkpt lat="39.06475930622371" lon="8.457998011450602"><ele>3.833333333333333</ele><time>2026-03-31T10:30:16Z</time></trkpt><trkpt lat="39.06487806683402" lon="8.458020932069177"><ele>3.6666666666666665</ele><time>2026-03-31T10:30:18Z</time></trkpt><trkpt lat="39.06494241261109" lon="8.458016641038833"><ele>3.5</ele><time>2026-03-31T10:30:19Z</time></trkpt><trkpt lat="39.065011866023525" lon="8.45803359680041"><ele>3.333333333333333</ele><time>2026-03-31T10:30:20Z</time></trkpt><trkpt lat="39.065072065305934" lon="8.458070766263482"><ele>3.1666666666666665</ele><time>2026-03-31T10:30:21Z</time></trkpt><trkpt lat="39.065139737059845" lon="8.458088117991142"><ele>3.0</ele><time>2026-03-31T10:30:22Z</time></trkpt><trkpt lat="39.065208178720205" lon="8.45810566713654"><ele>3.0</ele><time>2026-03-31T10:30:23Z</time></trkpt><trkpt lat="39.06527484500393" lon="8.458122760993831"><ele>3.0</ele><time>2026-03-31T10:30:24Z</time></trkpt><trkpt lat="39.06534039809" lon="8.458141043763593"><ele>3.0</ele><time>2026-03-31T10:30:25Z</time></trkpt><trkpt lat="39.06543550197151" lon="8.458211056665403"><ele>3.0</ele><time>2026-03-31T10:30:27Z</time></trkpt><trkpt lat="39.06548125906602" lon="8.458337742934445"><ele>3.0</ele><time>2026-03-31T10:30:29Z</time></trkpt><trkpt lat="39.06560931358466" lon="8.45836987289347"><ele>2.9999999999999996</ele><time>2026-03-31T10:30:31Z</time></trkpt><trkpt lat="39.065674456544265" lon="8.458340674540915"><ele>3.0</ele><time>2026-03-31T10:30:32Z</time></trkpt><trkpt lat="39.065739243942446" lon="8.458325371551272"><ele>3.0</ele><time>2026-03-31T10:30:33Z</time></trkpt><trkpt lat="39.06581369438079" lon="8.458322918268657"><ele>3.0</ele><time>2026-03-31T10:30:34Z</time></trkpt><trkpt lat="39.06589161326045" lon="8.458311773455831"><ele>3.0</ele><time>2026-03-31T10:30:35Z</time></trkpt><trkpt lat="39.0659660760217" lon="8.458293418812662"><ele>2.9999999999999996</ele><time>2026-03-31T10:30:36Z</time></trkpt><trkpt lat="39.06603930471356" lon="8.458275328521692"><ele>3.0</ele><time>2026-03-31T10:30:37Z</time></trkpt><trkpt lat="39.066120170727245" lon="8.458283687805856"><ele>3.1666666666666665</ele><time>2026-03-31T10:30:38Z</time></trkpt><trkpt lat="39.066205687754355" lon="8.458278725300678"><ele>3.333333333333333</ele><time>2026-03-31T10:30:39Z</time></trkpt><trkpt lat="39.06628851075438" lon="8.458269358186243"><ele>3.5</ele><time>2026-03-31T10:30:40Z</time></trkpt><trkpt lat="39.06637147290394" lon="8.458289026858576"><ele>3.6666666666666665</ele><time>2026-03-31T10:30:41Z</time></trkpt><trkpt lat="39.066456054519065" lon="8.458303563221634"><ele>3.833333333333333</ele><time>2026-03-31T10:30:42Z</time></trkpt><trkpt lat="39.066544352784575" lon="8.458312130140888"><ele>4.0</ele><time>2026-03-31T10:30:43Z</time></trkpt><trkpt lat="39.06662654906034" lon="8.458332860220585"><ele>3.9999999999999996</ele><time>2026-03-31T10:30:44Z</time></trkpt><trkpt lat="39.06670595825701" lon="8.45834826582209"><ele>4.0</ele><time>2026-03-31T10:30:45Z</time></trkpt><trkpt lat="39.0667835927707" lon="8.458374792151796"><ele>4.0</ele><time>2026-03-31T10:30:46Z</time></trkpt><trkpt lat="39.06686370414864" lon="8.458406572315168"><ele>4.0</ele><time>2026-03-31T10:30:47Z</time></trkpt><trkpt lat="39.066946100833256" lon="8.458443373570928"><ele>3.9999999999999996</ele><time>2026-03-31T10:30:48Z</time></trkpt><trkpt lat="39.06703156044201" lon="8.458481005160461"><ele>4.0</ele><time>2026-03-31T10:30:49Z</time></trkpt><trkpt lat="39.06711833178542" lon="8.458515677660424"><ele>3.9999999999999996</ele><time>2026-03-31T10:30:50Z</time></trkpt><trkpt lat="39.06720050293969" lon="8.45855193664981"><ele>4.0</ele><time>2026-03-31T10:30:51Z</time></trkpt><trkpt lat="39.067277886292615" lon="8.458586996416182"><ele>4.0</ele><time>2026-03-31T10:30:52Z</time></trkpt><trkpt lat="39.0673529223174" lon="8.45861680052447"><ele>4.0</ele><time>2026-03-31T10:30:53Z</time></trkpt><trkpt lat="39.06743025951032" lon="8.458649135038284"><ele>3.9999999999999996</ele><time>2026-03-31T10:30:54Z</time></trkpt><trkpt lat="39.067508861434284" lon="8.458684165725694"><ele>4.0</ele><time>2026-03-31T10:30:55Z</time></trkpt><trkpt lat="39.06758944745609" lon="8.458718319535043"><ele>3.8571428571428568</ele><time>2026-03-31T10:30:56Z</time></trkpt><trkpt lat="39.06766459356903" lon="8.458751768003895"><ele>3.714285714285714</ele><time>2026-03-31T10:30:57Z</time></trkpt><trkpt lat="39.06773798110597" lon="8.458780044900827"><ele>3.571428571428571</ele><time>2026-03-31T10:30:58Z</time></trkpt><trkpt lat="39.0678058289346" lon="8.458804972232157"><ele>3.4285714285714284</ele><time>2026-03-31T10:30:59Z</time></trkpt><trkpt lat="39.067868523722666" lon="8.458826134788133"><ele>3.2857142857142856</ele><time>2026-03-31T10:31:00Z</time></trkpt><trkpt lat="39.06793035329364" lon="8.458846169367476"><ele>3.1428571428571423</ele><time>2026-03-31T10:31:01Z</time></trkpt><trkpt lat="39.06800101486416" lon="8.458867546860416"><ele>3.0</ele><time>2026-03-31T10:31:02Z</time></trkpt><trkpt lat="39.06807319144888" lon="8.458883367743605"><ele>3.1666666666666665</ele><time>2026-03-31T10:31:03Z</time></trkpt><trkpt lat="39.068142021321194" lon="8.458886141564257"><ele>3.333333333333333</ele><time>2026-03-31T10:31:04Z</time></trkpt><trkpt lat="39.06820650105178" lon="8.45888775530107"><ele>3.5</ele><time>2026-03-31T10:31:05Z</time></trkpt><trkpt lat="39.06831173502755" lon="8.458900890855569"><ele>3.6666666666666665</ele><time>2026-03-31T10:31:07Z</time></trkpt><trkpt lat="39.068408282633484" lon="8.458924514129839"><ele>3.833333333333333</ele><time>2026-03-31T10:31:10Z</time></trkpt><trkpt lat="39.06850562340682" lon="8.458966839943363"><ele>4.0</ele><time>2026-03-31T10:31:12Z</time></trkpt><trkpt lat="39.06858777955361" lon="8.458985354850993"><ele>4.0</ele><time>2026-03-31T10:31:14Z</time></trkpt><trkpt lat="39.06856962028976" lon="8.458831326118785"><ele>4.0</ele><time>2026-03-31T10:31:19Z</time></trkpt><trkpt lat="39.06843255260465" lon="8.458832420917282"><ele>4.0</ele><time>2026-03-31T11:10:56.558Z</time></trkpt></trkseg></trk></gpx>